<?xml version='1.0' encoding='UTF-8'?><gpx version="1.1" creator="JPX - https://github.com/jenetics/jpx" xmlns="http://www.topografix.com/GPX/1/1"><trk><trkseg><trkpt lat="43.5807182" lon="2.3701246"><ele>342.0</ele><time>2026-05-02T08:21:34.532Z</time></trkpt><trkpt lat="43.5807803" lon="2.3700667"><ele>342.0</ele><time>2026-05-02T08:21:42.532Z</time></trkpt><trkpt lat="43.5808511" lon="2.3700605"><ele>342.0</ele><time>2026-05-02T08:21:44.531Z</time></trkpt><trkpt lat="43.5809463" lon="2.3700219"><ele>342.0</ele><time>2026-05-02T08:21:46.531Z</time></trkpt><trkpt lat="43.5809818" lon="2.3699154"><ele>342.0</ele><time>2026-05-02T08:21:47.532Z</time></trkpt><trkpt lat="43.5810149" lon="2.3698108"><ele>342.0</ele><time>2026-05-02T08:21:48.532Z</time></trkpt><trkpt lat="43.581035" lon="2.3697214"><ele>341.6</ele><time>2026-05-02T08:21:49.531Z</time></trkpt><trkpt lat="43.5810854" lon="2.3695744"><ele>341.20000000000005</ele><time>2026-05-02T08:21:51.531Z</time></trkpt><trkpt lat="43.5811364" lon="2.3694446"><ele>340.8</ele><time>2026-05-02T08:21:53.531Z</time></trkpt><trkpt lat="43.5811882" lon="2.369321"><ele>340.4</ele><time>2026-05-02T08:21:55.532Z</time></trkpt><trkpt lat="43.5812358" lon="2.369195"><ele>340.0</ele><time>2026-05-02T08:21:57.532Z</time></trkpt><trkpt lat="43.5812977" lon="2.3690565"><ele>343.0</ele><time>2026-05-02T08:21:59.533Z</time></trkpt><trkpt lat="43.5813427" lon="2.3688995"><ele>346.0</ele><time>2026-05-02T08:22:01.531Z</time></trkpt><trkpt lat="43.5813814" lon="2.3687705"><ele>349.0</ele><time>2026-05-02T08:22:03.533Z</time></trkpt><trkpt lat="43.5814083" lon="2.3686307"><ele>352.0</ele><time>2026-05-02T08:22:05.532Z</time></trkpt><trkpt lat="43.5814338" lon="2.3684578"><ele>352.14285714285717</ele><time>2026-05-02T08:22:07.532Z</time></trkpt><trkpt lat="43.5814577" lon="2.3683525"><ele>352.2857142857143</ele><time>2026-05-02T08:22:08.532Z</time></trkpt><trkpt lat="43.5814724" lon="2.3682513"><ele>352.42857142857144</ele><time>2026-05-02T08:22:09.532Z</time></trkpt><trkpt lat="43.5814811" lon="2.3681509"><ele>352.57142857142856</ele><time>2026-05-02T08:22:10.531Z</time></trkpt><trkpt lat="43.5814984" lon="2.3680543"><ele>352.7142857142857</ele><time>2026-05-02T08:22:11.531Z</time></trkpt><trkpt lat="43.5815108" lon="2.3679671"><ele>352.85714285714283</ele><time>2026-05-02T08:22:12.532Z</time></trkpt><trkpt lat="43.5815305" lon="2.3678735"><ele>353.0</ele><time>2026-05-02T08:22:13.531Z</time></trkpt><trkpt lat="43.5815499" lon="2.3677863"><ele>352.0</ele><time>2026-05-02T08:22:14.532Z</time></trkpt><trkpt lat="43.5815717" lon="2.3676955"><ele>351.0</ele><time>2026-05-02T08:22:15.532Z</time></trkpt><trkpt lat="43.5816023" lon="2.3675959"><ele>350.0</ele><time>2026-05-02T08:22:16.531Z</time></trkpt><trkpt lat="43.5816291" lon="2.3675112"><ele>349.0</ele><time>2026-05-02T08:22:17.532Z</time></trkpt><trkpt lat="43.5816953" lon="2.3673674"><ele>348.0</ele><time>2026-05-02T08:22:19.53Z</time></trkpt><trkpt lat="43.5817835" lon="2.3672411"><ele>346.6666666666667</ele><time>2026-05-02T08:22:21.533Z</time></trkpt><trkpt lat="43.5818384" lon="2.3671824"><ele>345.3333333333333</ele><time>2026-05-02T08:22:22.533Z</time></trkpt><trkpt lat="43.5819022" lon="2.367115"><ele>344.0</ele><time>2026-05-02T08:22:23.53Z</time></trkpt><trkpt lat="43.5819685" lon="2.3670442"><ele>342.66666666666663</ele><time>2026-05-02T08:22:24.532Z</time></trkpt><trkpt lat="43.5820367" lon="2.366974"><ele>341.3333333333333</ele><time>2026-05-02T08:22:25.532Z</time></trkpt><trkpt lat="43.5821008" lon="2.3669173"><ele>340.0</ele><time>2026-05-02T08:22:26.532Z</time></trkpt><trkpt lat="43.5821209" lon="2.3667753"><ele>342.0</ele><time>2026-05-02T08:22:27.533Z</time></trkpt><trkpt lat="43.5821439" lon="2.3666601"><ele>344.0</ele><time>2026-05-02T08:22:28.533Z</time></trkpt><trkpt lat="43.5821541" lon="2.3665473"><ele>346.0</ele><time>2026-05-02T08:22:29.531Z</time></trkpt><trkpt lat="43.5821734" lon="2.366431"><ele>348.0</ele><time>2026-05-02T08:22:30.531Z</time></trkpt><trkpt lat="43.5821739" lon="2.3663331"><ele>350.0</ele><time>2026-05-02T08:22:31.531Z</time></trkpt><trkpt lat="43.582178" lon="2.3662394"><ele>352.0</ele><time>2026-05-02T08:22:32.531Z</time></trkpt><trkpt lat="43.5821871" lon="2.3661287"><ele>352.0</ele><time>2026-05-02T08:22:33.53Z</time></trkpt><trkpt lat="43.5821884" lon="2.3660233"><ele>352.0</ele><time>2026-05-02T08:22:34.531Z</time></trkpt><trkpt lat="43.5822013" lon="2.3659223"><ele>352.0</ele><time>2026-05-02T08:22:35.531Z</time></trkpt><trkpt lat="43.5822274" lon="2.3658311"><ele>352.0</ele><time>2026-05-02T08:22:36.532Z</time></trkpt><trkpt lat="43.5822518" lon="2.3657355"><ele>352.0</ele><time>2026-05-02T08:22:37.531Z</time></trkpt><trkpt lat="43.5822728" lon="2.3656466"><ele>352.0</ele><time>2026-05-02T08:22:38.532Z</time></trkpt><trkpt lat="43.5823066" lon="2.3655604"><ele>352.0</ele><time>2026-05-02T08:22:39.531Z</time></trkpt><trkpt lat="43.5823474" lon="2.3654601"><ele>350.20000000000005</ele><time>2026-05-02T08:22:40.531Z</time></trkpt><trkpt lat="43.5823863" lon="2.3653569"><ele>348.4</ele><time>2026-05-02T08:22:41.531Z</time></trkpt><trkpt lat="43.582433" lon="2.3652513"><ele>346.6</ele><time>2026-05-02T08:22:42.531Z</time></trkpt><trkpt lat="43.5824754" lon="2.3651484"><ele>344.79999999999995</ele><time>2026-05-02T08:22:43.531Z</time></trkpt><trkpt lat="43.5825318" lon="2.3650426"><ele>343.0</ele><time>2026-05-02T08:22:44.532Z</time></trkpt><trkpt lat="43.5825938" lon="2.3649366"><ele>343.0</ele><time>2026-05-02T08:22:45.531Z</time></trkpt><trkpt lat="43.5826526" lon="2.3648254"><ele>343.0</ele><time>2026-05-02T08:22:46.531Z</time></trkpt><trkpt lat="43.5827018" lon="2.3647067"><ele>343.0</ele><time>2026-05-02T08:22:47.53Z</time></trkpt><trkpt lat="43.5827382" lon="2.364579"><ele>343.0</ele><time>2026-05-02T08:22:48.531Z</time></trkpt><trkpt lat="43.5827748" lon="2.3644532"><ele>343.0</ele><time>2026-05-02T08:22:49.532Z</time></trkpt><trkpt lat="43.5827953" lon="2.3643165"><ele>343.8333333333333</ele><time>2026-05-02T08:22:50.531Z</time></trkpt><trkpt lat="43.5828168" lon="2.3642016"><ele>344.66666666666663</ele><time>2026-05-02T08:22:51.53Z</time></trkpt><trkpt lat="43.5828373" lon="2.3640837"><ele>345.5</ele><time>2026-05-02T08:22:52.531Z</time></trkpt><trkpt lat="43.582851" lon="2.3639648"><ele>346.3333333333333</ele><time>2026-05-02T08:22:53.531Z</time></trkpt><trkpt lat="43.5828756" lon="2.3638531"><ele>347.1666666666667</ele><time>2026-05-02T08:22:54.531Z</time></trkpt><trkpt lat="43.5828889" lon="2.3637401"><ele>348.0</ele><time>2026-05-02T08:22:55.531Z</time></trkpt><trkpt lat="43.5829072" lon="2.3636431"><ele>348.0</ele><time>2026-05-02T08:22:56.533Z</time></trkpt><trkpt lat="43.5829196" lon="2.3634807"><ele>348.0</ele><time>2026-05-02T08:22:58.531Z</time></trkpt><trkpt lat="43.5829189" lon="2.3633233"><ele>348.0</ele><time>2026-05-02T08:23:00.531Z</time></trkpt><trkpt lat="43.5829673" lon="2.3631912"><ele>348.0</ele><time>2026-05-02T08:23:02.53Z</time></trkpt><trkpt lat="43.5830525" lon="2.3630846"><ele>348.0</ele><time>2026-05-02T08:23:04.532Z</time></trkpt><trkpt lat="43.5831409" lon="2.3629836"><ele>348.0</ele><time>2026-05-02T08:23:06.531Z</time></trkpt><trkpt lat="43.5832257" lon="2.3629814"><ele>348.0</ele><time>2026-05-02T08:23:08.531Z</time></trkpt><trkpt lat="43.5833358" lon="2.3630409"><ele>348.0</ele><time>2026-05-02T08:23:10.531Z</time></trkpt><trkpt lat="43.5834537" lon="2.3631241"><ele>348.0</ele><time>2026-05-02T08:23:12.531Z</time></trkpt><trkpt lat="43.583509" lon="2.3631972"><ele>348.0</ele><time>2026-05-02T08:23:13.531Z</time></trkpt><trkpt lat="43.5835572" lon="2.3632681"><ele>348.0</ele><time>2026-05-02T08:23:14.53Z</time></trkpt><trkpt lat="43.5835931" lon="2.3633446"><ele>348.0</ele><time>2026-05-02T08:23:15.532Z</time></trkpt><trkpt lat="43.583644" lon="2.3634163"><ele>348.0</ele><time>2026-05-02T08:23:16.531Z</time></trkpt><trkpt lat="43.5836894" lon="2.3634869"><ele>348.0</ele><time>2026-05-02T08:23:17.532Z</time></trkpt><trkpt lat="43.5837375" lon="2.3635753"><ele>348.0</ele><time>2026-05-02T08:23:18.531Z</time></trkpt><trkpt lat="43.5837895" lon="2.3636595"><ele>348.4</ele><time>2026-05-02T08:23:19.532Z</time></trkpt><trkpt lat="43.583832" lon="2.3637265"><ele>348.79999999999995</ele><time>2026-05-02T08:23:20.532Z</time></trkpt><trkpt lat="43.5839125" lon="2.3638191"><ele>349.2</ele><time>2026-05-02T08:23:22.531Z</time></trkpt><trkpt lat="43.5839829" lon="2.3638918"><ele>349.6</ele><time>2026-05-02T08:23:24.532Z</time></trkpt><trkpt lat="43.5840876" lon="2.3639222"><ele>350.0</ele><time>2026-05-02T08:23:26.531Z</time></trkpt><trkpt lat="43.584167" lon="2.3638407"><ele>347.2</ele><time>2026-05-02T08:23:28.531Z</time></trkpt><trkpt lat="43.5841989" lon="2.3637286"><ele>344.4</ele><time>2026-05-02T08:23:30.532Z</time></trkpt><trkpt lat="43.5842106" lon="2.3636048"><ele>341.6</ele><time>2026-05-02T08:23:33.531Z</time></trkpt><trkpt lat="43.5842235" lon="2.363489"><ele>338.8</ele><time>2026-05-02T08:23:35.53Z</time></trkpt><trkpt lat="43.5842307" lon="2.3633717"><ele>336.0</ele><time>2026-05-02T08:23:37.531Z</time></trkpt><trkpt lat="43.5842439" lon="2.3632323"><ele>336.0</ele><time>2026-05-02T08:23:39.531Z</time></trkpt><trkpt lat="43.5842635" lon="2.3631086"><ele>336.0</ele><time>2026-05-02T08:23:41.531Z</time></trkpt><trkpt lat="43.5842838" lon="2.3629867"><ele>336.0</ele><time>2026-05-02T08:23:43.531Z</time></trkpt><trkpt lat="43.5842973" lon="2.3628598"><ele>336.0</ele><time>2026-05-02T08:23:45.532Z</time></trkpt><trkpt lat="43.5843089" lon="2.3627035"><ele>336.0</ele><time>2026-05-02T08:23:47.53Z</time></trkpt><trkpt lat="43.5842787" lon="2.3625565"><ele>333.0</ele><time>2026-05-02T08:23:49.531Z</time></trkpt><trkpt lat="43.5842607" lon="2.362414"><ele>330.0</ele><time>2026-05-02T08:23:51.531Z</time></trkpt><trkpt lat="43.584259" lon="2.3622442"><ele>327.0</ele><time>2026-05-02T08:23:53.531Z</time></trkpt><trkpt lat="43.5842657" lon="2.3620896"><ele>324.0</ele><time>2026-05-02T08:23:55.532Z</time></trkpt><trkpt lat="43.5842725" lon="2.3619978"><ele>321.0</ele><time>2026-05-02T08:23:56.532Z</time></trkpt><trkpt lat="43.5842956" lon="2.3618487"><ele>318.2</ele><time>2026-05-02T08:23:58.532Z</time></trkpt><trkpt lat="43.5843152" lon="2.361678"><ele>315.40000000000003</ele><time>2026-05-02T08:24:00.531Z</time></trkpt><trkpt lat="43.5843378" lon="2.3615574"><ele>312.6</ele><time>2026-05-02T08:24:02.531Z</time></trkpt><trkpt lat="43.5843296" lon="2.3614121"><ele>309.8</ele><time>2026-05-02T08:24:04.53Z</time></trkpt><trkpt lat="43.5843479" lon="2.3612654"><ele>307.0</ele><time>2026-05-02T08:24:06.532Z</time></trkpt><trkpt lat="43.5843519" lon="2.3611096"><ele>307.4</ele><time>2026-05-02T08:24:08.531Z</time></trkpt><trkpt lat="43.584383" lon="2.3610196"><ele>307.79999999999995</ele><time>2026-05-02T08:24:09.531Z</time></trkpt><trkpt lat="43.5844471" lon="2.3608977"><ele>308.2</ele><time>2026-05-02T08:24:11.532Z</time></trkpt><trkpt lat="43.5845199" lon="2.3607464"><ele>308.59999999999997</ele><time>2026-05-02T08:24:13.531Z</time></trkpt><trkpt lat="43.5845533" lon="2.3606648"><ele>309.0</ele><time>2026-05-02T08:24:14.531Z</time></trkpt><trkpt lat="43.5845775" lon="2.3605706"><ele>305.5</ele><time>2026-05-02T08:24:15.532Z</time></trkpt><trkpt lat="43.5846202" lon="2.3605016"><ele>302.0</ele><time>2026-05-02T08:24:16.531Z</time></trkpt><trkpt lat="43.5846675" lon="2.3604111"><ele>298.5</ele><time>2026-05-02T08:24:17.531Z</time></trkpt><trkpt lat="43.584702" lon="2.3603335"><ele>295.0</ele><time>2026-05-02T08:24:18.53Z</time></trkpt><trkpt lat="43.5847554" lon="2.3602086"><ele>291.5</ele><time>2026-05-02T08:24:20.532Z</time></trkpt><trkpt lat="43.5848008" lon="2.3601024"><ele>288.0</ele><time>2026-05-02T08:24:22.532Z</time></trkpt><trkpt lat="43.584883" lon="2.3600123"><ele>288.0</ele><time>2026-05-02T08:24:24.532Z</time></trkpt><trkpt lat="43.5849877" lon="2.3599558"><ele>288.0</ele><time>2026-05-02T08:24:26.531Z</time></trkpt><trkpt lat="43.5850982" lon="2.3599986"><ele>288.0</ele><time>2026-05-02T08:24:28.532Z</time></trkpt><trkpt lat="43.5851688" lon="2.3600189"><ele>288.0</ele><time>2026-05-02T08:24:29.532Z</time></trkpt><trkpt lat="43.5852452" lon="2.3600988"><ele>288.0</ele><time>2026-05-02T08:24:30.531Z</time></trkpt><trkpt lat="43.5853096" lon="2.3601514"><ele>287.0</ele><time>2026-05-02T08:24:31.532Z</time></trkpt><trkpt lat="43.5853866" lon="2.3602013"><ele>286.0</ele><time>2026-05-02T08:24:32.531Z</time></trkpt><trkpt lat="43.5854663" lon="2.3602509"><ele>285.0</ele><time>2026-05-02T08:24:33.532Z</time></trkpt><trkpt lat="43.5855399" lon="2.3602838"><ele>284.0</ele><time>2026-05-02T08:24:34.531Z</time></trkpt><trkpt lat="43.5856125" lon="2.3602975"><ele>283.0</ele><time>2026-05-02T08:24:35.532Z</time></trkpt><trkpt lat="43.5856936" lon="2.3602984"><ele>282.0</ele><time>2026-05-02T08:24:36.531Z</time></trkpt><trkpt lat="43.58577" lon="2.3603122"><ele>282.0</ele><time>2026-05-02T08:24:37.531Z</time></trkpt><trkpt lat="43.5858439" lon="2.3603064"><ele>282.0</ele><time>2026-05-02T08:24:38.531Z</time></trkpt><trkpt lat="43.585907" lon="2.3602908"><ele>282.0</ele><time>2026-05-02T08:24:39.531Z</time></trkpt><trkpt lat="43.5859734" lon="2.3602837"><ele>282.0</ele><time>2026-05-02T08:24:40.532Z</time></trkpt><trkpt lat="43.5860424" lon="2.3602547"><ele>282.0</ele><time>2026-05-02T08:24:41.53Z</time></trkpt><trkpt lat="43.5861106" lon="2.3602383"><ele>282.0</ele><time>2026-05-02T08:24:42.532Z</time></trkpt><trkpt lat="43.5862105" lon="2.3602061"><ele>282.0</ele><time>2026-05-02T08:24:43.531Z</time></trkpt><trkpt lat="43.586281" lon="2.360179"><ele>283.3333333333333</ele><time>2026-05-02T08:24:44.531Z</time></trkpt><trkpt lat="43.586376" lon="2.3601583"><ele>284.6666666666667</ele><time>2026-05-02T08:24:45.531Z</time></trkpt><trkpt lat="43.5864637" lon="2.3601381"><ele>286.0</ele><time>2026-05-02T08:24:46.531Z</time></trkpt><trkpt lat="43.5865303" lon="2.3601374"><ele>287.33333333333337</ele><time>2026-05-02T08:24:47.531Z</time></trkpt><trkpt lat="43.5865954" lon="2.3601185"><ele>288.6666666666667</ele><time>2026-05-02T08:24:48.531Z</time></trkpt><trkpt lat="43.5866974" lon="2.3600869"><ele>290.0</ele><time>2026-05-02T08:24:50.53Z</time></trkpt><trkpt lat="43.5867878" lon="2.360037"><ele>290.0</ele><time>2026-05-02T08:24:52.53Z</time></trkpt><trkpt lat="43.5869028" lon="2.3599955"><ele>290.0</ele><time>2026-05-02T08:24:54.531Z</time></trkpt><trkpt lat="43.5870242" lon="2.3599729"><ele>290.0</ele><time>2026-05-02T08:24:56.531Z</time></trkpt><trkpt lat="43.587121" lon="2.3599703"><ele>290.0</ele><time>2026-05-02T08:24:58.531Z</time></trkpt><trkpt lat="43.5872343" lon="2.3599946"><ele>290.8</ele><time>2026-05-02T08:25:00.531Z</time></trkpt><trkpt lat="43.5872849" lon="2.3600682"><ele>291.6</ele><time>2026-05-02T08:25:01.532Z</time></trkpt><trkpt lat="43.5873648" lon="2.3601902"><ele>292.4</ele><time>2026-05-02T08:25:05.532Z</time></trkpt><trkpt lat="43.5874289" lon="2.3602856"><ele>293.2</ele><time>2026-05-02T08:25:07.53Z</time></trkpt><trkpt lat="43.5875068" lon="2.3604079"><ele>294.0</ele><time>2026-05-02T08:25:09.531Z</time></trkpt><trkpt lat="43.5875601" lon="2.3604941"><ele>295.8</ele><time>2026-05-02T08:25:10.531Z</time></trkpt><trkpt lat="43.5876126" lon="2.3605591"><ele>297.59999999999997</ele><time>2026-05-02T08:25:11.532Z</time></trkpt><trkpt lat="43.5876914" lon="2.3606706"><ele>299.4</ele><time>2026-05-02T08:25:13.532Z</time></trkpt><trkpt lat="43.5877503" lon="2.3607838"><ele>301.2</ele><time>2026-05-02T08:25:15.532Z</time></trkpt><trkpt lat="43.5877889" lon="2.3609152"><ele>303.0</ele><time>2026-05-02T08:25:17.53Z</time></trkpt><trkpt lat="43.5878029" lon="2.3610038"><ele>303.0</ele><time>2026-05-02T08:25:19.531Z</time></trkpt><trkpt lat="43.5878099" lon="2.3611047"><ele>303.0</ele><time>2026-05-02T08:25:23.531Z</time></trkpt><trkpt lat="43.5878623" lon="2.3611597"><ele>303.0</ele><time>2026-05-02T08:25:26.531Z</time></trkpt><trkpt lat="43.5879271" lon="2.361159"><ele>303.0</ele><time>2026-05-02T08:25:28.531Z</time></trkpt><trkpt lat="43.5880379" lon="2.3611002"><ele>303.0</ele><time>2026-05-02T08:25:30.531Z</time></trkpt><trkpt lat="43.5881135" lon="2.3610642"><ele>303.0</ele><time>2026-05-02T08:25:32.532Z</time></trkpt><trkpt lat="43.5881968" lon="2.3610425"><ele>302.6666666666667</ele><time>2026-05-02T08:25:34.531Z</time></trkpt><trkpt lat="43.588305" lon="2.3610368"><ele>302.3333333333333</ele><time>2026-05-02T08:25:36.53Z</time></trkpt><trkpt lat="43.58841" lon="2.3609954"><ele>302.0</ele><time>2026-05-02T08:25:38.532Z</time></trkpt><trkpt lat="43.5884892" lon="2.3609854"><ele>301.66666666666663</ele><time>2026-05-02T08:25:39.53Z</time></trkpt><trkpt lat="43.5885541" lon="2.3609729"><ele>301.3333333333333</ele><time>2026-05-02T08:25:40.53Z</time></trkpt><trkpt lat="43.5886292" lon="2.3609835"><ele>301.0</ele><time>2026-05-02T08:25:41.53Z</time></trkpt><trkpt lat="43.5886973" lon="2.3609674"><ele>301.0</ele><time>2026-05-02T08:25:42.531Z</time></trkpt><trkpt lat="43.5887717" lon="2.3609639"><ele>301.0</ele><time>2026-05-02T08:25:43.53Z</time></trkpt><trkpt lat="43.588872" lon="2.3609628"><ele>301.0</ele><time>2026-05-02T08:25:45.53Z</time></trkpt><trkpt lat="43.5889505" lon="2.3609892"><ele>301.0</ele><time>2026-05-02T08:25:47.529Z</time></trkpt><trkpt lat="43.5890692" lon="2.3610482"><ele>301.0</ele><time>2026-05-02T08:25:49.53Z</time></trkpt><trkpt lat="43.5891587" lon="2.3611511"><ele>301.0</ele><time>2026-05-02T08:25:51.53Z</time></trkpt><trkpt lat="43.5892016" lon="2.3612154"><ele>301.0</ele><time>2026-05-02T08:25:52.529Z</time></trkpt><trkpt lat="43.5892149" lon="2.3613561"><ele>301.0</ele><time>2026-05-02T08:25:54.531Z</time></trkpt><trkpt lat="43.5892009" lon="2.3614984"><ele>301.0</ele><time>2026-05-02T08:25:56.531Z</time></trkpt><trkpt lat="43.5891806" lon="2.3616386"><ele>301.0</ele><time>2026-05-02T08:25:58.532Z</time></trkpt><trkpt lat="43.589198" lon="2.3617527"><ele>302.5</ele><time>2026-05-02T08:26:00.532Z</time></trkpt><trkpt lat="43.5892059" lon="2.3619157"><ele>304.0</ele><time>2026-05-02T08:26:02.531Z</time></trkpt><trkpt lat="43.5892517" lon="2.3620353"><ele>305.5</ele><time>2026-05-02T08:26:04.53Z</time></trkpt><trkpt lat="43.5892882" lon="2.3621866"><ele>307.0</ele><time>2026-05-02T08:26:06.531Z</time></trkpt><trkpt lat="43.5893449" lon="2.3623292"><ele>307.8</ele><time>2026-05-02T08:26:08.531Z</time></trkpt><trkpt lat="43.5893968" lon="2.3624668"><ele>308.6</ele><time>2026-05-02T08:26:10.53Z</time></trkpt><trkpt lat="43.589459" lon="2.3625991"><ele>309.40000000000003</ele><time>2026-05-02T08:26:12.53Z</time></trkpt><trkpt lat="43.5895286" lon="2.3626259"><ele>310.2</ele><time>2026-05-02T08:26:13.531Z</time></trkpt><trkpt lat="43.5896251" lon="2.3626938"><ele>311.0</ele><time>2026-05-02T08:26:15.53Z</time></trkpt><trkpt lat="43.5896769" lon="2.362744"><ele>311.0</ele><time>2026-05-02T08:26:17.53Z</time></trkpt><trkpt lat="43.5897436" lon="2.3627989"><ele>311.0</ele><time>2026-05-02T08:26:20.53Z</time></trkpt><trkpt lat="43.5898086" lon="2.3628395"><ele>311.0</ele><time>2026-05-02T08:26:22.53Z</time></trkpt><trkpt lat="43.589915" lon="2.3629041"><ele>311.0</ele><time>2026-05-02T08:26:24.531Z</time></trkpt><trkpt lat="43.5900207" lon="2.36299"><ele>311.0</ele><time>2026-05-02T08:26:26.529Z</time></trkpt><trkpt lat="43.5901018" lon="2.3630391"><ele>311.85714285714283</ele><time>2026-05-02T08:26:28.53Z</time></trkpt><trkpt lat="43.590164" lon="2.3630813"><ele>312.7142857142857</ele><time>2026-05-02T08:26:31.531Z</time></trkpt><trkpt lat="43.5902412" lon="2.3631021"><ele>313.57142857142856</ele><time>2026-05-02T08:26:34.53Z</time></trkpt><trkpt lat="43.5902998" lon="2.3631576"><ele>314.42857142857144</ele><time>2026-05-02T08:26:36.53Z</time></trkpt><trkpt lat="43.5903587" lon="2.3632232"><ele>315.2857142857143</ele><time>2026-05-02T08:26:38.53Z</time></trkpt><trkpt lat="43.5904149" lon="2.3632753"><ele>316.14285714285717</ele><time>2026-05-02T08:26:41.529Z</time></trkpt><trkpt lat="43.5904702" lon="2.3633461"><ele>317.0</ele><time>2026-05-02T08:26:44.531Z</time></trkpt><trkpt lat="43.5905294" lon="2.3634376"><ele>317.0</ele><time>2026-05-02T08:26:46.529Z</time></trkpt><trkpt lat="43.5906015" lon="2.3635666"><ele>317.0</ele><time>2026-05-02T08:26:48.53Z</time></trkpt><trkpt lat="43.5906387" lon="2.3636406"><ele>317.0</ele><time>2026-05-02T08:26:49.531Z</time></trkpt><trkpt lat="43.5906804" lon="2.3637159"><ele>317.0</ele><time>2026-05-02T08:26:50.53Z</time></trkpt><trkpt lat="43.5907187" lon="2.3637958"><ele>317.0</ele><time>2026-05-02T08:26:51.531Z</time></trkpt><trkpt lat="43.590748" lon="2.3638764"><ele>317.0</ele><time>2026-05-02T08:26:52.531Z</time></trkpt><trkpt lat="43.5907876" lon="2.3639589"><ele>317.5</ele><time>2026-05-02T08:26:53.53Z</time></trkpt><trkpt lat="43.5908184" lon="2.3640573"><ele>318.0</ele><time>2026-05-02T08:26:54.531Z</time></trkpt><trkpt lat="43.5908591" lon="2.3641451"><ele>318.5</ele><time>2026-05-02T08:26:55.532Z</time></trkpt><trkpt lat="43.5908862" lon="2.36424"><ele>319.0</ele><time>2026-05-02T08:26:56.53Z</time></trkpt><trkpt lat="43.590931" lon="2.3643497"><ele>319.5</ele><time>2026-05-02T08:26:57.53Z</time></trkpt><trkpt lat="43.5909704" lon="2.364441"><ele>320.0</ele><time>2026-05-02T08:26:58.531Z</time></trkpt><trkpt lat="43.5909961" lon="2.3645345"><ele>320.0</ele><time>2026-05-02T08:26:59.53Z</time></trkpt><trkpt lat="43.5910219" lon="2.3646222"><ele>320.0</ele><time>2026-05-02T08:27:00.532Z</time></trkpt><trkpt lat="43.5910462" lon="2.3647123"><ele>320.0</ele><time>2026-05-02T08:27:01.532Z</time></trkpt><trkpt lat="43.5910727" lon="2.3647921"><ele>320.0</ele><time>2026-05-02T08:27:02.53Z</time></trkpt><trkpt lat="43.5911049" lon="2.3648908"><ele>320.0</ele><time>2026-05-02T08:27:03.531Z</time></trkpt><trkpt lat="43.5911406" lon="2.3649702"><ele>320.0</ele><time>2026-05-02T08:27:04.531Z</time></trkpt><trkpt lat="43.5911659" lon="2.3650506"><ele>320.0</ele><time>2026-05-02T08:27:05.532Z</time></trkpt><trkpt lat="43.591203" lon="2.3651603"><ele>319.4</ele><time>2026-05-02T08:27:07.531Z</time></trkpt><trkpt lat="43.5912548" lon="2.3652998"><ele>318.8</ele><time>2026-05-02T08:27:09.531Z</time></trkpt><trkpt lat="43.5913148" lon="2.3654717"><ele>318.2</ele><time>2026-05-02T08:27:11.532Z</time></trkpt><trkpt lat="43.5913438" lon="2.3655613"><ele>317.6</ele><time>2026-05-02T08:27:12.53Z</time></trkpt><trkpt lat="43.5913939" lon="2.3656934"><ele>317.0</ele><time>2026-05-02T08:27:14.531Z</time></trkpt><trkpt lat="43.5914285" lon="2.3657997"><ele>318.8</ele><time>2026-05-02T08:27:33.531Z</time></trkpt><trkpt lat="43.5915286" lon="2.3658743"><ele>320.6</ele><time>2026-05-02T08:27:36.53Z</time></trkpt><trkpt lat="43.5916319" lon="2.3658349"><ele>322.40000000000003</ele><time>2026-05-02T08:27:38.531Z</time></trkpt><trkpt lat="43.591713" lon="2.3658635"><ele>324.2</ele><time>2026-05-02T08:27:40.53Z</time></trkpt><trkpt lat="43.5917942" lon="2.3659475"><ele>326.0</ele><time>2026-05-02T08:27:42.532Z</time></trkpt><trkpt lat="43.591873" lon="2.3660437"><ele>326.0</ele><time>2026-05-02T08:27:44.531Z</time></trkpt><trkpt lat="43.5919327" lon="2.3660785"><ele>326.0</ele><time>2026-05-02T08:27:45.53Z</time></trkpt><trkpt lat="43.5920626" lon="2.3660889"><ele>326.0</ele><time>2026-05-02T08:27:47.53Z</time></trkpt><trkpt lat="43.5921597" lon="2.3661263"><ele>326.0</ele><time>2026-05-02T08:27:49.53Z</time></trkpt><trkpt lat="43.5922747" lon="2.3661844"><ele>326.0</ele><time>2026-05-02T08:27:51.53Z</time></trkpt><trkpt lat="43.5923625" lon="2.366246"><ele>326.0</ele><time>2026-05-02T08:27:53.529Z</time></trkpt><trkpt lat="43.5924167" lon="2.3663302"><ele>326.0</ele><time>2026-05-02T08:27:55.53Z</time></trkpt><trkpt lat="43.5924553" lon="2.3664281"><ele>326.0</ele><time>2026-05-02T08:27:57.529Z</time></trkpt><trkpt lat="43.5925227" lon="2.3664953"><ele>326.0</ele><time>2026-05-02T08:27:59.531Z</time></trkpt><trkpt lat="43.5924728" lon="2.3665569"><ele>326.0</ele><time>2026-05-02T08:28:02.531Z</time></trkpt><trkpt lat="43.592383" lon="2.3664992"><ele>326.0</ele><time>2026-05-02T08:28:04.529Z</time></trkpt><trkpt lat="43.5922663" lon="2.3665056"><ele>328.5</ele><time>2026-05-02T08:28:06.531Z</time></trkpt><trkpt lat="43.5921955" lon="2.3665313"><ele>331.0</ele><time>2026-05-02T08:28:08.53Z</time></trkpt><trkpt lat="43.5921439" lon="2.3665855"><ele>333.5</ele><time>2026-05-02T08:28:10.53Z</time></trkpt><trkpt lat="43.592098" lon="2.366646"><ele>336.0</ele><time>2026-05-02T08:28:12.531Z</time></trkpt><trkpt lat="43.5920149" lon="2.3667162"><ele>338.5</ele><time>2026-05-02T08:28:14.532Z</time></trkpt><trkpt lat="43.5919336" lon="2.3667673"><ele>341.0</ele><time>2026-05-02T08:28:16.531Z</time></trkpt><trkpt lat="43.5918678" lon="2.3668315"><ele>341.5</ele><time>2026-05-02T08:28:18.53Z</time></trkpt><trkpt lat="43.5918453" lon="2.3669575"><ele>342.0</ele><time>2026-05-02T08:28:20.531Z</time></trkpt><trkpt lat="43.5918307" lon="2.3670618"><ele>342.5</ele><time>2026-05-02T08:28:23.529Z</time></trkpt><trkpt lat="43.5918199" lon="2.3671515"><ele>343.0</ele><time>2026-05-02T08:28:25.531Z</time></trkpt><trkpt lat="43.5918086" lon="2.3672493"><ele>343.5</ele><time>2026-05-02T08:28:27.53Z</time></trkpt><trkpt lat="43.591798" lon="2.3674043"><ele>344.0</ele><time>2026-05-02T08:28:29.53Z</time></trkpt><trkpt lat="43.5917792" lon="2.3675408"><ele>347.4</ele><time>2026-05-02T08:28:31.529Z</time></trkpt><trkpt lat="43.5917882" lon="2.3677015"><ele>350.79999999999995</ele><time>2026-05-02T08:28:33.529Z</time></trkpt><trkpt lat="43.5917729" lon="2.3678379"><ele>354.20000000000005</ele><time>2026-05-02T08:28:35.53Z</time></trkpt><trkpt lat="43.591759" lon="2.3679235"><ele>357.6</ele><time>2026-05-02T08:28:38.531Z</time></trkpt><trkpt lat="43.5917394" lon="2.3680664"><ele>361.0</ele><time>2026-05-02T08:28:41.53Z</time></trkpt><trkpt lat="43.591707" lon="2.3681833"><ele>363.3333333333333</ele><time>2026-05-02T08:28:43.53Z</time></trkpt><trkpt lat="43.5916787" lon="2.3683065"><ele>365.66666666666663</ele><time>2026-05-02T08:28:45.531Z</time></trkpt><trkpt lat="43.5916872" lon="2.3684088"><ele>368.0</ele><time>2026-05-02T08:28:48.53Z</time></trkpt><trkpt lat="43.5917519" lon="2.3684336"><ele>370.3333333333333</ele><time>2026-05-02T08:28:51.53Z</time></trkpt><trkpt lat="43.5917905" lon="2.3683319"><ele>372.6666666666667</ele><time>2026-05-02T08:28:53.53Z</time></trkpt><trkpt lat="43.5918377" lon="2.3682241"><ele>375.0</ele><time>2026-05-02T08:28:55.531Z</time></trkpt><trkpt lat="43.5919014" lon="2.3681468"><ele>375.0</ele><time>2026-05-02T08:28:58.529Z</time></trkpt><trkpt lat="43.5919412" lon="2.3682356"><ele>375.0</ele><time>2026-05-02T08:29:01.53Z</time></trkpt><trkpt lat="43.5919498" lon="2.3683446"><ele>375.0</ele><time>2026-05-02T08:29:04.53Z</time></trkpt><trkpt lat="43.5919848" lon="2.3684441"><ele>375.0</ele><time>2026-05-02T08:29:07.53Z</time></trkpt><trkpt lat="43.5920195" lon="2.3685309"><ele>375.0</ele><time>2026-05-02T08:29:10.531Z</time></trkpt><trkpt lat="43.5920618" lon="2.368608"><ele>375.0</ele><time>2026-05-02T08:29:13.53Z</time></trkpt><trkpt lat="43.5921082" lon="2.3686792"><ele>375.0</ele><time>2026-05-02T08:29:15.529Z</time></trkpt><trkpt lat="43.5921647" lon="2.368762"><ele>377.6666666666667</ele><time>2026-05-02T08:29:17.531Z</time></trkpt><trkpt lat="43.5922054" lon="2.3688359"><ele>380.33333333333337</ele><time>2026-05-02T08:29:19.53Z</time></trkpt><trkpt lat="43.5922472" lon="2.3689617"><ele>383.0</ele><time>2026-05-02T08:29:22.531Z</time></trkpt><trkpt lat="43.5922886" lon="2.369065"><ele>385.6666666666667</ele><time>2026-05-02T08:29:24.53Z</time></trkpt><trkpt lat="43.5923335" lon="2.3691651"><ele>388.33333333333337</ele><time>2026-05-02T08:29:27.531Z</time></trkpt><trkpt lat="43.5923573" lon="2.3690345"><ele>391.0</ele><time>2026-05-02T08:29:31.53Z</time></trkpt><trkpt lat="43.5923087" lon="2.3689444"><ele>390.99999999999994</ele><time>2026-05-02T08:29:32.529Z</time></trkpt><trkpt lat="43.5922826" lon="2.3688652"><ele>391.0</ele><time>2026-05-02T08:29:33.529Z</time></trkpt><trkpt lat="43.5922726" lon="2.3687739"><ele>391.0</ele><time>2026-05-02T08:29:34.531Z</time></trkpt><trkpt lat="43.592279" lon="2.3686584"><ele>391.0</ele><time>2026-05-02T08:29:36.529Z</time></trkpt><trkpt lat="43.5922776" lon="2.3685681"><ele>391.0</ele><time>2026-05-02T08:29:38.53Z</time></trkpt><trkpt lat="43.5923036" lon="2.3684815"><ele>390.99999999999994</ele><time>2026-05-02T08:29:40.53Z</time></trkpt><trkpt lat="43.5923436" lon="2.36838"><ele>391.0</ele><time>2026-05-02T08:29:43.529Z</time></trkpt><trkpt lat="43.5924013" lon="2.368429"><ele>390.99999999999994</ele><time>2026-05-02T08:29:45.53Z</time></trkpt><trkpt lat="43.5923925" lon="2.3685279"><ele>391.0</ele><time>2026-05-02T08:29:47.529Z</time></trkpt><trkpt lat="43.5923826" lon="2.3686288"><ele>391.0</ele><time>2026-05-02T08:29:49.531Z</time></trkpt><trkpt lat="43.5924215" lon="2.3687033"><ele>391.0</ele><time>2026-05-02T08:29:51.528Z</time></trkpt><trkpt lat="43.592465" lon="2.3687748"><ele>391.0</ele><time>2026-05-02T08:29:53.53Z</time></trkpt><trkpt lat="43.5925223" lon="2.3688233"><ele>390.99999999999994</ele><time>2026-05-02T08:30:39.529Z</time></trkpt><trkpt lat="43.5925988" lon="2.3688492"><ele>391.0</ele><time>2026-05-02T08:30:43.529Z</time></trkpt><trkpt lat="43.592667" lon="2.3688496"><ele>391.00000000000006</ele><time>2026-05-02T08:30:46.53Z</time></trkpt><trkpt lat="43.5927187" lon="2.3687698"><ele>391.0</ele><time>2026-05-02T08:30:48.529Z</time></trkpt><trkpt lat="43.5927798" lon="2.3686899"><ele>391.0</ele><time>2026-05-02T08:30:50.529Z</time></trkpt><trkpt lat="43.5928429" lon="2.3686529"><ele>391.0</ele><time>2026-05-02T08:30:52.53Z</time></trkpt><trkpt lat="43.5929169" lon="2.3686359"><ele>391.00000000000006</ele><time>2026-05-02T08:30:53.529Z</time></trkpt><trkpt lat="43.5930153" lon="2.3686339"><ele>391.0</ele><time>2026-05-02T08:30:55.53Z</time></trkpt><trkpt lat="43.5931093" lon="2.3686644"><ele>391.50000000000006</ele><time>2026-05-02T08:30:57.53Z</time></trkpt><trkpt lat="43.5931905" lon="2.3687263"><ele>392.0</ele><time>2026-05-02T08:30:59.529Z</time></trkpt><trkpt lat="43.5932469" lon="2.3687954"><ele>392.5</ele><time>2026-05-02T08:31:01.529Z</time></trkpt><trkpt lat="43.5932832" lon="2.3688763"><ele>393.0</ele><time>2026-05-02T08:31:03.53Z</time></trkpt><trkpt lat="43.5932885" lon="2.3689857"><ele>393.50000000000006</ele><time>2026-05-02T08:31:05.53Z</time></trkpt><trkpt lat="43.5932967" lon="2.369093"><ele>394.0</ele><time>2026-05-02T08:31:07.529Z</time></trkpt><trkpt lat="43.5932901" lon="2.3692398"><ele>396.1666666666667</ele><time>2026-05-02T08:31:09.529Z</time></trkpt><trkpt lat="43.5932658" lon="2.3693732"><ele>398.33333333333337</ele><time>2026-05-02T08:31:11.53Z</time></trkpt><trkpt lat="43.5932485" lon="2.3694748"><ele>400.5</ele><time>2026-05-02T08:31:13.53Z</time></trkpt><trkpt lat="43.5932286" lon="2.3696041"><ele>402.66666666666663</ele><time>2026-05-02T08:31:15.529Z</time></trkpt><trkpt lat="43.5932121" lon="2.3697162"><ele>404.8333333333333</ele><time>2026-05-02T08:31:17.53Z</time></trkpt><trkpt lat="43.593205" lon="2.3698206"><ele>407.0</ele><time>2026-05-02T08:31:19.531Z</time></trkpt><trkpt lat="43.5931945" lon="2.3699226"><ele>407.3333333333333</ele><time>2026-05-02T08:31:21.528Z</time></trkpt><trkpt lat="43.5931845" lon="2.3700323"><ele>407.66666666666663</ele><time>2026-05-02T08:31:23.529Z</time></trkpt><trkpt lat="43.593184" lon="2.3701428"><ele>408.0</ele><time>2026-05-02T08:31:25.53Z</time></trkpt><trkpt lat="43.5931744" lon="2.3702439"><ele>408.33333333333337</ele><time>2026-05-02T08:31:27.53Z</time></trkpt><trkpt lat="43.5931456" lon="2.3703452"><ele>408.6666666666667</ele><time>2026-05-02T08:31:29.529Z</time></trkpt><trkpt lat="43.5931362" lon="2.3704611"><ele>409.0</ele><time>2026-05-02T08:31:31.529Z</time></trkpt><trkpt lat="43.5931439" lon="2.3705749"><ele>410.6666666666667</ele><time>2026-05-02T08:31:34.529Z</time></trkpt><trkpt lat="43.5931248" lon="2.3706891"><ele>412.33333333333337</ele><time>2026-05-02T08:31:37.53Z</time></trkpt><trkpt lat="43.5930678" lon="2.3707932"><ele>414.0</ele><time>2026-05-02T08:31:39.53Z</time></trkpt><trkpt lat="43.5930322" lon="2.3709245"><ele>415.66666666666663</ele><time>2026-05-02T08:31:41.53Z</time></trkpt><trkpt lat="43.5930245" lon="2.3710332"><ele>417.3333333333333</ele><time>2026-05-02T08:31:43.53Z</time></trkpt><trkpt lat="43.5930101" lon="2.3711318"><ele>419.0</ele><time>2026-05-02T08:31:45.529Z</time></trkpt><trkpt lat="43.5930073" lon="2.3712328"><ele>418.99999999999994</ele><time>2026-05-02T08:31:47.529Z</time></trkpt><trkpt lat="43.5929941" lon="2.3713362"><ele>419.0</ele><time>2026-05-02T08:31:49.529Z</time></trkpt><trkpt lat="43.592984" lon="2.3714381"><ele>419.0</ele><time>2026-05-02T08:31:51.53Z</time></trkpt><trkpt lat="43.5929975" lon="2.3715396"><ele>419.0</ele><time>2026-05-02T08:31:53.529Z</time></trkpt><trkpt lat="43.5930257" lon="2.3716342"><ele>418.99999999999994</ele><time>2026-05-02T08:31:55.404Z</time></trkpt><trkpt lat="43.5930469" lon="2.3717519"><ele>419.0</ele><time>2026-05-02T08:31:57.505Z</time></trkpt><trkpt lat="43.5930414" lon="2.3718426"><ele>420.2</ele><time>2026-05-02T08:31:58.529Z</time></trkpt><trkpt lat="43.5930243" lon="2.3719774"><ele>421.4</ele><time>2026-05-02T08:32:00.529Z</time></trkpt><trkpt lat="43.5929996" lon="2.3720891"><ele>422.6</ele><time>2026-05-02T08:32:02.53Z</time></trkpt><trkpt lat="43.5929567" lon="2.3722037"><ele>423.8</ele><time>2026-05-02T08:32:04.531Z</time></trkpt><trkpt lat="43.592909" lon="2.3723297"><ele>425.0</ele><time>2026-05-02T08:32:06.53Z</time></trkpt><trkpt lat="43.5928866" lon="2.3724262"><ele>426.49999999999994</ele><time>2026-05-02T08:32:08.529Z</time></trkpt><trkpt lat="43.5928624" lon="2.3725135"><ele>428.0</ele><time>2026-05-02T08:32:10.53Z</time></trkpt><trkpt lat="43.5928362" lon="2.3725953"><ele>429.5</ele><time>2026-05-02T08:32:12.529Z</time></trkpt><trkpt lat="43.5927939" lon="2.3727001"><ele>431.0</ele><time>2026-05-02T08:32:15.529Z</time></trkpt><trkpt lat="43.5927502" lon="2.3728227"><ele>432.49999999999994</ele><time>2026-05-02T08:32:20.53Z</time></trkpt><trkpt lat="43.5927357" lon="2.372956"><ele>434.0</ele><time>2026-05-02T08:32:21.53Z</time></trkpt><trkpt lat="43.5927106" lon="2.3731104"><ele>438.5</ele><time>2026-05-02T08:32:22.53Z</time></trkpt><trkpt lat="43.5926784" lon="2.3732762"><ele>443.0</ele><time>2026-05-02T08:32:23.53Z</time></trkpt><trkpt lat="43.5926379" lon="2.3734465"><ele>447.5</ele><time>2026-05-02T08:32:24.531Z</time></trkpt><trkpt lat="43.5925961" lon="2.3736132"><ele>452.0</ele><time>2026-05-02T08:32:25.53Z</time></trkpt><trkpt lat="43.5925575" lon="2.3737704"><ele>452.8</ele><time>2026-05-02T08:32:26.529Z</time></trkpt><trkpt lat="43.592523" lon="2.3739111"><ele>453.6</ele><time>2026-05-02T08:32:27.529Z</time></trkpt><trkpt lat="43.5924941" lon="2.3740409"><ele>454.40000000000003</ele><time>2026-05-02T08:32:28.53Z</time></trkpt><trkpt lat="43.5924687" lon="2.3741631"><ele>455.20000000000005</ele><time>2026-05-02T08:32:29.53Z</time></trkpt><trkpt lat="43.592458" lon="2.3742833"><ele>456.0</ele><time>2026-05-02T08:32:30.53Z</time></trkpt><trkpt lat="43.5924663" lon="2.3743852"><ele>456.0</ele><time>2026-05-02T08:32:31.529Z</time></trkpt><trkpt lat="43.5924925" lon="2.3745351"><ele>456.0</ele><time>2026-05-02T08:32:33.53Z</time></trkpt><trkpt lat="43.5925561" lon="2.3746026"><ele>456.0</ele><time>2026-05-02T08:33:15.528Z</time></trkpt><trkpt lat="43.5926634" lon="2.3746843"><ele>456.0</ele><time>2026-05-02T08:33:18.529Z</time></trkpt><trkpt lat="43.5927639" lon="2.374735"><ele>456.0</ele><time>2026-05-02T08:33:20.529Z</time></trkpt><trkpt lat="43.5928771" lon="2.3747766"><ele>456.4</ele><time>2026-05-02T08:33:22.529Z</time></trkpt><trkpt lat="43.5929822" lon="2.3747937"><ele>456.8</ele><time>2026-05-02T08:33:24.529Z</time></trkpt><trkpt lat="43.5930997" lon="2.3748018"><ele>457.19999999999993</ele><time>2026-05-02T08:33:26.529Z</time></trkpt><trkpt lat="43.5932126" lon="2.3747897"><ele>457.59999999999997</ele><time>2026-05-02T08:33:28.528Z</time></trkpt><trkpt lat="43.5933053" lon="2.3747648"><ele>458.0</ele><time>2026-05-02T08:33:30.53Z</time></trkpt><trkpt lat="43.5934189" lon="2.374739"><ele>457.99999999999994</ele><time>2026-05-02T08:33:32.53Z</time></trkpt><trkpt lat="43.5935096" lon="2.3747043"><ele>458.0</ele><time>2026-05-02T08:33:34.529Z</time></trkpt><trkpt lat="43.5935709" lon="2.3746814"><ele>458.0</ele><time>2026-05-02T08:33:36.529Z</time></trkpt><trkpt lat="43.5936293" lon="2.3746319"><ele>458.0</ele><time>2026-05-02T08:33:38.529Z</time></trkpt><trkpt lat="43.5936762" lon="2.3745664"><ele>457.99999999999994</ele><time>2026-05-02T08:33:39.529Z</time></trkpt><trkpt lat="43.5937398" lon="2.374467"><ele>458.0</ele><time>2026-05-02T08:33:40.53Z</time></trkpt><trkpt lat="43.5938041" lon="2.3743495"><ele>457.0</ele><time>2026-05-02T08:33:41.529Z</time></trkpt><trkpt lat="43.5938689" lon="2.3742274"><ele>455.99999999999994</ele><time>2026-05-02T08:33:42.53Z</time></trkpt><trkpt lat="43.5939374" lon="2.3741076"><ele>454.99999999999994</ele><time>2026-05-02T08:33:43.53Z</time></trkpt><trkpt lat="43.5940157" lon="2.3740091"><ele>454.0</ele><time>2026-05-02T08:33:44.529Z</time></trkpt><trkpt lat="43.5940874" lon="2.3739079"><ele>453.0</ele><time>2026-05-02T08:33:45.53Z</time></trkpt><trkpt lat="43.594164" lon="2.3738211"><ele>453.0</ele><time>2026-05-02T08:33:46.528Z</time></trkpt><trkpt lat="43.5942437" lon="2.3737332"><ele>452.99999999999994</ele><time>2026-05-02T08:33:47.529Z</time></trkpt><trkpt lat="43.5943237" lon="2.3736572"><ele>452.99999999999994</ele><time>2026-05-02T08:33:48.529Z</time></trkpt><trkpt lat="43.5943995" lon="2.3735865"><ele>453.0</ele><time>2026-05-02T08:33:49.529Z</time></trkpt><trkpt lat="43.5944836" lon="2.3735277"><ele>453.0</ele><time>2026-05-02T08:33:50.529Z</time></trkpt><trkpt lat="43.5945736" lon="2.3734683"><ele>455.2</ele><time>2026-05-02T08:33:51.529Z</time></trkpt><trkpt lat="43.5946631" lon="2.3734081"><ele>457.4</ele><time>2026-05-02T08:33:52.53Z</time></trkpt><trkpt lat="43.594764" lon="2.3733704"><ele>459.59999999999997</ele><time>2026-05-02T08:33:53.529Z</time></trkpt><trkpt lat="43.5948659" lon="2.373368"><ele>461.79999999999995</ele><time>2026-05-02T08:33:54.529Z</time></trkpt><trkpt lat="43.5949712" lon="2.3733904"><ele>464.0</ele><time>2026-05-02T08:33:55.53Z</time></trkpt><trkpt lat="43.5950804" lon="2.3734214"><ele>464.0</ele><time>2026-05-02T08:33:56.529Z</time></trkpt><trkpt lat="43.59519" lon="2.3734358"><ele>464.0</ele><time>2026-05-02T08:33:57.528Z</time></trkpt><trkpt lat="43.5953059" lon="2.3734362"><ele>464.0</ele><time>2026-05-02T08:33:58.529Z</time></trkpt><trkpt lat="43.5954226" lon="2.3734133"><ele>464.0</ele><time>2026-05-02T08:33:59.529Z</time></trkpt><trkpt lat="43.5955375" lon="2.3733829"><ele>464.75</ele><time>2026-05-02T08:34:00.53Z</time></trkpt><trkpt lat="43.5956598" lon="2.373358"><ele>465.5</ele><time>2026-05-02T08:34:01.529Z</time></trkpt><trkpt lat="43.5957769" lon="2.3733295"><ele>466.25</ele><time>2026-05-02T08:34:02.53Z</time></trkpt><trkpt lat="43.5959013" lon="2.3733032"><ele>467.0</ele><time>2026-05-02T08:34:03.528Z</time></trkpt><trkpt lat="43.596025" lon="2.3732782"><ele>467.0</ele><time>2026-05-02T08:34:04.529Z</time></trkpt><trkpt lat="43.59615" lon="2.3732521"><ele>467.0</ele><time>2026-05-02T08:34:05.529Z</time></trkpt><trkpt lat="43.5962793" lon="2.3732354"><ele>467.0</ele><time>2026-05-02T08:34:06.528Z</time></trkpt><trkpt lat="43.5964051" lon="2.373209"><ele>467.0</ele><time>2026-05-02T08:34:07.53Z</time></trkpt><trkpt lat="43.5965308" lon="2.3731827"><ele>467.0</ele><time>2026-05-02T08:34:08.53Z</time></trkpt><trkpt lat="43.5966493" lon="2.3731602"><ele>467.0</ele><time>2026-05-02T08:34:09.529Z</time></trkpt><trkpt lat="43.5967781" lon="2.3731413"><ele>467.0</ele><time>2026-05-02T08:34:10.529Z</time></trkpt><trkpt lat="43.5969009" lon="2.373136"><ele>467.0</ele><time>2026-05-02T08:34:11.529Z</time></trkpt><trkpt lat="43.5970306" lon="2.3731348"><ele>468.25</ele><time>2026-05-02T08:34:12.528Z</time></trkpt><trkpt lat="43.5971551" lon="2.3731292"><ele>469.5</ele><time>2026-05-02T08:34:13.528Z</time></trkpt><trkpt lat="43.5972784" lon="2.3731283"><ele>470.75</ele><time>2026-05-02T08:34:14.527Z</time></trkpt><trkpt lat="43.5973958" lon="2.3731169"><ele>472.0</ele><time>2026-05-02T08:34:15.529Z</time></trkpt><trkpt lat="43.5975083" lon="2.3731182"><ele>472.00000000000006</ele><time>2026-05-02T08:34:16.529Z</time></trkpt><trkpt lat="43.5976135" lon="2.3731166"><ele>472.0</ele><time>2026-05-02T08:34:17.529Z</time></trkpt><trkpt lat="43.5977043" lon="2.3731136"><ele>472.0</ele><time>2026-05-02T08:34:18.529Z</time></trkpt><trkpt lat="43.5977935" lon="2.373117"><ele>472.0</ele><time>2026-05-02T08:34:19.529Z</time></trkpt><trkpt lat="43.597874" lon="2.3731125"><ele>472.00000000000006</ele><time>2026-05-02T08:34:20.529Z</time></trkpt><trkpt lat="43.5979404" lon="2.3730998"><ele>472.0</ele><time>2026-05-02T08:34:21.529Z</time></trkpt><trkpt lat="43.5980043" lon="2.3730749"><ele>473.50000000000006</ele><time>2026-05-02T08:34:22.528Z</time></trkpt><trkpt lat="43.5981011" lon="2.3729976"><ele>475.0</ele><time>2026-05-02T08:34:24.53Z</time></trkpt><trkpt lat="43.5981763" lon="2.3729883"><ele>476.5</ele><time>2026-05-02T08:34:35.53Z</time></trkpt><trkpt lat="43.5982403" lon="2.3730442"><ele>478.0</ele><time>2026-05-02T08:34:39.529Z</time></trkpt><trkpt lat="43.5982845" lon="2.3731257"><ele>479.50000000000006</ele><time>2026-05-02T08:34:43.53Z</time></trkpt><trkpt lat="43.5983337" lon="2.3732322"><ele>481.0</ele><time>2026-05-02T08:34:47.529Z</time></trkpt><trkpt lat="43.598378" lon="2.3732961"><ele>481.5714285714285</ele><time>2026-05-02T08:34:49.529Z</time></trkpt><trkpt lat="43.5984366" lon="2.3733595"><ele>482.1428571428571</ele><time>2026-05-02T08:34:51.529Z</time></trkpt><trkpt lat="43.5984675" lon="2.3734366"><ele>482.7142857142857</ele><time>2026-05-02T08:34:53.529Z</time></trkpt><trkpt lat="43.5985336" lon="2.3734929"><ele>483.2857142857143</ele><time>2026-05-02T08:34:55.529Z</time></trkpt><trkpt lat="43.5985901" lon="2.3735507"><ele>483.8571428571429</ele><time>2026-05-02T08:34:57.529Z</time></trkpt><trkpt lat="43.5986502" lon="2.3736201"><ele>484.4285714285715</ele><time>2026-05-02T08:35:00.529Z</time></trkpt><trkpt lat="43.5986978" lon="2.3736914"><ele>485.00000000000006</ele><time>2026-05-02T08:35:19.528Z</time></trkpt><trkpt lat="43.5987397" lon="2.3737692"><ele>486.16666666666663</ele><time>2026-05-02T08:35:25.529Z</time></trkpt><trkpt lat="43.5987955" lon="2.3738356"><ele>487.3333333333333</ele><time>2026-05-02T08:35:28.528Z</time></trkpt><trkpt lat="43.5988543" lon="2.3739101"><ele>488.5</ele><time>2026-05-02T08:35:31.528Z</time></trkpt><trkpt lat="43.5988961" lon="2.3739961"><ele>489.66666666666663</ele><time>2026-05-02T08:35:34.529Z</time></trkpt><trkpt lat="43.5989546" lon="2.3740591"><ele>490.8333333333333</ele><time>2026-05-02T08:35:40.528Z</time></trkpt><trkpt lat="43.5990081" lon="2.37412"><ele>492.0</ele><time>2026-05-02T08:35:43.528Z</time></trkpt><trkpt lat="43.599063" lon="2.3742195"><ele>494.0</ele><time>2026-05-02T08:35:46.528Z</time></trkpt><trkpt lat="43.5991177" lon="2.3743114"><ele>496.0</ele><time>2026-05-02T08:35:49.528Z</time></trkpt><trkpt lat="43.5991705" lon="2.3744014"><ele>498.0</ele><time>2026-05-02T08:35:53.529Z</time></trkpt><trkpt lat="43.5992142" lon="2.3744743"><ele>500.0</ele><time>2026-05-02T08:35:56.528Z</time></trkpt><trkpt lat="43.5992658" lon="2.374525"><ele>502.0</ele><time>2026-05-02T08:35:59.529Z</time></trkpt><trkpt lat="43.5993396" lon="2.3745969"><ele>504.0</ele><time>2026-05-02T08:36:02.495Z</time></trkpt><trkpt lat="43.5993944" lon="2.37466"><ele>505.5</ele><time>2026-05-02T08:36:04.455Z</time></trkpt><trkpt lat="43.5994517" lon="2.3747235"><ele>507.0</ele><time>2026-05-02T08:36:06.528Z</time></trkpt><trkpt lat="43.5995063" lon="2.3748032"><ele>508.5</ele><time>2026-05-02T08:36:09.527Z</time></trkpt><trkpt lat="43.5995669" lon="2.3748874"><ele>510.0</ele><time>2026-05-02T08:36:12.527Z</time></trkpt><trkpt lat="43.5996205" lon="2.3749791"><ele>511.5</ele><time>2026-05-02T08:36:15.528Z</time></trkpt><trkpt lat="43.5996904" lon="2.3750433"><ele>513.0</ele><time>2026-05-02T08:36:17.528Z</time></trkpt><trkpt lat="43.5997939" lon="2.3750992"><ele>514.4</ele><time>2026-05-02T08:36:19.529Z</time></trkpt><trkpt lat="43.5998518" lon="2.3751369"><ele>515.8</ele><time>2026-05-02T08:36:20.528Z</time></trkpt><trkpt lat="43.5999518" lon="2.3752025"><ele>517.2</ele><time>2026-05-02T08:36:22.528Z</time></trkpt><trkpt lat="43.6000591" lon="2.3752629"><ele>518.6</ele><time>2026-05-02T08:36:24.528Z</time></trkpt><trkpt lat="43.6001484" lon="2.3753088"><ele>520.0</ele><time>2026-05-02T08:36:26.529Z</time></trkpt><trkpt lat="43.6002058" lon="2.3753532"><ele>520.0</ele><time>2026-05-02T08:36:27.529Z</time></trkpt><trkpt lat="43.6002618" lon="2.3753934"><ele>520.0</ele><time>2026-05-02T08:36:28.527Z</time></trkpt><trkpt lat="43.6003492" lon="2.3754524"><ele>520.0</ele><time>2026-05-02T08:36:30.528Z</time></trkpt><trkpt lat="43.6004547" lon="2.3755215"><ele>520.0</ele><time>2026-05-02T08:36:32.528Z</time></trkpt><trkpt lat="43.6005489" lon="2.3755861"><ele>520.0</ele><time>2026-05-02T08:36:34.529Z</time></trkpt><trkpt lat="43.6006071" lon="2.37562"><ele>520.0</ele><time>2026-05-02T08:36:35.528Z</time></trkpt><trkpt lat="43.6007001" lon="2.3756506"><ele>521.0</ele><time>2026-05-02T08:36:37.528Z</time></trkpt><trkpt lat="43.6007903" lon="2.3756701"><ele>522.0</ele><time>2026-05-02T08:36:39.527Z</time></trkpt><trkpt lat="43.600876" lon="2.3757068"><ele>523.0</ele><time>2026-05-02T08:36:41.528Z</time></trkpt><trkpt lat="43.6009718" lon="2.3757636"><ele>524.0</ele><time>2026-05-02T08:36:43.528Z</time></trkpt><trkpt lat="43.6010862" lon="2.3758202"><ele>525.0</ele><time>2026-05-02T08:36:45.528Z</time></trkpt><trkpt lat="43.6011779" lon="2.3758471"><ele>525.0</ele><time>2026-05-02T08:36:47.529Z</time></trkpt><trkpt lat="43.6012551" lon="2.3758291"><ele>525.0</ele><time>2026-05-02T08:36:50.528Z</time></trkpt><trkpt lat="43.6013214" lon="2.3757944"><ele>525.0</ele><time>2026-05-02T08:36:53.528Z</time></trkpt><trkpt lat="43.6014145" lon="2.3757288"><ele>525.0</ele><time>2026-05-02T08:36:56.528Z</time></trkpt><trkpt lat="43.6014953" lon="2.3756852"><ele>525.0</ele><time>2026-05-02T08:36:58.528Z</time></trkpt><trkpt lat="43.6015721" lon="2.375638"><ele>525.0</ele><time>2026-05-02T08:37:00.529Z</time></trkpt><trkpt lat="43.6016508" lon="2.3755869"><ele>525.0</ele><time>2026-05-02T08:37:02.528Z</time></trkpt><trkpt lat="43.6017255" lon="2.3755389"><ele>525.0</ele><time>2026-05-02T08:37:04.528Z</time></trkpt><trkpt lat="43.6017895" lon="2.3755059"><ele>525.0</ele><time>2026-05-02T08:37:06.528Z</time></trkpt><trkpt lat="43.601859" lon="2.3754505"><ele>525.0</ele><time>2026-05-02T08:37:08.529Z</time></trkpt><trkpt lat="43.6019596" lon="2.3753768"><ele>525.0</ele><time>2026-05-02T08:37:10.528Z</time></trkpt><trkpt lat="43.6020513" lon="2.375325"><ele>525.0</ele><time>2026-05-02T08:37:12.528Z</time></trkpt><trkpt lat="43.6021373" lon="2.3752797"><ele>524.0</ele><time>2026-05-02T08:37:15.527Z</time></trkpt><trkpt lat="43.6022191" lon="2.3752276"><ele>523.0</ele><time>2026-05-02T08:37:18.529Z</time></trkpt><trkpt lat="43.6022801" lon="2.3752046"><ele>522.0</ele><time>2026-05-02T08:37:20.528Z</time></trkpt><trkpt lat="43.6023819" lon="2.3751552"><ele>521.0</ele><time>2026-05-02T08:37:23.527Z</time></trkpt><trkpt lat="43.6024843" lon="2.3751145"><ele>520.0</ele><time>2026-05-02T08:37:25.529Z</time></trkpt><trkpt lat="43.6025859" lon="2.3750759"><ele>520.0</ele><time>2026-05-02T08:37:27.527Z</time></trkpt><trkpt lat="43.6026988" lon="2.3750264"><ele>520.0</ele><time>2026-05-02T08:37:29.527Z</time></trkpt><trkpt lat="43.6028167" lon="2.3749928"><ele>520.0</ele><time>2026-05-02T08:37:31.528Z</time></trkpt><trkpt lat="43.6029302" lon="2.3749823"><ele>520.0</ele><time>2026-05-02T08:37:33.528Z</time></trkpt><trkpt lat="43.603049" lon="2.3749532"><ele>519.8</ele><time>2026-05-02T08:37:35.528Z</time></trkpt><trkpt lat="43.603158" lon="2.3749526"><ele>519.6</ele><time>2026-05-02T08:37:37.528Z</time></trkpt><trkpt lat="43.6032638" lon="2.3749769"><ele>519.4</ele><time>2026-05-02T08:37:39.529Z</time></trkpt><trkpt lat="43.6033469" lon="2.3749921"><ele>519.2</ele><time>2026-05-02T08:37:41.527Z</time></trkpt><trkpt lat="43.6034478" lon="2.3750066"><ele>519.0</ele><time>2026-05-02T08:37:43.527Z</time></trkpt><trkpt lat="43.6035129" lon="2.3750274"><ele>519.0</ele><time>2026-05-02T08:37:45.527Z</time></trkpt><trkpt lat="43.6035963" lon="2.375096"><ele>519.0</ele><time>2026-05-02T08:37:48.527Z</time></trkpt><trkpt lat="43.6036729" lon="2.3751505"><ele>519.0</ele><time>2026-05-02T08:37:50.528Z</time></trkpt><trkpt lat="43.60374" lon="2.3751823"><ele>519.0</ele><time>2026-05-02T08:37:54.528Z</time></trkpt><trkpt lat="43.603811" lon="2.3752061"><ele>519.0</ele><time>2026-05-02T08:38:02.528Z</time></trkpt><trkpt lat="43.6038849" lon="2.3752395"><ele>519.0</ele><time>2026-05-02T08:38:04.529Z</time></trkpt><trkpt lat="43.6039737" lon="2.3752926"><ele>519.0</ele><time>2026-05-02T08:38:06.529Z</time></trkpt><trkpt lat="43.6040537" lon="2.3754074"><ele>519.0</ele><time>2026-05-02T08:38:08.529Z</time></trkpt><trkpt lat="43.6041436" lon="2.3754856"><ele>519.0</ele><time>2026-05-02T08:38:10.529Z</time></trkpt><trkpt lat="43.6042523" lon="2.3755539"><ele>519.0</ele><time>2026-05-02T08:38:12.528Z</time></trkpt><trkpt lat="43.6043211" lon="2.3755709"><ele>519.0</ele><time>2026-05-02T08:38:13.528Z</time></trkpt><trkpt lat="43.6044093" lon="2.3755797"><ele>519.1666666666666</ele><time>2026-05-02T08:38:14.529Z</time></trkpt><trkpt lat="43.6044914" lon="2.3755897"><ele>519.3333333333334</ele><time>2026-05-02T08:38:15.527Z</time></trkpt><trkpt lat="43.6045589" lon="2.3755954"><ele>519.5</ele><time>2026-05-02T08:38:16.529Z</time></trkpt><trkpt lat="43.6046517" lon="2.3756155"><ele>519.6666666666667</ele><time>2026-05-02T08:38:18.529Z</time></trkpt><trkpt lat="43.6047171" lon="2.3756625"><ele>519.8333333333334</ele><time>2026-05-02T08:38:20.529Z</time></trkpt><trkpt lat="43.6047519" lon="2.3758153"><ele>520.0</ele><time>2026-05-02T08:38:22.527Z</time></trkpt><trkpt lat="43.6047783" lon="2.3759162"><ele>521.2</ele><time>2026-05-02T08:38:23.528Z</time></trkpt><trkpt lat="43.6048178" lon="2.3760173"><ele>522.4</ele><time>2026-05-02T08:38:24.527Z</time></trkpt><trkpt lat="43.6048775" lon="2.3761012"><ele>523.6</ele><time>2026-05-02T08:38:25.529Z</time></trkpt><trkpt lat="43.6049417" lon="2.3761783"><ele>524.8</ele><time>2026-05-02T08:38:26.527Z</time></trkpt><trkpt lat="43.6050258" lon="2.3762398"><ele>526.0</ele><time>2026-05-02T08:38:27.526Z</time></trkpt><trkpt lat="43.6051222" lon="2.376306"><ele>526.0</ele><time>2026-05-02T08:38:28.528Z</time></trkpt><trkpt lat="43.6052313" lon="2.3763667"><ele>526.0</ele><time>2026-05-02T08:38:29.527Z</time></trkpt><trkpt lat="43.6053459" lon="2.3764291"><ele>526.0</ele><time>2026-05-02T08:38:30.529Z</time></trkpt><trkpt lat="43.6054696" lon="2.3764958"><ele>526.0</ele><time>2026-05-02T08:38:31.528Z</time></trkpt><trkpt lat="43.6055945" lon="2.376559"><ele>526.75</ele><time>2026-05-02T08:38:32.528Z</time></trkpt><trkpt lat="43.6057131" lon="2.3766182"><ele>527.5</ele><time>2026-05-02T08:38:33.528Z</time></trkpt><trkpt lat="43.605828" lon="2.3766746"><ele>528.25</ele><time>2026-05-02T08:38:34.529Z</time></trkpt><trkpt lat="43.6059331" lon="2.3767288"><ele>529.0</ele><time>2026-05-02T08:38:35.528Z</time></trkpt><trkpt lat="43.606043" lon="2.376787"><ele>529.0</ele><time>2026-05-02T08:38:36.529Z</time></trkpt><trkpt lat="43.6061541" lon="2.3768469"><ele>529.0</ele><time>2026-05-02T08:38:37.528Z</time></trkpt><trkpt lat="43.6062709" lon="2.3769028"><ele>529.0</ele><time>2026-05-02T08:38:38.528Z</time></trkpt><trkpt lat="43.6063783" lon="2.3769635"><ele>529.0</ele><time>2026-05-02T08:38:39.527Z</time></trkpt><trkpt lat="43.606484" lon="2.377027"><ele>530.0</ele><time>2026-05-02T08:38:40.527Z</time></trkpt><trkpt lat="43.606576" lon="2.377086"><ele>531.0</ele><time>2026-05-02T08:38:41.528Z</time></trkpt><trkpt lat="43.6066614" lon="2.3771494"><ele>532.0</ele><time>2026-05-02T08:38:42.529Z</time></trkpt><trkpt lat="43.6067528" lon="2.3772155"><ele>533.0</ele><time>2026-05-02T08:38:43.528Z</time></trkpt><trkpt lat="43.6068384" lon="2.377292"><ele>534.0</ele><time>2026-05-02T08:38:44.529Z</time></trkpt><trkpt lat="43.6069168" lon="2.3773791"><ele>534.3333333333334</ele><time>2026-05-02T08:38:45.528Z</time></trkpt><trkpt lat="43.6069867" lon="2.3774647"><ele>534.6666666666666</ele><time>2026-05-02T08:38:46.529Z</time></trkpt><trkpt lat="43.6070413" lon="2.3775546"><ele>535.0</ele><time>2026-05-02T08:38:47.527Z</time></trkpt><trkpt lat="43.6070781" lon="2.377633"><ele>535.3333333333333</ele><time>2026-05-02T08:38:48.528Z</time></trkpt><trkpt lat="43.6071111" lon="2.3777099"><ele>535.6666666666666</ele><time>2026-05-02T08:38:49.529Z</time></trkpt><trkpt lat="43.6071537" lon="2.377774"><ele>536.0</ele><time>2026-05-02T08:38:50.528Z</time></trkpt><trkpt lat="43.6072748" lon="2.3778434"><ele>537.6666666666666</ele><time>2026-05-02T08:38:52.528Z</time></trkpt><trkpt lat="43.6073471" lon="2.3778515"><ele>539.3333333333333</ele><time>2026-05-02T08:38:53.528Z</time></trkpt><trkpt lat="43.6074304" lon="2.3778661"><ele>541.0</ele><time>2026-05-02T08:38:54.527Z</time></trkpt><trkpt lat="43.6075177" lon="2.3778973"><ele>542.6666666666666</ele><time>2026-05-02T08:38:55.528Z</time></trkpt><trkpt lat="43.6076129" lon="2.3779266"><ele>544.3333333333334</ele><time>2026-05-02T08:38:56.528Z</time></trkpt><trkpt lat="43.607713" lon="2.3779573"><ele>546.0</ele><time>2026-05-02T08:38:57.529Z</time></trkpt><trkpt lat="43.6077976" lon="2.377984"><ele>547.6666666666666</ele><time>2026-05-02T08:38:58.529Z</time></trkpt><trkpt lat="43.607881" lon="2.3780205"><ele>549.3333333333334</ele><time>2026-05-02T08:38:59.526Z</time></trkpt><trkpt lat="43.6079485" lon="2.3780834"><ele>551.0</ele><time>2026-05-02T08:39:00.528Z</time></trkpt><trkpt lat="43.6080179" lon="2.3781552"><ele>552.6666666666667</ele><time>2026-05-02T08:39:01.527Z</time></trkpt><trkpt lat="43.6080912" lon="2.3782201"><ele>554.3333333333334</ele><time>2026-05-02T08:39:02.528Z</time></trkpt><trkpt lat="43.6081717" lon="2.3782803"><ele>556.0</ele><time>2026-05-02T08:39:03.528Z</time></trkpt><trkpt lat="43.6082713" lon="2.378282"><ele>556.0</ele><time>2026-05-02T08:39:04.528Z</time></trkpt><trkpt lat="43.6083657" lon="2.3782897"><ele>556.0</ele><time>2026-05-02T08:39:05.529Z</time></trkpt><trkpt lat="43.6084599" lon="2.3782633"><ele>556.0</ele><time>2026-05-02T08:39:06.527Z</time></trkpt><trkpt lat="43.6085535" lon="2.3782321"><ele>556.0</ele><time>2026-05-02T08:39:07.529Z</time></trkpt><trkpt lat="43.6086227" lon="2.3782051"><ele>556.0</ele><time>2026-05-02T08:39:08.527Z</time></trkpt><trkpt lat="43.6086853" lon="2.3781549"><ele>556.0</ele><time>2026-05-02T08:39:09.527Z</time></trkpt><trkpt lat="43.6087338" lon="2.3780919"><ele>557.4</ele><time>2026-05-02T08:39:10.527Z</time></trkpt><trkpt lat="43.6087473" lon="2.3779844"><ele>558.8</ele><time>2026-05-02T08:39:11.529Z</time></trkpt><trkpt lat="43.608759" lon="2.3778696"><ele>560.1999999999999</ele><time>2026-05-02T08:39:12.526Z</time></trkpt><trkpt lat="43.6087622" lon="2.3777394"><ele>561.6</ele><time>2026-05-02T08:39:13.526Z</time></trkpt><trkpt lat="43.6087678" lon="2.3775991"><ele>563.0</ele><time>2026-05-02T08:39:14.527Z</time></trkpt><trkpt lat="43.6087789" lon="2.3774619"><ele>563.0</ele><time>2026-05-02T08:39:15.528Z</time></trkpt><trkpt lat="43.608789" lon="2.3773456"><ele>563.0</ele><time>2026-05-02T08:39:16.527Z</time></trkpt><trkpt lat="43.6087977" lon="2.3772507"><ele>563.0</ele><time>2026-05-02T08:39:17.528Z</time></trkpt><trkpt lat="43.6088079" lon="2.3771069"><ele>563.0</ele><time>2026-05-02T08:39:19.526Z</time></trkpt><trkpt lat="43.6088801" lon="2.3770363"><ele>563.0</ele><time>2026-05-02T08:39:21.527Z</time></trkpt><trkpt lat="43.6089701" lon="2.3770402"><ele>563.0</ele><time>2026-05-02T08:39:23.528Z</time></trkpt><trkpt lat="43.6090327" lon="2.3770309"><ele>563.0</ele><time>2026-05-02T08:39:24.527Z</time></trkpt><trkpt lat="43.6090961" lon="2.3770232"><ele>563.0</ele><time>2026-05-02T08:39:25.529Z</time></trkpt><trkpt lat="43.609208" lon="2.3770096"><ele>563.0</ele><time>2026-05-02T08:39:27.529Z</time></trkpt><trkpt lat="43.6093025" lon="2.3770687"><ele>563.0</ele><time>2026-05-02T08:39:29.527Z</time></trkpt><trkpt lat="43.6093655" lon="2.3771827"><ele>563.0</ele><time>2026-05-02T08:39:31.528Z</time></trkpt><trkpt lat="43.6093976" lon="2.3772631"><ele>563.0</ele><time>2026-05-02T08:39:32.528Z</time></trkpt><trkpt lat="43.6094338" lon="2.3773438"><ele>563.0</ele><time>2026-05-02T08:39:33.528Z</time></trkpt><trkpt lat="43.6094693" lon="2.3774219"><ele>563.0</ele><time>2026-05-02T08:39:34.527Z</time></trkpt><trkpt lat="43.6095242" lon="2.3775434"><ele>563.0</ele><time>2026-05-02T08:39:36.529Z</time></trkpt><trkpt lat="43.6095589" lon="2.3776234"><ele>563.0</ele><time>2026-05-02T08:39:37.528Z</time></trkpt><trkpt lat="43.6095936" lon="2.3777146"><ele>563.0</ele><time>2026-05-02T08:39:38.528Z</time></trkpt><trkpt lat="43.6096278" lon="2.3778104"><ele>565.0</ele><time>2026-05-02T08:39:39.528Z</time></trkpt><trkpt lat="43.6096436" lon="2.3779366"><ele>567.0</ele><time>2026-05-02T08:39:40.528Z</time></trkpt><trkpt lat="43.6096548" lon="2.3780554"><ele>569.0</ele><time>2026-05-02T08:39:41.527Z</time></trkpt><trkpt lat="43.6096623" lon="2.3781619"><ele>571.0</ele><time>2026-05-02T08:39:42.528Z</time></trkpt><trkpt lat="43.6096757" lon="2.3782561"><ele>573.0</ele><time>2026-05-02T08:39:43.528Z</time></trkpt><trkpt lat="43.6096998" lon="2.3783457"><ele>575.0</ele><time>2026-05-02T08:39:44.527Z</time></trkpt><trkpt lat="43.6097259" lon="2.3784289"><ele>575.8333333333333</ele><time>2026-05-02T08:39:45.527Z</time></trkpt><trkpt lat="43.6097549" lon="2.3785162"><ele>576.6666666666666</ele><time>2026-05-02T08:39:46.527Z</time></trkpt><trkpt lat="43.6097691" lon="2.3786184"><ele>577.5</ele><time>2026-05-02T08:39:47.529Z</time></trkpt><trkpt lat="43.6097676" lon="2.3787354"><ele>578.3333333333334</ele><time>2026-05-02T08:39:48.528Z</time></trkpt><trkpt lat="43.6097695" lon="2.3788673"><ele>579.1666666666667</ele><time>2026-05-02T08:39:49.528Z</time></trkpt><trkpt lat="43.6097588" lon="2.3790164"><ele>580.0</ele><time>2026-05-02T08:39:50.527Z</time></trkpt><trkpt lat="43.6097496" lon="2.3791801"><ele>580.4</ele><time>2026-05-02T08:39:51.527Z</time></trkpt><trkpt lat="43.6097419" lon="2.3793329"><ele>580.8</ele><time>2026-05-02T08:39:52.526Z</time></trkpt><trkpt lat="43.6097528" lon="2.3794669"><ele>581.2</ele><time>2026-05-02T08:39:53.529Z</time></trkpt><trkpt lat="43.6097813" lon="2.3796036"><ele>581.6</ele><time>2026-05-02T08:39:54.527Z</time></trkpt><trkpt lat="43.6098159" lon="2.3797464"><ele>582.0</ele><time>2026-05-02T08:39:55.527Z</time></trkpt><trkpt lat="43.6098574" lon="2.379886"><ele>583.2</ele><time>2026-05-02T08:39:56.528Z</time></trkpt><trkpt lat="43.6098915" lon="2.3800251"><ele>584.4000000000001</ele><time>2026-05-02T08:39:57.527Z</time></trkpt><trkpt lat="43.6099119" lon="2.380142"><ele>585.5999999999999</ele><time>2026-05-02T08:39:58.526Z</time></trkpt><trkpt lat="43.6099491" lon="2.3802517"><ele>586.8</ele><time>2026-05-02T08:39:59.527Z</time></trkpt><trkpt lat="43.6100008" lon="2.3803787"><ele>588.0</ele><time>2026-05-02T08:40:00.529Z</time></trkpt><trkpt lat="43.6100483" lon="2.3804766"><ele>588.6</ele><time>2026-05-02T08:40:01.529Z</time></trkpt><trkpt lat="43.6101007" lon="2.3805688"><ele>589.1999999999999</ele><time>2026-05-02T08:40:02.528Z</time></trkpt><trkpt lat="43.6101637" lon="2.3806505"><ele>589.8</ele><time>2026-05-02T08:40:03.527Z</time></trkpt><trkpt lat="43.6102504" lon="2.3807256"><ele>590.4</ele><time>2026-05-02T08:40:04.526Z</time></trkpt><trkpt lat="43.6103327" lon="2.3808138"><ele>591.0</ele><time>2026-05-02T08:40:05.528Z</time></trkpt><trkpt lat="43.6104147" lon="2.3809059"><ele>593.0</ele><time>2026-05-02T08:40:06.527Z</time></trkpt><trkpt lat="43.6105092" lon="2.3809917"><ele>595.0</ele><time>2026-05-02T08:40:07.528Z</time></trkpt><trkpt lat="43.6106008" lon="2.381098"><ele>597.0</ele><time>2026-05-02T08:40:08.528Z</time></trkpt><trkpt lat="43.6106832" lon="2.3811844"><ele>599.0</ele><time>2026-05-02T08:40:09.527Z</time></trkpt><trkpt lat="43.610749" lon="2.381255"><ele>601.0</ele><time>2026-05-02T08:40:10.527Z</time></trkpt><trkpt lat="43.6108019" lon="2.3813089"><ele>600.8333333333334</ele><time>2026-05-02T08:40:11.527Z</time></trkpt><trkpt lat="43.6108609" lon="2.3814419"><ele>600.6666666666667</ele><time>2026-05-02T08:40:14.528Z</time></trkpt><trkpt lat="43.610913" lon="2.3815797"><ele>600.5</ele><time>2026-05-02T08:40:16.527Z</time></trkpt><trkpt lat="43.6109394" lon="2.3816612"><ele>600.3333333333334</ele><time>2026-05-02T08:40:17.527Z</time></trkpt><trkpt lat="43.6109645" lon="2.381744"><ele>600.1666666666666</ele><time>2026-05-02T08:40:18.527Z</time></trkpt><trkpt lat="43.6109951" lon="2.3818526"><ele>600.0</ele><time>2026-05-02T08:40:19.527Z</time></trkpt><trkpt lat="43.6110382" lon="2.3819544"><ele>600.0</ele><time>2026-05-02T08:40:20.527Z</time></trkpt><trkpt lat="43.6110935" lon="2.3820613"><ele>600.0</ele><time>2026-05-02T08:40:21.527Z</time></trkpt><trkpt lat="43.611149" lon="2.3821639"><ele>600.0</ele><time>2026-05-02T08:40:22.528Z</time></trkpt><trkpt lat="43.6112155" lon="2.382274"><ele>600.0</ele><time>2026-05-02T08:40:23.527Z</time></trkpt><trkpt lat="43.6112816" lon="2.3823697"><ele>600.0</ele><time>2026-05-02T08:40:24.527Z</time></trkpt><trkpt lat="43.6113457" lon="2.3824816"><ele>600.4</ele><time>2026-05-02T08:40:25.529Z</time></trkpt><trkpt lat="43.6113986" lon="2.3825953"><ele>600.8</ele><time>2026-05-02T08:40:26.527Z</time></trkpt><trkpt lat="43.6114484" lon="2.3827203"><ele>601.2</ele><time>2026-05-02T08:40:27.527Z</time></trkpt><trkpt lat="43.61149" lon="2.3828289"><ele>601.6</ele><time>2026-05-02T08:40:28.528Z</time></trkpt><trkpt lat="43.6115251" lon="2.3829431"><ele>602.0</ele><time>2026-05-02T08:40:29.529Z</time></trkpt><trkpt lat="43.6115654" lon="2.3830664"><ele>602.4</ele><time>2026-05-02T08:40:30.528Z</time></trkpt><trkpt lat="43.6116111" lon="2.3831842"><ele>602.8000000000001</ele><time>2026-05-02T08:40:31.527Z</time></trkpt><trkpt lat="43.6116715" lon="2.3833063"><ele>603.2</ele><time>2026-05-02T08:40:32.527Z</time></trkpt><trkpt lat="43.611736" lon="2.3834434"><ele>603.6</ele><time>2026-05-02T08:40:33.528Z</time></trkpt><trkpt lat="43.6117971" lon="2.3835743"><ele>604.0</ele><time>2026-05-02T08:40:34.527Z</time></trkpt><trkpt lat="43.6118593" lon="2.3837078"><ele>604.0</ele><time>2026-05-02T08:40:35.526Z</time></trkpt><trkpt lat="43.6119206" lon="2.3838255"><ele>604.0</ele><time>2026-05-02T08:40:36.527Z</time></trkpt><trkpt lat="43.6119747" lon="2.3839394"><ele>604.0</ele><time>2026-05-02T08:40:37.527Z</time></trkpt><trkpt lat="43.6120345" lon="2.3840493"><ele>604.0</ele><time>2026-05-02T08:40:38.526Z</time></trkpt><trkpt lat="43.6120888" lon="2.3841551"><ele>604.0</ele><time>2026-05-02T08:40:39.529Z</time></trkpt><trkpt lat="43.6121353" lon="2.3842467"><ele>604.6666666666667</ele><time>2026-05-02T08:40:40.526Z</time></trkpt><trkpt lat="43.6121859" lon="2.3843457"><ele>605.3333333333334</ele><time>2026-05-02T08:40:41.527Z</time></trkpt><trkpt lat="43.6121908" lon="2.3844628"><ele>606.0</ele><time>2026-05-02T08:40:42.527Z</time></trkpt><trkpt lat="43.6121988" lon="2.3845713"><ele>606.6666666666666</ele><time>2026-05-02T08:40:43.528Z</time></trkpt><trkpt lat="43.6121814" lon="2.3846943"><ele>607.3333333333333</ele><time>2026-05-02T08:40:44.527Z</time></trkpt><trkpt lat="43.6121858" lon="2.3848192"><ele>608.0</ele><time>2026-05-02T08:40:45.527Z</time></trkpt><trkpt lat="43.612196" lon="2.3849555"><ele>608.4</ele><time>2026-05-02T08:40:46.528Z</time></trkpt><trkpt lat="43.6122226" lon="2.3851053"><ele>608.8</ele><time>2026-05-02T08:40:47.526Z</time></trkpt><trkpt lat="43.6122442" lon="2.3852442"><ele>609.2</ele><time>2026-05-02T08:40:48.527Z</time></trkpt><trkpt lat="43.6122869" lon="2.3853871"><ele>609.6</ele><time>2026-05-02T08:40:49.528Z</time></trkpt><trkpt lat="43.6123131" lon="2.3855226"><ele>610.0</ele><time>2026-05-02T08:40:50.526Z</time></trkpt><trkpt lat="43.6123474" lon="2.385651"><ele>610.0</ele><time>2026-05-02T08:40:51.529Z</time></trkpt><trkpt lat="43.612384" lon="2.3857781"><ele>610.0</ele><time>2026-05-02T08:40:52.526Z</time></trkpt><trkpt lat="43.6124161" lon="2.3859064"><ele>610.0</ele><time>2026-05-02T08:40:53.527Z</time></trkpt><trkpt lat="43.6124617" lon="2.3860393"><ele>610.0</ele><time>2026-05-02T08:40:54.528Z</time></trkpt><trkpt lat="43.6125011" lon="2.3861705"><ele>610.0</ele><time>2026-05-02T08:40:55.526Z</time></trkpt><trkpt lat="43.6125567" lon="2.3862806"><ele>609.6666666666667</ele><time>2026-05-02T08:40:56.526Z</time></trkpt><trkpt lat="43.6125993" lon="2.3863919"><ele>609.3333333333334</ele><time>2026-05-02T08:40:57.527Z</time></trkpt><trkpt lat="43.612646" lon="2.3864793"><ele>609.0</ele><time>2026-05-02T08:40:58.528Z</time></trkpt><trkpt lat="43.6126863" lon="2.3865666"><ele>608.6666666666666</ele><time>2026-05-02T08:40:59.526Z</time></trkpt><trkpt lat="43.6127327" lon="2.3866522"><ele>608.3333333333333</ele><time>2026-05-02T08:41:00.527Z</time></trkpt><trkpt lat="43.6127973" lon="2.386723"><ele>608.0</ele><time>2026-05-02T08:41:01.528Z</time></trkpt><trkpt lat="43.6128681" lon="2.3867815"><ele>608.0</ele><time>2026-05-02T08:41:02.527Z</time></trkpt><trkpt lat="43.6129439" lon="2.3868505"><ele>608.0</ele><time>2026-05-02T08:41:03.527Z</time></trkpt><trkpt lat="43.6130185" lon="2.3869175"><ele>608.0</ele><time>2026-05-02T08:41:04.527Z</time></trkpt><trkpt lat="43.6130862" lon="2.3869911"><ele>608.0</ele><time>2026-05-02T08:41:05.527Z</time></trkpt><trkpt lat="43.6131447" lon="2.387079"><ele>608.0</ele><time>2026-05-02T08:41:06.527Z</time></trkpt><trkpt lat="43.6131918" lon="2.3871755"><ele>608.0</ele><time>2026-05-02T08:41:07.527Z</time></trkpt><trkpt lat="43.6132302" lon="2.38728"><ele>607.6</ele><time>2026-05-02T08:41:08.528Z</time></trkpt><trkpt lat="43.6132686" lon="2.3873849"><ele>607.1999999999999</ele><time>2026-05-02T08:41:09.528Z</time></trkpt><trkpt lat="43.6133009" lon="2.3874971"><ele>606.8</ele><time>2026-05-02T08:41:10.527Z</time></trkpt><trkpt lat="43.6133311" lon="2.3876115"><ele>606.4</ele><time>2026-05-02T08:41:11.527Z</time></trkpt><trkpt lat="43.6133601" lon="2.3877387"><ele>606.0</ele><time>2026-05-02T08:41:12.528Z</time></trkpt><trkpt lat="43.6133913" lon="2.3878633"><ele>606.2</ele><time>2026-05-02T08:41:13.528Z</time></trkpt><trkpt lat="43.6134005" lon="2.3880121"><ele>606.4000000000001</ele><time>2026-05-02T08:41:14.527Z</time></trkpt><trkpt lat="43.6133972" lon="2.388154"><ele>606.6</ele><time>2026-05-02T08:41:15.528Z</time></trkpt><trkpt lat="43.6133734" lon="2.3882902"><ele>606.8000000000001</ele><time>2026-05-02T08:41:16.527Z</time></trkpt><trkpt lat="43.6133542" lon="2.3884255"><ele>607.0</ele><time>2026-05-02T08:41:17.528Z</time></trkpt><trkpt lat="43.6133251" lon="2.3885888"><ele>607.0</ele><time>2026-05-02T08:41:18.527Z</time></trkpt><trkpt lat="43.6133024" lon="2.3887459"><ele>607.0</ele><time>2026-05-02T08:41:19.527Z</time></trkpt><trkpt lat="43.6132865" lon="2.3889282"><ele>607.0</ele><time>2026-05-02T08:41:20.527Z</time></trkpt><trkpt lat="43.6132803" lon="2.3890904"><ele>607.0</ele><time>2026-05-02T08:41:21.528Z</time></trkpt><trkpt lat="43.6132893" lon="2.3892481"><ele>606.6</ele><time>2026-05-02T08:41:22.527Z</time></trkpt><trkpt lat="43.6132974" lon="2.3894198"><ele>606.2</ele><time>2026-05-02T08:41:23.528Z</time></trkpt><trkpt lat="43.6133162" lon="2.3895727"><ele>605.8</ele><time>2026-05-02T08:41:24.526Z</time></trkpt><trkpt lat="43.6133307" lon="2.389712"><ele>605.4</ele><time>2026-05-02T08:41:25.528Z</time></trkpt><trkpt lat="43.613318" lon="2.3898335"><ele>605.0</ele><time>2026-05-02T08:41:26.526Z</time></trkpt><trkpt lat="43.6132933" lon="2.3899392"><ele>605.6666666666666</ele><time>2026-05-02T08:41:27.527Z</time></trkpt><trkpt lat="43.6132551" lon="2.3900186"><ele>606.3333333333333</ele><time>2026-05-02T08:41:28.527Z</time></trkpt><trkpt lat="43.6131773" lon="2.3901374"><ele>607.0</ele><time>2026-05-02T08:41:30.528Z</time></trkpt><trkpt lat="43.6131392" lon="2.3902072"><ele>607.6666666666666</ele><time>2026-05-02T08:41:31.527Z</time></trkpt><trkpt lat="43.6131149" lon="2.3902985"><ele>608.3333333333334</ele><time>2026-05-02T08:41:32.528Z</time></trkpt><trkpt lat="43.6130911" lon="2.3903863"><ele>609.0</ele><time>2026-05-02T08:41:33.527Z</time></trkpt><trkpt lat="43.6130847" lon="2.3904863"><ele>609.1666666666666</ele><time>2026-05-02T08:41:34.526Z</time></trkpt><trkpt lat="43.6130798" lon="2.39058"><ele>609.3333333333334</ele><time>2026-05-02T08:41:35.527Z</time></trkpt><trkpt lat="43.6130787" lon="2.3906842"><ele>609.5</ele><time>2026-05-02T08:41:36.528Z</time></trkpt><trkpt lat="43.6130763" lon="2.3907989"><ele>609.6666666666667</ele><time>2026-05-02T08:41:37.527Z</time></trkpt><trkpt lat="43.6130722" lon="2.3909179"><ele>609.8333333333334</ele><time>2026-05-02T08:41:38.526Z</time></trkpt><trkpt lat="43.6130703" lon="2.3910481"><ele>610.0</ele><time>2026-05-02T08:41:39.528Z</time></trkpt><trkpt lat="43.6130717" lon="2.3911788"><ele>610.0</ele><time>2026-05-02T08:41:40.528Z</time></trkpt><trkpt lat="43.6130753" lon="2.3913135"><ele>610.0</ele><time>2026-05-02T08:41:41.528Z</time></trkpt><trkpt lat="43.6130836" lon="2.39145"><ele>610.0</ele><time>2026-05-02T08:41:42.527Z</time></trkpt><trkpt lat="43.6130872" lon="2.3915894"><ele>610.0</ele><time>2026-05-02T08:41:43.527Z</time></trkpt><trkpt lat="43.6130696" lon="2.3917261"><ele>610.0</ele><time>2026-05-02T08:41:44.527Z</time></trkpt><trkpt lat="43.6130635" lon="2.3918653"><ele>609.5</ele><time>2026-05-02T08:41:45.527Z</time></trkpt><trkpt lat="43.6130365" lon="2.3920038"><ele>609.0</ele><time>2026-05-02T08:41:46.527Z</time></trkpt><trkpt lat="43.6130032" lon="2.3921687"><ele>608.5</ele><time>2026-05-02T08:41:47.526Z</time></trkpt><trkpt lat="43.6129745" lon="2.3923268"><ele>608.0</ele><time>2026-05-02T08:41:48.527Z</time></trkpt><trkpt lat="43.6129494" lon="2.3924789"><ele>608.0</ele><time>2026-05-02T08:41:49.526Z</time></trkpt><trkpt lat="43.6129335" lon="2.3926062"><ele>608.0</ele><time>2026-05-02T08:41:50.527Z</time></trkpt><trkpt lat="43.6129119" lon="2.3927197"><ele>608.0</ele><time>2026-05-02T08:41:51.527Z</time></trkpt><trkpt lat="43.6129095" lon="2.3928103"><ele>608.0</ele><time>2026-05-02T08:41:52.527Z</time></trkpt><trkpt lat="43.6129067" lon="2.3929049"><ele>608.0</ele><time>2026-05-02T08:41:53.528Z</time></trkpt><trkpt lat="43.6128976" lon="2.3930579"><ele>608.0</ele><time>2026-05-02T08:41:55.528Z</time></trkpt><trkpt lat="43.6128964" lon="2.393184"><ele>608.1666666666666</ele><time>2026-05-02T08:41:57.527Z</time></trkpt><trkpt lat="43.6129029" lon="2.3933275"><ele>608.3333333333333</ele><time>2026-05-02T08:41:59.528Z</time></trkpt><trkpt lat="43.6128893" lon="2.3934225"><ele>608.5</ele><time>2026-05-02T08:42:00.526Z</time></trkpt><trkpt lat="43.6128857" lon="2.3935143"><ele>608.6666666666666</ele><time>2026-05-02T08:42:01.527Z</time></trkpt><trkpt lat="43.6128754" lon="2.3936171"><ele>608.8333333333334</ele><time>2026-05-02T08:42:02.527Z</time></trkpt><trkpt lat="43.6128605" lon="2.3937297"><ele>609.0</ele><time>2026-05-02T08:42:03.527Z</time></trkpt><trkpt lat="43.6128363" lon="2.3938688"><ele>608.4</ele><time>2026-05-02T08:42:04.527Z</time></trkpt><trkpt lat="43.6128042" lon="2.3939927"><ele>607.8</ele><time>2026-05-02T08:42:05.528Z</time></trkpt><trkpt lat="43.6127804" lon="2.3941219"><ele>607.2</ele><time>2026-05-02T08:42:06.527Z</time></trkpt><trkpt lat="43.6127534" lon="2.394271"><ele>606.6</ele><time>2026-05-02T08:42:07.528Z</time></trkpt><trkpt lat="43.6127196" lon="2.3944278"><ele>606.0</ele><time>2026-05-02T08:42:08.527Z</time></trkpt><trkpt lat="43.6126896" lon="2.3945668"><ele>606.2</ele><time>2026-05-02T08:42:09.527Z</time></trkpt><trkpt lat="43.6126721" lon="2.3947045"><ele>606.4000000000001</ele><time>2026-05-02T08:42:10.527Z</time></trkpt><trkpt lat="43.6126782" lon="2.3948618"><ele>606.6</ele><time>2026-05-02T08:42:11.526Z</time></trkpt><trkpt lat="43.6126923" lon="2.3949972"><ele>606.8000000000001</ele><time>2026-05-02T08:42:12.527Z</time></trkpt><trkpt lat="43.6127015" lon="2.3951297"><ele>607.0</ele><time>2026-05-02T08:42:13.526Z</time></trkpt><trkpt lat="43.6127043" lon="2.3952559"><ele>607.0</ele><time>2026-05-02T08:42:14.525Z</time></trkpt><trkpt lat="43.6127003" lon="2.3953831"><ele>607.0</ele><time>2026-05-02T08:42:15.527Z</time></trkpt><trkpt lat="43.6126866" lon="2.3955116"><ele>607.0</ele><time>2026-05-02T08:42:16.526Z</time></trkpt><trkpt lat="43.6126756" lon="2.3956381"><ele>607.0</ele><time>2026-05-02T08:42:17.527Z</time></trkpt><trkpt lat="43.6126588" lon="2.3957706"><ele>607.0</ele><time>2026-05-02T08:42:18.528Z</time></trkpt><trkpt lat="43.6126399" lon="2.3959009"><ele>607.0</ele><time>2026-05-02T08:42:19.527Z</time></trkpt><trkpt lat="43.6126268" lon="2.3960376"><ele>607.0</ele><time>2026-05-02T08:42:20.528Z</time></trkpt><trkpt lat="43.6126132" lon="2.3961713"><ele>607.0</ele><time>2026-05-02T08:42:21.528Z</time></trkpt><trkpt lat="43.6125965" lon="2.3963063"><ele>607.0</ele><time>2026-05-02T08:42:22.527Z</time></trkpt><trkpt lat="43.6125733" lon="2.3964402"><ele>607.0</ele><time>2026-05-02T08:42:23.527Z</time></trkpt><trkpt lat="43.6125502" lon="2.3965802"><ele>607.2</ele><time>2026-05-02T08:42:24.528Z</time></trkpt><trkpt lat="43.6125059" lon="2.3967031"><ele>607.4000000000001</ele><time>2026-05-02T08:42:25.526Z</time></trkpt><trkpt lat="43.6124582" lon="2.3968291"><ele>607.5999999999999</ele><time>2026-05-02T08:42:26.527Z</time></trkpt><trkpt lat="43.6123982" lon="2.3969339"><ele>607.8</ele><time>2026-05-02T08:42:27.526Z</time></trkpt><trkpt lat="43.6123363" lon="2.3970367"><ele>608.0</ele><time>2026-05-02T08:42:28.527Z</time></trkpt><trkpt lat="43.6122765" lon="2.3971352"><ele>607.4</ele><time>2026-05-02T08:42:29.527Z</time></trkpt><trkpt lat="43.6122143" lon="2.3972334"><ele>606.8</ele><time>2026-05-02T08:42:30.526Z</time></trkpt><trkpt lat="43.6121372" lon="2.3973475"><ele>606.2</ele><time>2026-05-02T08:42:31.526Z</time></trkpt><trkpt lat="43.6120583" lon="2.3974493"><ele>605.6</ele><time>2026-05-02T08:42:32.528Z</time></trkpt><trkpt lat="43.6119836" lon="2.3975443"><ele>605.0</ele><time>2026-05-02T08:42:33.528Z</time></trkpt><trkpt lat="43.6119081" lon="2.3976473"><ele>605.0</ele><time>2026-05-02T08:42:34.526Z</time></trkpt><trkpt lat="43.6118256" lon="2.3977437"><ele>605.0</ele><time>2026-05-02T08:42:35.527Z</time></trkpt><trkpt lat="43.6117427" lon="2.3978317"><ele>605.0</ele><time>2026-05-02T08:42:36.527Z</time></trkpt><trkpt lat="43.6116576" lon="2.3979207"><ele>605.0</ele><time>2026-05-02T08:42:37.526Z</time></trkpt><trkpt lat="43.6115654" lon="2.3980012"><ele>605.0</ele><time>2026-05-02T08:42:38.527Z</time></trkpt><trkpt lat="43.6114741" lon="2.3980837"><ele>604.8333333333333</ele><time>2026-05-02T08:42:39.528Z</time></trkpt><trkpt lat="43.6113886" lon="2.3981674"><ele>604.6666666666666</ele><time>2026-05-02T08:42:40.527Z</time></trkpt><trkpt lat="43.6113163" lon="2.3982408"><ele>604.5</ele><time>2026-05-02T08:42:41.527Z</time></trkpt><trkpt lat="43.6112759" lon="2.3983077"><ele>604.3333333333334</ele><time>2026-05-02T08:42:42.528Z</time></trkpt><trkpt lat="43.6112323" lon="2.398382"><ele>604.1666666666667</ele><time>2026-05-02T08:42:43.528Z</time></trkpt><trkpt lat="43.6112015" lon="2.398461"><ele>604.0</ele><time>2026-05-02T08:42:44.527Z</time></trkpt><trkpt lat="43.6111814" lon="2.3985448"><ele>604.0</ele><time>2026-05-02T08:42:45.526Z</time></trkpt><trkpt lat="43.6111809" lon="2.398698"><ele>604.0</ele><time>2026-05-02T08:42:47.528Z</time></trkpt><trkpt lat="43.6112247" lon="2.3987808"><ele>604.0</ele><time>2026-05-02T08:42:49.525Z</time></trkpt><trkpt lat="43.6113169" lon="2.3987793"><ele>604.0</ele><time>2026-05-02T08:42:51.527Z</time></trkpt><trkpt lat="43.611386" lon="2.3987458"><ele>604.0</ele><time>2026-05-02T08:42:52.527Z</time></trkpt><trkpt lat="43.61146" lon="2.3987062"><ele>604.0</ele><time>2026-05-02T08:42:53.527Z</time></trkpt><trkpt lat="43.611556" lon="2.3986724"><ele>604.0</ele><time>2026-05-02T08:42:54.526Z</time></trkpt><trkpt lat="43.6116517" lon="2.3986312"><ele>604.0</ele><time>2026-05-02T08:42:55.526Z</time></trkpt><trkpt lat="43.6117508" lon="2.3986046"><ele>604.0</ele><time>2026-05-02T08:42:56.528Z</time></trkpt><trkpt lat="43.6118459" lon="2.3985778"><ele>604.0</ele><time>2026-05-02T08:42:57.527Z</time></trkpt><trkpt lat="43.6119465" lon="2.3985558"><ele>604.0</ele><time>2026-05-02T08:42:58.526Z</time></trkpt><trkpt lat="43.6120432" lon="2.3985374"><ele>603.6</ele><time>2026-05-02T08:42:59.526Z</time></trkpt><trkpt lat="43.6121509" lon="2.3985129"><ele>603.2</ele><time>2026-05-02T08:43:00.525Z</time></trkpt><trkpt lat="43.6122476" lon="2.3985122"><ele>602.8000000000001</ele><time>2026-05-02T08:43:01.525Z</time></trkpt><trkpt lat="43.6123516" lon="2.3985425"><ele>602.4</ele><time>2026-05-02T08:43:02.527Z</time></trkpt><trkpt lat="43.6124519" lon="2.3985725"><ele>602.0</ele><time>2026-05-02T08:43:03.527Z</time></trkpt><trkpt lat="43.612557" lon="2.3985954"><ele>602.0</ele><time>2026-05-02T08:43:04.528Z</time></trkpt><trkpt lat="43.6126726" lon="2.3986061"><ele>602.0</ele><time>2026-05-02T08:43:05.525Z</time></trkpt><trkpt lat="43.6127904" lon="2.3985894"><ele>602.0</ele><time>2026-05-02T08:43:06.526Z</time></trkpt><trkpt lat="43.612913" lon="2.3985722"><ele>602.0</ele><time>2026-05-02T08:43:07.527Z</time></trkpt><trkpt lat="43.6130538" lon="2.3985481"><ele>602.0</ele><time>2026-05-02T08:43:08.527Z</time></trkpt><trkpt lat="43.6131874" lon="2.3985223"><ele>602.0</ele><time>2026-05-02T08:43:09.528Z</time></trkpt><trkpt lat="43.6133091" lon="2.3985116"><ele>602.0</ele><time>2026-05-02T08:43:10.527Z</time></trkpt><trkpt lat="43.6134136" lon="2.3985181"><ele>602.0</ele><time>2026-05-02T08:43:11.526Z</time></trkpt><trkpt lat="43.6135226" lon="2.3985368"><ele>602.0</ele><time>2026-05-02T08:43:12.527Z</time></trkpt><trkpt lat="43.6136251" lon="2.3985654"><ele>602.0</ele><time>2026-05-02T08:43:13.527Z</time></trkpt><trkpt lat="43.6137333" lon="2.3986001"><ele>602.0</ele><time>2026-05-02T08:43:14.528Z</time></trkpt><trkpt lat="43.6138414" lon="2.3986114"><ele>602.0</ele><time>2026-05-02T08:43:15.527Z</time></trkpt><trkpt lat="43.613954" lon="2.3986034"><ele>602.0</ele><time>2026-05-02T08:43:16.527Z</time></trkpt><trkpt lat="43.6140874" lon="2.3985889"><ele>602.5</ele><time>2026-05-02T08:43:17.526Z</time></trkpt><trkpt lat="43.6142245" lon="2.3985689"><ele>603.0</ele><time>2026-05-02T08:43:18.526Z</time></trkpt><trkpt lat="43.6143649" lon="2.3985514"><ele>603.5</ele><time>2026-05-02T08:43:19.527Z</time></trkpt><trkpt lat="43.6145127" lon="2.3985229"><ele>604.0</ele><time>2026-05-02T08:43:20.526Z</time></trkpt><trkpt lat="43.6146623" lon="2.3984944"><ele>604.5</ele><time>2026-05-02T08:43:21.527Z</time></trkpt><trkpt lat="43.6148076" lon="2.398468"><ele>605.0</ele><time>2026-05-02T08:43:22.526Z</time></trkpt><trkpt lat="43.6149519" lon="2.3984209"><ele>605.5</ele><time>2026-05-02T08:43:23.527Z</time></trkpt><trkpt lat="43.6150893" lon="2.398357"><ele>606.0</ele><time>2026-05-02T08:43:24.525Z</time></trkpt><trkpt lat="43.6152252" lon="2.3982785"><ele>609.0</ele><time>2026-05-02T08:43:25.526Z</time></trkpt><trkpt lat="43.6153641" lon="2.3982097"><ele>612.0</ele><time>2026-05-02T08:43:26.526Z</time></trkpt><trkpt lat="43.6154863" lon="2.3981527"><ele>615.0</ele><time>2026-05-02T08:43:27.527Z</time></trkpt><trkpt lat="43.6155894" lon="2.3980962"><ele>618.0</ele><time>2026-05-02T08:43:28.526Z</time></trkpt><trkpt lat="43.6156883" lon="2.3980544"><ele>618.0000000000001</ele><time>2026-05-02T08:43:29.527Z</time></trkpt><trkpt lat="43.6157653" lon="2.3980235"><ele>618.0</ele><time>2026-05-02T08:43:30.526Z</time></trkpt><trkpt lat="43.6158283" lon="2.3980137"><ele>618.0</ele><time>2026-05-02T08:43:31.527Z</time></trkpt><trkpt lat="43.6159091" lon="2.3981135"><ele>618.0</ele><time>2026-05-02T08:43:33.526Z</time></trkpt><trkpt lat="43.6158761" lon="2.3981883"><ele>618.0</ele><time>2026-05-02T08:43:34.526Z</time></trkpt><trkpt lat="43.6158279" lon="2.3982489"><ele>618.0000000000001</ele><time>2026-05-02T08:43:35.525Z</time></trkpt><trkpt lat="43.6157743" lon="2.3983079"><ele>618.0</ele><time>2026-05-02T08:43:36.527Z</time></trkpt><trkpt lat="43.6156928" lon="2.3983602"><ele>618.0</ele><time>2026-05-02T08:43:37.526Z</time></trkpt><trkpt lat="43.6156093" lon="2.3984274"><ele>618.0</ele><time>2026-05-02T08:43:38.526Z</time></trkpt><trkpt lat="43.6155352" lon="2.3985239"><ele>618.0</ele><time>2026-05-02T08:43:39.528Z</time></trkpt><trkpt lat="43.6154474" lon="2.3986341"><ele>618.0</ele><time>2026-05-02T08:43:40.527Z</time></trkpt><trkpt lat="43.6153668" lon="2.3987512"><ele>618.0</ele><time>2026-05-02T08:43:41.526Z</time></trkpt><trkpt lat="43.6153155" lon="2.3988756"><ele>617.25</ele><time>2026-05-02T08:43:42.526Z</time></trkpt><trkpt lat="43.615283" lon="2.399019"><ele>616.5</ele><time>2026-05-02T08:43:43.525Z</time></trkpt><trkpt lat="43.6152969" lon="2.3991714"><ele>615.75</ele><time>2026-05-02T08:43:44.526Z</time></trkpt><trkpt lat="43.6152687" lon="2.3993204"><ele>615.0</ele><time>2026-05-02T08:43:45.528Z</time></trkpt><trkpt lat="43.6152167" lon="2.3994716"><ele>615.0</ele><time>2026-05-02T08:43:46.527Z</time></trkpt><trkpt lat="43.6151684" lon="2.3996182"><ele>615.0</ele><time>2026-05-02T08:43:47.527Z</time></trkpt><trkpt lat="43.6151231" lon="2.3997666"><ele>615.0</ele><time>2026-05-02T08:43:48.528Z</time></trkpt><trkpt lat="43.6150937" lon="2.3999179"><ele>615.0</ele><time>2026-05-02T08:43:49.527Z</time></trkpt><trkpt lat="43.6150725" lon="2.4000675"><ele>617.0</ele><time>2026-05-02T08:43:50.527Z</time></trkpt><trkpt lat="43.6150702" lon="2.4002085"><ele>619.0</ele><time>2026-05-02T08:43:51.526Z</time></trkpt><trkpt lat="43.615058" lon="2.400309"><ele>621.0</ele><time>2026-05-02T08:43:52.526Z</time></trkpt><trkpt lat="43.6150765" lon="2.4004316"><ele>623.0</ele><time>2026-05-02T08:43:54.526Z</time></trkpt><trkpt lat="43.6151552" lon="2.4004143"><ele>625.0</ele><time>2026-05-02T08:43:57.526Z</time></trkpt><trkpt lat="43.6152446" lon="2.4002963"><ele>625.0</ele><time>2026-05-02T08:43:59.526Z</time></trkpt><trkpt lat="43.6153016" lon="2.4001983"><ele>625.0</ele><time>2026-05-02T08:44:00.527Z</time></trkpt><trkpt lat="43.615412" lon="2.4001223"><ele>625.0</ele><time>2026-05-02T08:44:01.527Z</time></trkpt><trkpt lat="43.6155013" lon="2.4000444"><ele>625.0</ele><time>2026-05-02T08:44:02.527Z</time></trkpt><trkpt lat="43.6156009" lon="2.3999774"><ele>625.0</ele><time>2026-05-02T08:44:03.526Z</time></trkpt><trkpt lat="43.6156846" lon="2.3999128"><ele>626.0</ele><time>2026-05-02T08:44:04.527Z</time></trkpt><trkpt lat="43.6157518" lon="2.3998713"><ele>627.0</ele><time>2026-05-02T08:44:05.526Z</time></trkpt><trkpt lat="43.6158167" lon="2.3997723"><ele>628.0</ele><time>2026-05-02T08:44:07.526Z</time></trkpt><trkpt lat="43.6158433" lon="2.3996534"><ele>629.0</ele><time>2026-05-02T08:44:09.527Z</time></trkpt><trkpt lat="43.6158396" lon="2.3995394"><ele>630.0</ele><time>2026-05-02T08:44:11.525Z</time></trkpt><trkpt lat="43.6157814" lon="2.3994516"><ele>631.0</ele><time>2026-05-02T08:44:14.526Z</time></trkpt><trkpt lat="43.6157143" lon="2.3994073"><ele>631.0</ele><time>2026-05-02T08:44:17.526Z</time></trkpt><trkpt lat="43.6156369" lon="2.399437"><ele>631.0</ele><time>2026-05-02T08:44:20.526Z</time></trkpt></trkseg><trkseg><trkpt lat="43.6157569" lon="2.399403"><ele>631.0</ele><time>2026-05-02T09:13:09.521Z</time></trkpt><trkpt lat="43.615831" lon="2.3994362"><ele>631.0</ele><time>2026-05-02T09:13:12.519Z</time></trkpt><trkpt lat="43.615862" lon="2.3995581"><ele>631.0</ele><time>2026-05-02T09:13:15.52Z</time></trkpt><trkpt lat="43.6158406" lon="2.3996634"><ele>631.0</ele><time>2026-05-02T09:13:17.521Z</time></trkpt><trkpt lat="43.6157996" lon="2.3997512"><ele>631.0</ele><time>2026-05-02T09:13:19.521Z</time></trkpt><trkpt lat="43.6156966" lon="2.3998547"><ele>630.0</ele><time>2026-05-02T09:13:21.52Z</time></trkpt><trkpt lat="43.6156324" lon="2.3999156"><ele>629.0</ele><time>2026-05-02T09:13:22.519Z</time></trkpt><trkpt lat="43.6155552" lon="2.3999796"><ele>628.0</ele><time>2026-05-02T09:13:23.52Z</time></trkpt><trkpt lat="43.6154806" lon="2.4000332"><ele>627.0</ele><time>2026-05-02T09:13:24.52Z</time></trkpt><trkpt lat="43.6154127" lon="2.400095"><ele>626.0</ele><time>2026-05-02T09:13:25.521Z</time></trkpt><trkpt lat="43.6153526" lon="2.4001639"><ele>625.0</ele><time>2026-05-02T09:13:26.52Z</time></trkpt><trkpt lat="43.6153071" lon="2.4002265"><ele>625.0</ele><time>2026-05-02T09:13:27.519Z</time></trkpt><trkpt lat="43.6152269" lon="2.40032"><ele>625.0</ele><time>2026-05-02T09:13:29.52Z</time></trkpt><trkpt lat="43.6151641" lon="2.4003941"><ele>625.0</ele><time>2026-05-02T09:13:31.521Z</time></trkpt><trkpt lat="43.6150994" lon="2.4003807"><ele>625.0</ele><time>2026-05-02T09:13:33.52Z</time></trkpt><trkpt lat="43.6150684" lon="2.4002818"><ele>625.0</ele><time>2026-05-02T09:13:35.521Z</time></trkpt><trkpt lat="43.6150793" lon="2.4001956"><ele>625.0</ele><time>2026-05-02T09:13:36.521Z</time></trkpt><trkpt lat="43.6150768" lon="2.4000945"><ele>625.0</ele><time>2026-05-02T09:13:37.52Z</time></trkpt><trkpt lat="43.6150816" lon="2.3999808"><ele>625.0</ele><time>2026-05-02T09:13:38.52Z</time></trkpt><trkpt lat="43.6150975" lon="2.3998571"><ele>625.0</ele><time>2026-05-02T09:13:39.519Z</time></trkpt><trkpt lat="43.6151426" lon="2.3997189"><ele>625.0</ele><time>2026-05-02T09:13:40.52Z</time></trkpt><trkpt lat="43.615188" lon="2.3995889"><ele>625.0</ele><time>2026-05-02T09:13:41.52Z</time></trkpt><trkpt lat="43.6152325" lon="2.3994655"><ele>626.2</ele><time>2026-05-02T09:13:42.52Z</time></trkpt><trkpt lat="43.6152685" lon="2.3993249"><ele>627.4</ele><time>2026-05-02T09:13:43.52Z</time></trkpt><trkpt lat="43.6152962" lon="2.399173"><ele>628.6</ele><time>2026-05-02T09:13:44.521Z</time></trkpt><trkpt lat="43.6153071" lon="2.3990164"><ele>629.8</ele><time>2026-05-02T09:13:45.521Z</time></trkpt><trkpt lat="43.6153245" lon="2.3988806"><ele>631.0</ele><time>2026-05-02T09:13:46.521Z</time></trkpt><trkpt lat="43.6153741" lon="2.3987588"><ele>628.4</ele><time>2026-05-02T09:13:47.519Z</time></trkpt><trkpt lat="43.6154392" lon="2.3986344"><ele>625.8</ele><time>2026-05-02T09:13:48.52Z</time></trkpt><trkpt lat="43.6154989" lon="2.3985066"><ele>623.1999999999999</ele><time>2026-05-02T09:13:49.52Z</time></trkpt><trkpt lat="43.6155538" lon="2.398394"><ele>620.6</ele><time>2026-05-02T09:13:50.521Z</time></trkpt><trkpt lat="43.6156311" lon="2.3983358"><ele>618.0</ele><time>2026-05-02T09:13:51.52Z</time></trkpt><trkpt lat="43.6156986" lon="2.3982651"><ele>618.0</ele><time>2026-05-02T09:13:52.521Z</time></trkpt><trkpt lat="43.6157656" lon="2.3982273"><ele>618.0</ele><time>2026-05-02T09:13:53.519Z</time></trkpt><trkpt lat="43.6158626" lon="2.3981558"><ele>618.0</ele><time>2026-05-02T09:13:55.521Z</time></trkpt><trkpt lat="43.615853" lon="2.3980599"><ele>618.0</ele><time>2026-05-02T09:13:56.52Z</time></trkpt><trkpt lat="43.6158015" lon="2.3979575"><ele>618.0</ele><time>2026-05-02T09:13:58.52Z</time></trkpt><trkpt lat="43.6156788" lon="2.3979678"><ele>618.0</ele><time>2026-05-02T09:14:00.52Z</time></trkpt><trkpt lat="43.6155793" lon="2.398014"><ele>618.0</ele><time>2026-05-02T09:14:01.52Z</time></trkpt><trkpt lat="43.6154908" lon="2.3980386"><ele>618.0</ele><time>2026-05-02T09:14:02.521Z</time></trkpt><trkpt lat="43.6154077" lon="2.3980724"><ele>618.0</ele><time>2026-05-02T09:14:03.52Z</time></trkpt><trkpt lat="43.6153211" lon="2.3981183"><ele>618.0</ele><time>2026-05-02T09:14:04.52Z</time></trkpt><trkpt lat="43.6152443" lon="2.3981621"><ele>616.0</ele><time>2026-05-02T09:14:05.52Z</time></trkpt><trkpt lat="43.6151662" lon="2.3982072"><ele>614.0</ele><time>2026-05-02T09:14:06.52Z</time></trkpt><trkpt lat="43.6150962" lon="2.3982514"><ele>612.0</ele><time>2026-05-02T09:14:07.519Z</time></trkpt><trkpt lat="43.6149958" lon="2.3983058"><ele>610.0</ele><time>2026-05-02T09:14:09.519Z</time></trkpt><trkpt lat="43.6149327" lon="2.3982896"><ele>608.0</ele><time>2026-05-02T09:14:11.52Z</time></trkpt><trkpt lat="43.6149696" lon="2.3982098"><ele>606.0</ele><time>2026-05-02T09:14:13.52Z</time></trkpt><trkpt lat="43.6150817" lon="2.3981344"><ele>606.0</ele><time>2026-05-02T09:14:15.52Z</time></trkpt><trkpt lat="43.6151549" lon="2.3980972"><ele>606.0</ele><time>2026-05-02T09:14:16.521Z</time></trkpt><trkpt lat="43.6152293" lon="2.3980538"><ele>606.0</ele><time>2026-05-02T09:14:17.52Z</time></trkpt><trkpt lat="43.6153056" lon="2.3980101"><ele>606.0</ele><time>2026-05-02T09:14:18.52Z</time></trkpt><trkpt lat="43.6153884" lon="2.3979592"><ele>606.0</ele><time>2026-05-02T09:14:19.521Z</time></trkpt><trkpt lat="43.6154678" lon="2.3979106"><ele>606.0</ele><time>2026-05-02T09:14:20.519Z</time></trkpt><trkpt lat="43.6155598" lon="2.3978496"><ele>606.25</ele><time>2026-05-02T09:14:21.52Z</time></trkpt><trkpt lat="43.6156665" lon="2.397779"><ele>606.5</ele><time>2026-05-02T09:14:22.52Z</time></trkpt><trkpt lat="43.6157653" lon="2.3976983"><ele>606.75</ele><time>2026-05-02T09:14:23.52Z</time></trkpt><trkpt lat="43.6158734" lon="2.3976129"><ele>607.0</ele><time>2026-05-02T09:14:24.52Z</time></trkpt><trkpt lat="43.6159884" lon="2.3975261"><ele>607.0</ele><time>2026-05-02T09:14:25.52Z</time></trkpt><trkpt lat="43.6161194" lon="2.3974372"><ele>607.0</ele><time>2026-05-02T09:14:26.519Z</time></trkpt><trkpt lat="43.6162515" lon="2.3973331"><ele>607.0</ele><time>2026-05-02T09:14:27.52Z</time></trkpt><trkpt lat="43.6163829" lon="2.3972244"><ele>604.3333333333334</ele><time>2026-05-02T09:14:28.52Z</time></trkpt><trkpt lat="43.6165277" lon="2.3970844"><ele>601.6666666666666</ele><time>2026-05-02T09:14:29.521Z</time></trkpt><trkpt lat="43.61667" lon="2.396961"><ele>599.0</ele><time>2026-05-02T09:14:30.519Z</time></trkpt><trkpt lat="43.6168174" lon="2.3968674"><ele>599.0</ele><time>2026-05-02T09:14:31.52Z</time></trkpt><trkpt lat="43.6169441" lon="2.3967564"><ele>599.0</ele><time>2026-05-02T09:14:32.519Z</time></trkpt><trkpt lat="43.6170705" lon="2.3966707"><ele>599.0</ele><time>2026-05-02T09:14:33.521Z</time></trkpt><trkpt lat="43.6171856" lon="2.3965901"><ele>599.0</ele><time>2026-05-02T09:14:34.521Z</time></trkpt><trkpt lat="43.6173112" lon="2.3964873"><ele>598.75</ele><time>2026-05-02T09:14:35.52Z</time></trkpt><trkpt lat="43.6174146" lon="2.3963994"><ele>598.5</ele><time>2026-05-02T09:14:36.52Z</time></trkpt><trkpt lat="43.6175279" lon="2.3963274"><ele>598.25</ele><time>2026-05-02T09:14:37.519Z</time></trkpt><trkpt lat="43.6176398" lon="2.3962801"><ele>598.0</ele><time>2026-05-02T09:14:38.519Z</time></trkpt><trkpt lat="43.6177358" lon="2.3961867"><ele>599.25</ele><time>2026-05-02T09:14:39.52Z</time></trkpt><trkpt lat="43.6178433" lon="2.3961293"><ele>600.5</ele><time>2026-05-02T09:14:40.521Z</time></trkpt><trkpt lat="43.617986" lon="2.3961169"><ele>601.75</ele><time>2026-05-02T09:14:41.519Z</time></trkpt><trkpt lat="43.6181081" lon="2.3961169"><ele>603.0</ele><time>2026-05-02T09:14:42.52Z</time></trkpt><trkpt lat="43.6182367" lon="2.3961566"><ele>603.0</ele><time>2026-05-02T09:14:43.52Z</time></trkpt><trkpt lat="43.6183743" lon="2.3962256"><ele>603.0</ele><time>2026-05-02T09:14:44.52Z</time></trkpt><trkpt lat="43.6184912" lon="2.3963093"><ele>603.0</ele><time>2026-05-02T09:14:45.52Z</time></trkpt><trkpt lat="43.6186244" lon="2.3964025"><ele>603.0</ele><time>2026-05-02T09:14:46.52Z</time></trkpt><trkpt lat="43.6187342" lon="2.3964894"><ele>603.25</ele><time>2026-05-02T09:14:47.521Z</time></trkpt><trkpt lat="43.6188479" lon="2.3965707"><ele>603.5</ele><time>2026-05-02T09:14:48.521Z</time></trkpt><trkpt lat="43.6189454" lon="2.3966662"><ele>603.75</ele><time>2026-05-02T09:14:49.52Z</time></trkpt><trkpt lat="43.6190343" lon="2.3967816"><ele>604.0</ele><time>2026-05-02T09:14:50.52Z</time></trkpt><trkpt lat="43.6191259" lon="2.3969065"><ele>604.0</ele><time>2026-05-02T09:14:51.519Z</time></trkpt><trkpt lat="43.6192199" lon="2.3970514"><ele>604.0</ele><time>2026-05-02T09:14:52.521Z</time></trkpt><trkpt lat="43.6193085" lon="2.397237"><ele>604.0</ele><time>2026-05-02T09:14:53.521Z</time></trkpt><trkpt lat="43.619414" lon="2.3973982"><ele>606.5</ele><time>2026-05-02T09:14:54.52Z</time></trkpt><trkpt lat="43.6195206" lon="2.3975344"><ele>609.0</ele><time>2026-05-02T09:14:55.52Z</time></trkpt><trkpt lat="43.6196157" lon="2.3976433"><ele>611.5</ele><time>2026-05-02T09:14:56.52Z</time></trkpt><trkpt lat="43.6197" lon="2.3976995"><ele>614.0</ele><time>2026-05-02T09:14:57.52Z</time></trkpt><trkpt lat="43.6197943" lon="2.3977373"><ele>614.0</ele><time>2026-05-02T09:14:58.519Z</time></trkpt><trkpt lat="43.6199148" lon="2.3977195"><ele>614.0</ele><time>2026-05-02T09:14:59.518Z</time></trkpt><trkpt lat="43.6200265" lon="2.3977235"><ele>614.0</ele><time>2026-05-02T09:15:00.521Z</time></trkpt><trkpt lat="43.6201214" lon="2.3977681"><ele>614.0</ele><time>2026-05-02T09:15:01.52Z</time></trkpt><trkpt lat="43.6202263" lon="2.397817"><ele>614.0</ele><time>2026-05-02T09:15:02.52Z</time></trkpt><trkpt lat="43.6203014" lon="2.3979344"><ele>615.6</ele><time>2026-05-02T09:15:03.52Z</time></trkpt><trkpt lat="43.6203687" lon="2.3980486"><ele>617.2</ele><time>2026-05-02T09:15:04.521Z</time></trkpt><trkpt lat="43.6204232" lon="2.3981965"><ele>618.8000000000001</ele><time>2026-05-02T09:15:05.521Z</time></trkpt><trkpt lat="43.6204737" lon="2.3983263"><ele>620.4</ele><time>2026-05-02T09:15:06.52Z</time></trkpt><trkpt lat="43.6205009" lon="2.3984738"><ele>622.0</ele><time>2026-05-02T09:15:07.52Z</time></trkpt><trkpt lat="43.6205614" lon="2.3985909"><ele>622.0</ele><time>2026-05-02T09:15:08.519Z</time></trkpt><trkpt lat="43.6206506" lon="2.3986529"><ele>622.0</ele><time>2026-05-02T09:15:09.52Z</time></trkpt><trkpt lat="43.620745" lon="2.3986756"><ele>622.0</ele><time>2026-05-02T09:15:10.52Z</time></trkpt><trkpt lat="43.6208474" lon="2.3986341"><ele>622.0</ele><time>2026-05-02T09:15:11.519Z</time></trkpt><trkpt lat="43.6209575" lon="2.3985838"><ele>622.0</ele><time>2026-05-02T09:15:12.52Z</time></trkpt><trkpt lat="43.621063" lon="2.3985138"><ele>624.5</ele><time>2026-05-02T09:15:13.518Z</time></trkpt><trkpt lat="43.6211866" lon="2.3984158"><ele>627.0</ele><time>2026-05-02T09:15:14.52Z</time></trkpt><trkpt lat="43.6212913" lon="2.3982988"><ele>629.5</ele><time>2026-05-02T09:15:15.52Z</time></trkpt><trkpt lat="43.6213993" lon="2.3981716"><ele>632.0</ele><time>2026-05-02T09:15:16.519Z</time></trkpt><trkpt lat="43.6214996" lon="2.3980441"><ele>632.0</ele><time>2026-05-02T09:15:17.519Z</time></trkpt><trkpt lat="43.6215966" lon="2.3979746"><ele>632.0</ele><time>2026-05-02T09:15:18.519Z</time></trkpt><trkpt lat="43.6216966" lon="2.3979166"><ele>632.0</ele><time>2026-05-02T09:15:19.52Z</time></trkpt><trkpt lat="43.6217969" lon="2.3979288"><ele>632.0</ele><time>2026-05-02T09:15:20.52Z</time></trkpt><trkpt lat="43.6219002" lon="2.3979484"><ele>632.0</ele><time>2026-05-02T09:15:21.519Z</time></trkpt><trkpt lat="43.6219956" lon="2.3980214"><ele>632.0</ele><time>2026-05-02T09:15:22.519Z</time></trkpt><trkpt lat="43.6220736" lon="2.3981601"><ele>632.0</ele><time>2026-05-02T09:15:23.52Z</time></trkpt><trkpt lat="43.6221501" lon="2.3982731"><ele>632.0</ele><time>2026-05-02T09:15:24.52Z</time></trkpt><trkpt lat="43.6222136" lon="2.3984122"><ele>632.0</ele><time>2026-05-02T09:15:25.518Z</time></trkpt><trkpt lat="43.6222633" lon="2.398535"><ele>632.0</ele><time>2026-05-02T09:15:26.521Z</time></trkpt><trkpt lat="43.6223101" lon="2.3986753"><ele>632.0</ele><time>2026-05-02T09:15:27.518Z</time></trkpt><trkpt lat="43.6223381" lon="2.3988062"><ele>632.0</ele><time>2026-05-02T09:15:28.521Z</time></trkpt><trkpt lat="43.6223777" lon="2.3989395"><ele>632.0</ele><time>2026-05-02T09:15:29.52Z</time></trkpt><trkpt lat="43.6224093" lon="2.399056"><ele>632.0</ele><time>2026-05-02T09:15:30.521Z</time></trkpt><trkpt lat="43.622454" lon="2.3991609"><ele>633.0</ele><time>2026-05-02T09:15:31.519Z</time></trkpt><trkpt lat="43.6224909" lon="2.3992683"><ele>634.0</ele><time>2026-05-02T09:15:32.52Z</time></trkpt><trkpt lat="43.6225254" lon="2.3993679"><ele>635.0</ele><time>2026-05-02T09:15:33.52Z</time></trkpt><trkpt lat="43.6225421" lon="2.3995015"><ele>636.0</ele><time>2026-05-02T09:15:34.521Z</time></trkpt><trkpt lat="43.6225494" lon="2.3996529"><ele>637.0</ele><time>2026-05-02T09:15:35.519Z</time></trkpt><trkpt lat="43.6225753" lon="2.399804"><ele>637.4</ele><time>2026-05-02T09:15:36.519Z</time></trkpt><trkpt lat="43.6226022" lon="2.3999378"><ele>637.8000000000001</ele><time>2026-05-02T09:15:37.52Z</time></trkpt><trkpt lat="43.6226462" lon="2.4000807"><ele>638.2</ele><time>2026-05-02T09:15:38.52Z</time></trkpt><trkpt lat="43.6226817" lon="2.400199"><ele>638.6</ele><time>2026-05-02T09:15:39.519Z</time></trkpt><trkpt lat="43.6227436" lon="2.4003095"><ele>639.0</ele><time>2026-05-02T09:15:40.52Z</time></trkpt><trkpt lat="43.6228103" lon="2.4004198"><ele>638.8</ele><time>2026-05-02T09:15:41.519Z</time></trkpt><trkpt lat="43.6228854" lon="2.4005314"><ele>638.5999999999999</ele><time>2026-05-02T09:15:42.519Z</time></trkpt><trkpt lat="43.6229437" lon="2.4006425"><ele>638.4</ele><time>2026-05-02T09:15:43.518Z</time></trkpt><trkpt lat="43.6230052" lon="2.4007487"><ele>638.1999999999999</ele><time>2026-05-02T09:15:44.52Z</time></trkpt><trkpt lat="43.6230613" lon="2.4008563"><ele>638.0</ele><time>2026-05-02T09:15:45.52Z</time></trkpt><trkpt lat="43.6231091" lon="2.4009545"><ele>638.0</ele><time>2026-05-02T09:15:46.52Z</time></trkpt><trkpt lat="43.6231415" lon="2.4010414"><ele>638.0</ele><time>2026-05-02T09:15:47.519Z</time></trkpt><trkpt lat="43.6231833" lon="2.4011808"><ele>638.0</ele><time>2026-05-02T09:15:49.52Z</time></trkpt><trkpt lat="43.6231984" lon="2.401308"><ele>638.0</ele><time>2026-05-02T09:15:51.519Z</time></trkpt><trkpt lat="43.6231596" lon="2.4014347"><ele>638.0</ele><time>2026-05-02T09:15:53.519Z</time></trkpt><trkpt lat="43.6231019" lon="2.4015077"><ele>638.4</ele><time>2026-05-02T09:15:54.52Z</time></trkpt><trkpt lat="43.6230479" lon="2.4015799"><ele>638.8</ele><time>2026-05-02T09:15:55.52Z</time></trkpt><trkpt lat="43.6229532" lon="2.4016274"><ele>639.2</ele><time>2026-05-02T09:15:56.521Z</time></trkpt><trkpt lat="43.6228616" lon="2.4016676"><ele>639.6</ele><time>2026-05-02T09:15:57.518Z</time></trkpt><trkpt lat="43.6227682" lon="2.401701"><ele>640.0</ele><time>2026-05-02T09:15:58.521Z</time></trkpt><trkpt lat="43.6226825" lon="2.4017373"><ele>640.2</ele><time>2026-05-02T09:15:59.52Z</time></trkpt><trkpt lat="43.6225993" lon="2.401792"><ele>640.4</ele><time>2026-05-02T09:16:00.519Z</time></trkpt><trkpt lat="43.6225226" lon="2.4018767"><ele>640.5999999999999</ele><time>2026-05-02T09:16:01.519Z</time></trkpt><trkpt lat="43.6224622" lon="2.4019779"><ele>640.8</ele><time>2026-05-02T09:16:02.52Z</time></trkpt><trkpt lat="43.6224003" lon="2.4020816"><ele>641.0</ele><time>2026-05-02T09:16:03.52Z</time></trkpt><trkpt lat="43.6223382" lon="2.4021703"><ele>641.5</ele><time>2026-05-02T09:16:04.519Z</time></trkpt><trkpt lat="43.6222862" lon="2.4022661"><ele>642.0</ele><time>2026-05-02T09:16:05.519Z</time></trkpt><trkpt lat="43.6222414" lon="2.4023731"><ele>642.5</ele><time>2026-05-02T09:16:06.52Z</time></trkpt><trkpt lat="43.6221946" lon="2.4024754"><ele>643.0</ele><time>2026-05-02T09:16:07.52Z</time></trkpt><trkpt lat="43.6221678" lon="2.4025918"><ele>643.5</ele><time>2026-05-02T09:16:08.518Z</time></trkpt><trkpt lat="43.622142" lon="2.4027186"><ele>644.0</ele><time>2026-05-02T09:16:09.52Z</time></trkpt><trkpt lat="43.6221266" lon="2.4028425"><ele>644.0</ele><time>2026-05-02T09:16:10.52Z</time></trkpt><trkpt lat="43.6221182" lon="2.4029707"><ele>644.0</ele><time>2026-05-02T09:16:11.518Z</time></trkpt><trkpt lat="43.6221118" lon="2.4030959"><ele>644.0</ele><time>2026-05-02T09:16:12.52Z</time></trkpt><trkpt lat="43.6220971" lon="2.4032123"><ele>644.0</ele><time>2026-05-02T09:16:13.518Z</time></trkpt><trkpt lat="43.6220878" lon="2.4033339"><ele>644.0</ele><time>2026-05-02T09:16:14.519Z</time></trkpt><trkpt lat="43.6220796" lon="2.4034485"><ele>644.0</ele><time>2026-05-02T09:16:15.52Z</time></trkpt><trkpt lat="43.622057" lon="2.4035661"><ele>644.2</ele><time>2026-05-02T09:16:16.52Z</time></trkpt><trkpt lat="43.6220353" lon="2.4036632"><ele>644.4000000000001</ele><time>2026-05-02T09:16:17.519Z</time></trkpt><trkpt lat="43.6220146" lon="2.403794"><ele>644.6</ele><time>2026-05-02T09:16:18.522Z</time></trkpt><trkpt lat="43.6219662" lon="2.4039066"><ele>644.8</ele><time>2026-05-02T09:16:19.52Z</time></trkpt><trkpt lat="43.6219237" lon="2.4040446"><ele>645.0</ele><time>2026-05-02T09:16:20.518Z</time></trkpt><trkpt lat="43.6218532" lon="2.4041621"><ele>645.4</ele><time>2026-05-02T09:16:21.52Z</time></trkpt><trkpt lat="43.6218228" lon="2.4042995"><ele>645.8</ele><time>2026-05-02T09:16:22.52Z</time></trkpt><trkpt lat="43.6217546" lon="2.4043864"><ele>646.2</ele><time>2026-05-02T09:16:23.52Z</time></trkpt><trkpt lat="43.6217132" lon="2.404504"><ele>646.6</ele><time>2026-05-02T09:16:24.519Z</time></trkpt><trkpt lat="43.6216548" lon="2.4046237"><ele>647.0</ele><time>2026-05-02T09:16:25.519Z</time></trkpt><trkpt lat="43.6215754" lon="2.4047388"><ele>647.75</ele><time>2026-05-02T09:16:26.519Z</time></trkpt><trkpt lat="43.6215104" lon="2.4048638"><ele>648.5</ele><time>2026-05-02T09:16:27.519Z</time></trkpt><trkpt lat="43.6214338" lon="2.4049851"><ele>649.25</ele><time>2026-05-02T09:16:28.52Z</time></trkpt><trkpt lat="43.6213435" lon="2.4051253"><ele>650.0</ele><time>2026-05-02T09:16:29.52Z</time></trkpt><trkpt lat="43.6212676" lon="2.4052483"><ele>650.0</ele><time>2026-05-02T09:16:30.52Z</time></trkpt><trkpt lat="43.6212001" lon="2.4053545"><ele>650.0</ele><time>2026-05-02T09:16:31.519Z</time></trkpt><trkpt lat="43.621153" lon="2.4054436"><ele>650.0</ele><time>2026-05-02T09:16:32.519Z</time></trkpt><trkpt lat="43.621077" lon="2.4055053"><ele>650.0</ele><time>2026-05-02T09:16:33.519Z</time></trkpt><trkpt lat="43.6209915" lon="2.4055237"><ele>650.0</ele><time>2026-05-02T09:16:34.52Z</time></trkpt><trkpt lat="43.6209059" lon="2.40552"><ele>650.0</ele><time>2026-05-02T09:16:35.519Z</time></trkpt><trkpt lat="43.6208243" lon="2.4054734"><ele>651.0</ele><time>2026-05-02T09:16:36.519Z</time></trkpt><trkpt lat="43.6207367" lon="2.4054346"><ele>652.0</ele><time>2026-05-02T09:16:37.52Z</time></trkpt><trkpt lat="43.6206497" lon="2.4054145"><ele>653.0</ele><time>2026-05-02T09:16:38.519Z</time></trkpt><trkpt lat="43.6205678" lon="2.4054504"><ele>654.0</ele><time>2026-05-02T09:16:39.52Z</time></trkpt><trkpt lat="43.6204674" lon="2.4054843"><ele>655.0</ele><time>2026-05-02T09:16:40.519Z</time></trkpt><trkpt lat="43.6203644" lon="2.4055269"><ele>656.75</ele><time>2026-05-02T09:16:41.519Z</time></trkpt><trkpt lat="43.6202636" lon="2.405569"><ele>658.5</ele><time>2026-05-02T09:16:42.519Z</time></trkpt><trkpt lat="43.6201502" lon="2.4056187"><ele>660.25</ele><time>2026-05-02T09:16:43.518Z</time></trkpt><trkpt lat="43.6200542" lon="2.4056896"><ele>662.0</ele><time>2026-05-02T09:16:44.52Z</time></trkpt><trkpt lat="43.6199687" lon="2.4058143"><ele>662.0</ele><time>2026-05-02T09:16:45.519Z</time></trkpt><trkpt lat="43.6198638" lon="2.405903"><ele>662.0</ele><time>2026-05-02T09:16:46.519Z</time></trkpt><trkpt lat="43.6197701" lon="2.4059877"><ele>662.0</ele><time>2026-05-02T09:16:47.519Z</time></trkpt><trkpt lat="43.6197032" lon="2.4060669"><ele>662.0</ele><time>2026-05-02T09:16:48.52Z</time></trkpt><trkpt lat="43.6196194" lon="2.4061378"><ele>662.0</ele><time>2026-05-02T09:16:49.52Z</time></trkpt><trkpt lat="43.6195275" lon="2.406191"><ele>662.0</ele><time>2026-05-02T09:16:50.52Z</time></trkpt><trkpt lat="43.6194287" lon="2.4062385"><ele>662.0</ele><time>2026-05-02T09:16:51.518Z</time></trkpt><trkpt lat="43.6193353" lon="2.4062801"><ele>662.0</ele><time>2026-05-02T09:16:52.52Z</time></trkpt><trkpt lat="43.6192388" lon="2.4063"><ele>662.0</ele><time>2026-05-02T09:16:53.519Z</time></trkpt><trkpt lat="43.6191487" lon="2.4063218"><ele>662.0</ele><time>2026-05-02T09:16:54.52Z</time></trkpt><trkpt lat="43.6190669" lon="2.4063649"><ele>662.0</ele><time>2026-05-02T09:16:55.519Z</time></trkpt><trkpt lat="43.6189996" lon="2.4064198"><ele>662.0</ele><time>2026-05-02T09:16:56.52Z</time></trkpt><trkpt lat="43.618928" lon="2.4065213"><ele>662.0</ele><time>2026-05-02T09:16:57.521Z</time></trkpt><trkpt lat="43.6188548" lon="2.4066062"><ele>662.0</ele><time>2026-05-02T09:16:58.521Z</time></trkpt><trkpt lat="43.6187984" lon="2.4067196"><ele>662.0</ele><time>2026-05-02T09:16:59.518Z</time></trkpt><trkpt lat="43.6187242" lon="2.4068114"><ele>662.0</ele><time>2026-05-02T09:17:00.519Z</time></trkpt><trkpt lat="43.6186594" lon="2.4069404"><ele>662.0</ele><time>2026-05-02T09:17:01.519Z</time></trkpt><trkpt lat="43.6185733" lon="2.407018"><ele>662.0</ele><time>2026-05-02T09:17:02.519Z</time></trkpt><trkpt lat="43.6184917" lon="2.4071084"><ele>662.0</ele><time>2026-05-02T09:17:03.52Z</time></trkpt><trkpt lat="43.6184077" lon="2.40717"><ele>662.0</ele><time>2026-05-02T09:17:04.52Z</time></trkpt><trkpt lat="43.6183217" lon="2.4072397"><ele>660.4000000000001</ele><time>2026-05-02T09:17:05.52Z</time></trkpt><trkpt lat="43.6182276" lon="2.4073071"><ele>658.8000000000001</ele><time>2026-05-02T09:17:06.519Z</time></trkpt><trkpt lat="43.61814" lon="2.407382"><ele>657.2</ele><time>2026-05-02T09:17:07.52Z</time></trkpt><trkpt lat="43.6180473" lon="2.4074478"><ele>655.6</ele><time>2026-05-02T09:17:08.518Z</time></trkpt><trkpt lat="43.6179566" lon="2.4074985"><ele>654.0</ele><time>2026-05-02T09:17:09.519Z</time></trkpt><trkpt lat="43.6178722" lon="2.4075656"><ele>653.8000000000001</ele><time>2026-05-02T09:17:10.52Z</time></trkpt><trkpt lat="43.61778" lon="2.4076302"><ele>653.6</ele><time>2026-05-02T09:17:11.519Z</time></trkpt><trkpt lat="43.6176865" lon="2.4077075"><ele>653.4</ele><time>2026-05-02T09:17:12.519Z</time></trkpt><trkpt lat="43.6176183" lon="2.4077715"><ele>653.2</ele><time>2026-05-02T09:17:13.518Z</time></trkpt><trkpt lat="43.6175673" lon="2.4078762"><ele>653.0</ele><time>2026-05-02T09:17:14.52Z</time></trkpt><trkpt lat="43.6175285" lon="2.4079842"><ele>651.8333333333333</ele><time>2026-05-02T09:17:15.519Z</time></trkpt><trkpt lat="43.617484" lon="2.4080866"><ele>650.6666666666666</ele><time>2026-05-02T09:17:16.518Z</time></trkpt><trkpt lat="43.6174395" lon="2.4081983"><ele>649.5</ele><time>2026-05-02T09:17:17.519Z</time></trkpt><trkpt lat="43.6173963" lon="2.4082709"><ele>648.3333333333334</ele><time>2026-05-02T09:17:18.518Z</time></trkpt><trkpt lat="43.6173485" lon="2.4083442"><ele>647.1666666666667</ele><time>2026-05-02T09:17:19.519Z</time></trkpt><trkpt lat="43.6173026" lon="2.4084516"><ele>646.0</ele><time>2026-05-02T09:17:20.518Z</time></trkpt><trkpt lat="43.6172542" lon="2.4085491"><ele>646.0</ele><time>2026-05-02T09:17:21.519Z</time></trkpt><trkpt lat="43.6171905" lon="2.4086395"><ele>646.0</ele><time>2026-05-02T09:17:22.52Z</time></trkpt><trkpt lat="43.6171193" lon="2.4087268"><ele>646.0</ele><time>2026-05-02T09:17:23.519Z</time></trkpt><trkpt lat="43.6170262" lon="2.4087999"><ele>646.0</ele><time>2026-05-02T09:17:24.519Z</time></trkpt><trkpt lat="43.6169379" lon="2.408855"><ele>646.0</ele><time>2026-05-02T09:17:25.518Z</time></trkpt><trkpt lat="43.6168505" lon="2.4089337"><ele>644.8</ele><time>2026-05-02T09:17:26.519Z</time></trkpt><trkpt lat="43.6167641" lon="2.4090205"><ele>643.5999999999999</ele><time>2026-05-02T09:17:27.518Z</time></trkpt><trkpt lat="43.6166793" lon="2.4090722"><ele>642.4</ele><time>2026-05-02T09:17:28.52Z</time></trkpt><trkpt lat="43.6166103" lon="2.4091374"><ele>641.2</ele><time>2026-05-02T09:17:29.519Z</time></trkpt><trkpt lat="43.61652" lon="2.4092515"><ele>640.0</ele><time>2026-05-02T09:17:31.519Z</time></trkpt><trkpt lat="43.6165054" lon="2.409352"><ele>640.0</ele><time>2026-05-02T09:17:33.52Z</time></trkpt><trkpt lat="43.6165165" lon="2.4094426"><ele>640.0</ele><time>2026-05-02T09:17:52.52Z</time></trkpt><trkpt lat="43.6165697" lon="2.4094979"><ele>640.0</ele><time>2026-05-02T09:17:54.519Z</time></trkpt><trkpt lat="43.6166381" lon="2.4095017"><ele>640.0</ele><time>2026-05-02T09:17:55.519Z</time></trkpt><trkpt lat="43.6167218" lon="2.4094944"><ele>640.0</ele><time>2026-05-02T09:17:56.52Z</time></trkpt><trkpt lat="43.6168336" lon="2.409496"><ele>640.0</ele><time>2026-05-02T09:17:57.52Z</time></trkpt><trkpt lat="43.6169466" lon="2.4094936"><ele>639.25</ele><time>2026-05-02T09:17:58.518Z</time></trkpt><trkpt lat="43.6170531" lon="2.4094663"><ele>638.5</ele><time>2026-05-02T09:17:59.518Z</time></trkpt><trkpt lat="43.6171766" lon="2.4094005"><ele>637.75</ele><time>2026-05-02T09:18:00.519Z</time></trkpt><trkpt lat="43.6172897" lon="2.4093269"><ele>637.0</ele><time>2026-05-02T09:18:01.518Z</time></trkpt><trkpt lat="43.6174135" lon="2.4092182"><ele>637.0</ele><time>2026-05-02T09:18:02.519Z</time></trkpt><trkpt lat="43.6175136" lon="2.4090693"><ele>637.0</ele><time>2026-05-02T09:18:03.519Z</time></trkpt><trkpt lat="43.6176249" lon="2.4089676"><ele>637.0</ele><time>2026-05-02T09:18:04.519Z</time></trkpt><trkpt lat="43.6177331" lon="2.4088745"><ele>637.0</ele><time>2026-05-02T09:18:05.519Z</time></trkpt><trkpt lat="43.6178507" lon="2.4088052"><ele>637.75</ele><time>2026-05-02T09:18:06.519Z</time></trkpt><trkpt lat="43.6179837" lon="2.4088322"><ele>638.5</ele><time>2026-05-02T09:18:07.52Z</time></trkpt><trkpt lat="43.6181191" lon="2.4088686"><ele>639.25</ele><time>2026-05-02T09:18:08.52Z</time></trkpt><trkpt lat="43.6182486" lon="2.4089231"><ele>640.0</ele><time>2026-05-02T09:18:09.519Z</time></trkpt><trkpt lat="43.6183613" lon="2.4090316"><ele>640.0</ele><time>2026-05-02T09:18:10.52Z</time></trkpt><trkpt lat="43.6184422" lon="2.4092147"><ele>640.0</ele><time>2026-05-02T09:18:11.519Z</time></trkpt><trkpt lat="43.6185201" lon="2.4093915"><ele>640.0</ele><time>2026-05-02T09:18:12.519Z</time></trkpt><trkpt lat="43.6185857" lon="2.4095917"><ele>637.3333333333334</ele><time>2026-05-02T09:18:13.518Z</time></trkpt><trkpt lat="43.6186413" lon="2.4097921"><ele>634.6666666666666</ele><time>2026-05-02T09:18:14.519Z</time></trkpt><trkpt lat="43.6187209" lon="2.4099786"><ele>632.0</ele><time>2026-05-02T09:18:15.518Z</time></trkpt><trkpt lat="43.618825" lon="2.41014"><ele>637.6666666666666</ele><time>2026-05-02T09:18:16.518Z</time></trkpt><trkpt lat="43.6189561" lon="2.4102818"><ele>643.3333333333334</ele><time>2026-05-02T09:18:17.519Z</time></trkpt><trkpt lat="43.619097" lon="2.4103886"><ele>649.0</ele><time>2026-05-02T09:18:18.52Z</time></trkpt><trkpt lat="43.6192542" lon="2.4103919"><ele>649.0</ele><time>2026-05-02T09:18:19.519Z</time></trkpt><trkpt lat="43.6194015" lon="2.4103633"><ele>649.0</ele><time>2026-05-02T09:18:20.519Z</time></trkpt><trkpt lat="43.6195497" lon="2.4102985"><ele>649.0</ele><time>2026-05-02T09:18:21.519Z</time></trkpt><trkpt lat="43.6196839" lon="2.4101896"><ele>649.0</ele><time>2026-05-02T09:18:22.519Z</time></trkpt><trkpt lat="43.6198146" lon="2.4100728"><ele>649.0</ele><time>2026-05-02T09:18:23.519Z</time></trkpt><trkpt lat="43.6199459" lon="2.4099469"><ele>649.0</ele><time>2026-05-02T09:18:24.519Z</time></trkpt><trkpt lat="43.6200738" lon="2.4098277"><ele>649.0</ele><time>2026-05-02T09:18:25.518Z</time></trkpt><trkpt lat="43.6202011" lon="2.4097412"><ele>649.0</ele><time>2026-05-02T09:18:26.519Z</time></trkpt><trkpt lat="43.6203308" lon="2.4097027"><ele>649.0</ele><time>2026-05-02T09:18:27.518Z</time></trkpt><trkpt lat="43.6204545" lon="2.4097029"><ele>649.0</ele><time>2026-05-02T09:18:28.518Z</time></trkpt><trkpt lat="43.6205809" lon="2.4097375"><ele>649.0</ele><time>2026-05-02T09:18:29.52Z</time></trkpt><trkpt lat="43.6206925" lon="2.4098362"><ele>649.0</ele><time>2026-05-02T09:18:30.52Z</time></trkpt><trkpt lat="43.6207456" lon="2.4100272"><ele>649.0</ele><time>2026-05-02T09:18:31.517Z</time></trkpt><trkpt lat="43.6208066" lon="2.4101876"><ele>649.0</ele><time>2026-05-02T09:18:32.518Z</time></trkpt><trkpt lat="43.6208327" lon="2.4103957"><ele>647.2</ele><time>2026-05-02T09:18:33.518Z</time></trkpt><trkpt lat="43.6208778" lon="2.4105746"><ele>645.4000000000001</ele><time>2026-05-02T09:18:34.518Z</time></trkpt><trkpt lat="43.6209223" lon="2.4107101"><ele>643.6</ele><time>2026-05-02T09:18:35.519Z</time></trkpt><trkpt lat="43.6209969" lon="2.4108014"><ele>641.8</ele><time>2026-05-02T09:18:36.517Z</time></trkpt><trkpt lat="43.6210904" lon="2.4108567"><ele>640.0</ele><time>2026-05-02T09:18:37.519Z</time></trkpt><trkpt lat="43.6211945" lon="2.4108559"><ele>640.0</ele><time>2026-05-02T09:18:38.518Z</time></trkpt><trkpt lat="43.6212999" lon="2.410829"><ele>640.0</ele><time>2026-05-02T09:18:39.519Z</time></trkpt><trkpt lat="43.6214152" lon="2.4107373"><ele>640.0</ele><time>2026-05-02T09:18:40.518Z</time></trkpt><trkpt lat="43.6215323" lon="2.4106329"><ele>640.0</ele><time>2026-05-02T09:18:41.518Z</time></trkpt><trkpt lat="43.6216484" lon="2.4104997"><ele>641.0</ele><time>2026-05-02T09:18:42.52Z</time></trkpt><trkpt lat="43.6217634" lon="2.4103723"><ele>642.0</ele><time>2026-05-02T09:18:43.519Z</time></trkpt><trkpt lat="43.6218823" lon="2.4102351"><ele>643.0</ele><time>2026-05-02T09:18:44.518Z</time></trkpt><trkpt lat="43.622022" lon="2.4101062"><ele>643.0</ele><time>2026-05-02T09:18:45.518Z</time></trkpt><trkpt lat="43.6221631" lon="2.4099899"><ele>643.0</ele><time>2026-05-02T09:18:46.518Z</time></trkpt><trkpt lat="43.6223204" lon="2.4098655"><ele>643.0</ele><time>2026-05-02T09:18:47.518Z</time></trkpt><trkpt lat="43.6224764" lon="2.4097484"><ele>644.0</ele><time>2026-05-02T09:18:48.52Z</time></trkpt><trkpt lat="43.622633" lon="2.4096297"><ele>645.0</ele><time>2026-05-02T09:18:49.52Z</time></trkpt><trkpt lat="43.6227816" lon="2.4095241"><ele>646.0</ele><time>2026-05-02T09:18:50.518Z</time></trkpt><trkpt lat="43.6229262" lon="2.4094079"><ele>646.0</ele><time>2026-05-02T09:18:51.518Z</time></trkpt><trkpt lat="43.6230629" lon="2.4093043"><ele>646.0</ele><time>2026-05-02T09:18:52.518Z</time></trkpt><trkpt lat="43.6231988" lon="2.4092196"><ele>646.0</ele><time>2026-05-02T09:18:53.519Z</time></trkpt><trkpt lat="43.6233364" lon="2.4091716"><ele>646.0</ele><time>2026-05-02T09:18:54.52Z</time></trkpt><trkpt lat="43.6234698" lon="2.4091621"><ele>646.0</ele><time>2026-05-02T09:18:55.52Z</time></trkpt><trkpt lat="43.6236043" lon="2.4091551"><ele>646.0</ele><time>2026-05-02T09:18:56.52Z</time></trkpt><trkpt lat="43.623732" lon="2.4091352"><ele>646.0</ele><time>2026-05-02T09:18:57.519Z</time></trkpt><trkpt lat="43.6238583" lon="2.4090814"><ele>646.0</ele><time>2026-05-02T09:18:58.519Z</time></trkpt><trkpt lat="43.6239776" lon="2.4090071"><ele>645.5</ele><time>2026-05-02T09:18:59.52Z</time></trkpt><trkpt lat="43.6240923" lon="2.4089218"><ele>645.0</ele><time>2026-05-02T09:19:00.519Z</time></trkpt><trkpt lat="43.6241986" lon="2.4088318"><ele>644.5</ele><time>2026-05-02T09:19:01.518Z</time></trkpt><trkpt lat="43.6243069" lon="2.4087359"><ele>644.0</ele><time>2026-05-02T09:19:02.518Z</time></trkpt><trkpt lat="43.6244065" lon="2.4086601"><ele>645.5</ele><time>2026-05-02T09:19:03.519Z</time></trkpt><trkpt lat="43.6245135" lon="2.4086072"><ele>647.0</ele><time>2026-05-02T09:19:04.518Z</time></trkpt><trkpt lat="43.6246358" lon="2.4085771"><ele>648.5</ele><time>2026-05-02T09:19:05.519Z</time></trkpt><trkpt lat="43.6247515" lon="2.4085771"><ele>650.0</ele><time>2026-05-02T09:19:06.518Z</time></trkpt><trkpt lat="43.6248697" lon="2.4085887"><ele>650.0</ele><time>2026-05-02T09:19:07.52Z</time></trkpt><trkpt lat="43.6249781" lon="2.4086739"><ele>650.0</ele><time>2026-05-02T09:19:08.518Z</time></trkpt><trkpt lat="43.6250807" lon="2.4087721"><ele>650.0</ele><time>2026-05-02T09:19:09.518Z</time></trkpt><trkpt lat="43.625179" lon="2.4088877"><ele>650.0</ele><time>2026-05-02T09:19:10.519Z</time></trkpt><trkpt lat="43.6252724" lon="2.409014"><ele>650.5</ele><time>2026-05-02T09:19:11.517Z</time></trkpt><trkpt lat="43.6253769" lon="2.409131"><ele>651.0</ele><time>2026-05-02T09:19:12.518Z</time></trkpt><trkpt lat="43.6254776" lon="2.4092212"><ele>651.5</ele><time>2026-05-02T09:19:13.519Z</time></trkpt><trkpt lat="43.6255945" lon="2.4093146"><ele>652.0</ele><time>2026-05-02T09:19:14.519Z</time></trkpt><trkpt lat="43.6257074" lon="2.409374"><ele>652.0</ele><time>2026-05-02T09:19:15.52Z</time></trkpt><trkpt lat="43.6258228" lon="2.4094459"><ele>652.0</ele><time>2026-05-02T09:19:16.519Z</time></trkpt><trkpt lat="43.6259368" lon="2.4095136"><ele>652.0</ele><time>2026-05-02T09:19:17.52Z</time></trkpt><trkpt lat="43.6260525" lon="2.4095898"><ele>652.0</ele><time>2026-05-02T09:19:18.517Z</time></trkpt><trkpt lat="43.62617" lon="2.4096641"><ele>651.5</ele><time>2026-05-02T09:19:19.519Z</time></trkpt><trkpt lat="43.6262898" lon="2.4097232"><ele>651.0</ele><time>2026-05-02T09:19:20.519Z</time></trkpt><trkpt lat="43.626409" lon="2.4097751"><ele>650.5</ele><time>2026-05-02T09:19:21.519Z</time></trkpt><trkpt lat="43.626523" lon="2.4098253"><ele>650.0</ele><time>2026-05-02T09:19:22.518Z</time></trkpt><trkpt lat="43.6266423" lon="2.4098779"><ele>650.0</ele><time>2026-05-02T09:19:23.519Z</time></trkpt><trkpt lat="43.6267576" lon="2.409935"><ele>650.0</ele><time>2026-05-02T09:19:24.52Z</time></trkpt><trkpt lat="43.6268711" lon="2.4099931"><ele>650.0</ele><time>2026-05-02T09:19:25.517Z</time></trkpt><trkpt lat="43.6269715" lon="2.4100695"><ele>650.0</ele><time>2026-05-02T09:19:26.519Z</time></trkpt><trkpt lat="43.6270745" lon="2.4101456"><ele>651.3333333333333</ele><time>2026-05-02T09:19:27.519Z</time></trkpt><trkpt lat="43.6271566" lon="2.4102095"><ele>652.6666666666666</ele><time>2026-05-02T09:19:28.519Z</time></trkpt><trkpt lat="43.627237" lon="2.410266"><ele>654.0</ele><time>2026-05-02T09:19:29.517Z</time></trkpt><trkpt lat="43.6273011" lon="2.410317"><ele>655.3333333333334</ele><time>2026-05-02T09:19:30.519Z</time></trkpt><trkpt lat="43.6273646" lon="2.4103443"><ele>656.6666666666667</ele><time>2026-05-02T09:19:31.52Z</time></trkpt><trkpt lat="43.6274255" lon="2.4103908"><ele>658.0</ele><time>2026-05-02T09:19:32.517Z</time></trkpt><trkpt lat="43.6274635" lon="2.4104714"><ele>656.4</ele><time>2026-05-02T09:19:34.518Z</time></trkpt><trkpt lat="43.6274413" lon="2.4106126"><ele>654.8</ele><time>2026-05-02T09:19:36.517Z</time></trkpt><trkpt lat="43.6274047" lon="2.4107651"><ele>653.2</ele><time>2026-05-02T09:19:38.518Z</time></trkpt><trkpt lat="43.6273662" lon="2.4109239"><ele>651.6</ele><time>2026-05-02T09:19:40.519Z</time></trkpt><trkpt lat="43.6273569" lon="2.4110365"><ele>650.0</ele><time>2026-05-02T09:19:41.52Z</time></trkpt><trkpt lat="43.6273579" lon="2.4111467"><ele>650.0</ele><time>2026-05-02T09:19:42.519Z</time></trkpt><trkpt lat="43.6273311" lon="2.4112379"><ele>650.0</ele><time>2026-05-02T09:19:43.518Z</time></trkpt><trkpt lat="43.6273011" lon="2.4113195"><ele>650.0</ele><time>2026-05-02T09:19:44.52Z</time></trkpt><trkpt lat="43.627234" lon="2.4114557"><ele>650.0</ele><time>2026-05-02T09:19:46.518Z</time></trkpt><trkpt lat="43.6271466" lon="2.4116327"><ele>650.0</ele><time>2026-05-02T09:19:48.519Z</time></trkpt><trkpt lat="43.6270992" lon="2.4117107"><ele>650.2</ele><time>2026-05-02T09:19:49.518Z</time></trkpt><trkpt lat="43.627063" lon="2.4118084"><ele>650.4</ele><time>2026-05-02T09:19:50.518Z</time></trkpt><trkpt lat="43.6269782" lon="2.4119376"><ele>650.5999999999999</ele><time>2026-05-02T09:19:52.518Z</time></trkpt><trkpt lat="43.6269138" lon="2.4119575"><ele>650.8</ele><time>2026-05-02T09:19:53.518Z</time></trkpt><trkpt lat="43.6267831" lon="2.4119192"><ele>651.0</ele><time>2026-05-02T09:19:55.52Z</time></trkpt><trkpt lat="43.62665" lon="2.4118806"><ele>650.3333333333334</ele><time>2026-05-02T09:19:57.52Z</time></trkpt><trkpt lat="43.6265821" lon="2.4118995"><ele>649.6666666666666</ele><time>2026-05-02T09:19:58.518Z</time></trkpt><trkpt lat="43.6264754" lon="2.4119132"><ele>649.0</ele><time>2026-05-02T09:19:59.519Z</time></trkpt><trkpt lat="43.6263979" lon="2.4119198"><ele>648.3333333333333</ele><time>2026-05-02T09:20:00.519Z</time></trkpt><trkpt lat="43.6263258" lon="2.4119359"><ele>647.6666666666666</ele><time>2026-05-02T09:20:01.518Z</time></trkpt><trkpt lat="43.6262419" lon="2.411976"><ele>647.0</ele><time>2026-05-02T09:20:02.519Z</time></trkpt><trkpt lat="43.626155" lon="2.4120287"><ele>647.4000000000001</ele><time>2026-05-02T09:20:03.518Z</time></trkpt><trkpt lat="43.6260758" lon="2.412051"><ele>647.8000000000001</ele><time>2026-05-02T09:20:04.517Z</time></trkpt><trkpt lat="43.6260052" lon="2.4120577"><ele>648.2</ele><time>2026-05-02T09:20:05.518Z</time></trkpt><trkpt lat="43.6259388" lon="2.4121028"><ele>648.6</ele><time>2026-05-02T09:20:06.518Z</time></trkpt><trkpt lat="43.6258494" lon="2.4121773"><ele>649.0</ele><time>2026-05-02T09:20:08.518Z</time></trkpt><trkpt lat="43.6257396" lon="2.412261"><ele>648.9999999999999</ele><time>2026-05-02T09:20:10.519Z</time></trkpt><trkpt lat="43.6256778" lon="2.4123245"><ele>649.0</ele><time>2026-05-02T09:20:11.518Z</time></trkpt><trkpt lat="43.6256275" lon="2.4123943"><ele>649.0</ele><time>2026-05-02T09:20:12.518Z</time></trkpt><trkpt lat="43.6255879" lon="2.4124751"><ele>649.0</ele><time>2026-05-02T09:20:13.518Z</time></trkpt><trkpt lat="43.6255377" lon="2.4125493"><ele>649.0</ele><time>2026-05-02T09:20:14.518Z</time></trkpt><trkpt lat="43.6254863" lon="2.4126146"><ele>648.9999999999999</ele><time>2026-05-02T09:20:15.518Z</time></trkpt><trkpt lat="43.6254378" lon="2.4126763"><ele>649.0</ele><time>2026-05-02T09:20:16.518Z</time></trkpt><trkpt lat="43.6253882" lon="2.4127445"><ele>649.0</ele><time>2026-05-02T09:20:17.52Z</time></trkpt><trkpt lat="43.6253232" lon="2.4128592"><ele>649.0</ele><time>2026-05-02T09:20:19.519Z</time></trkpt><trkpt lat="43.6252725" lon="2.4129469"><ele>649.0</ele><time>2026-05-02T09:20:22.519Z</time></trkpt><trkpt lat="43.6252427" lon="2.4130444"><ele>649.0</ele><time>2026-05-02T09:20:26.52Z</time></trkpt><trkpt lat="43.6251685" lon="2.4130802"><ele>649.0</ele><time>2026-05-02T09:20:35.519Z</time></trkpt><trkpt lat="43.625068" lon="2.4131064"><ele>649.0</ele><time>2026-05-02T09:20:37.518Z</time></trkpt><trkpt lat="43.6249428" lon="2.4131007"><ele>647.6</ele><time>2026-05-02T09:20:39.517Z</time></trkpt><trkpt lat="43.6248743" lon="2.4130897"><ele>646.2</ele><time>2026-05-02T09:20:40.517Z</time></trkpt><trkpt lat="43.62478" lon="2.4131321"><ele>644.8000000000001</ele><time>2026-05-02T09:20:41.517Z</time></trkpt><trkpt lat="43.62466" lon="2.41314"><ele>643.4000000000001</ele><time>2026-05-02T09:20:43.519Z</time></trkpt><trkpt lat="43.6245467" lon="2.4131985"><ele>642.0</ele><time>2026-05-02T09:20:45.518Z</time></trkpt><trkpt lat="43.6244797" lon="2.4132579"><ele>640.8333333333334</ele><time>2026-05-02T09:20:46.52Z</time></trkpt><trkpt lat="43.6244214" lon="2.4133018"><ele>639.6666666666666</ele><time>2026-05-02T09:20:47.519Z</time></trkpt><trkpt lat="43.6243538" lon="2.4133818"><ele>638.5</ele><time>2026-05-02T09:20:49.518Z</time></trkpt><trkpt lat="43.6243321" lon="2.4134747"><ele>637.3333333333333</ele><time>2026-05-02T09:20:52.518Z</time></trkpt><trkpt lat="43.6242914" lon="2.4135547"><ele>636.1666666666666</ele><time>2026-05-02T09:21:00.519Z</time></trkpt><trkpt lat="43.6242567" lon="2.4136854"><ele>635.0</ele><time>2026-05-02T09:21:02.519Z</time></trkpt><trkpt lat="43.624244" lon="2.413819"><ele>634.6666666666666</ele><time>2026-05-02T09:21:04.519Z</time></trkpt><trkpt lat="43.6241745" lon="2.4139016"><ele>634.3333333333333</ele><time>2026-05-02T09:21:06.518Z</time></trkpt><trkpt lat="43.624134" lon="2.4140281"><ele>634.0</ele><time>2026-05-02T09:21:08.519Z</time></trkpt><trkpt lat="43.6240807" lon="2.4140835"><ele>633.6666666666666</ele><time>2026-05-02T09:21:10.518Z</time></trkpt><trkpt lat="43.6240586" lon="2.4141692"><ele>633.3333333333334</ele><time>2026-05-02T09:21:26.518Z</time></trkpt><trkpt lat="43.6240904" lon="2.4140832"><ele>633.0</ele><time>2026-05-02T09:22:02.518Z</time></trkpt><trkpt lat="43.6241507" lon="2.4139818"><ele>633.0</ele><time>2026-05-02T09:22:04.516Z</time></trkpt><trkpt lat="43.6241957" lon="2.4139177"><ele>633.0</ele><time>2026-05-02T09:22:06.518Z</time></trkpt><trkpt lat="43.6242172" lon="2.413789"><ele>633.0</ele><time>2026-05-02T09:22:08.517Z</time></trkpt><trkpt lat="43.6242548" lon="2.4136595"><ele>633.0</ele><time>2026-05-02T09:22:10.518Z</time></trkpt><trkpt lat="43.6242864" lon="2.4135285"><ele>633.0</ele><time>2026-05-02T09:22:12.519Z</time></trkpt><trkpt lat="43.6243284" lon="2.4134341"><ele>633.0</ele><time>2026-05-02T09:22:14.517Z</time></trkpt><trkpt lat="43.6244157" lon="2.4133502"><ele>633.4</ele><time>2026-05-02T09:22:16.517Z</time></trkpt><trkpt lat="43.62447" lon="2.4132489"><ele>633.8</ele><time>2026-05-02T09:22:18.518Z</time></trkpt><trkpt lat="43.6245335" lon="2.4131866"><ele>634.2</ele><time>2026-05-02T09:22:20.517Z</time></trkpt><trkpt lat="43.624613" lon="2.413224"><ele>634.6</ele><time>2026-05-02T09:22:24.518Z</time></trkpt><trkpt lat="43.6247142" lon="2.4133305"><ele>635.0</ele><time>2026-05-02T09:22:26.518Z</time></trkpt><trkpt lat="43.6247696" lon="2.4134193"><ele>636.1666666666666</ele><time>2026-05-02T09:22:27.518Z</time></trkpt><trkpt lat="43.6248179" lon="2.4134857"><ele>637.3333333333333</ele><time>2026-05-02T09:22:28.519Z</time></trkpt><trkpt lat="43.6248654" lon="2.4135544"><ele>638.5</ele><time>2026-05-02T09:22:30.518Z</time></trkpt><trkpt lat="43.6249041" lon="2.4136423"><ele>639.6666666666666</ele><time>2026-05-02T09:22:35.518Z</time></trkpt><trkpt lat="43.6249354" lon="2.4137348"><ele>640.8333333333334</ele><time>2026-05-02T09:22:47.519Z</time></trkpt><trkpt lat="43.6249399" lon="2.4138573"><ele>642.0</ele><time>2026-05-02T09:22:50.518Z</time></trkpt><trkpt lat="43.6249011" lon="2.4139786"><ele>642.1666666666666</ele><time>2026-05-02T09:22:53.517Z</time></trkpt><trkpt lat="43.6248783" lon="2.4140627"><ele>642.3333333333334</ele><time>2026-05-02T09:22:55.517Z</time></trkpt><trkpt lat="43.6248544" lon="2.4141481"><ele>642.5</ele><time>2026-05-02T09:22:57.519Z</time></trkpt><trkpt lat="43.6248521" lon="2.4142505"><ele>642.6666666666667</ele><time>2026-05-02T09:22:58.517Z</time></trkpt><trkpt lat="43.6248043" lon="2.4143942"><ele>642.8333333333334</ele><time>2026-05-02T09:23:00.517Z</time></trkpt><trkpt lat="43.6247743" lon="2.414471"><ele>643.0</ele><time>2026-05-02T09:23:01.518Z</time></trkpt><trkpt lat="43.6247383" lon="2.4146252"><ele>643.0</ele><time>2026-05-02T09:23:03.518Z</time></trkpt><trkpt lat="43.6247021" lon="2.4147327"><ele>643.0</ele><time>2026-05-02T09:23:05.519Z</time></trkpt><trkpt lat="43.6246398" lon="2.4148512"><ele>643.0</ele><time>2026-05-02T09:23:08.519Z</time></trkpt><trkpt lat="43.6246047" lon="2.4149394"><ele>643.0</ele><time>2026-05-02T09:23:10.517Z</time></trkpt><trkpt lat="43.6245641" lon="2.415025"><ele>643.0</ele><time>2026-05-02T09:23:12.517Z</time></trkpt><trkpt lat="43.6245226" lon="2.4151092"><ele>643.0</ele><time>2026-05-02T09:23:13.517Z</time></trkpt><trkpt lat="43.6244892" lon="2.4151862"><ele>640.0</ele><time>2026-05-02T09:23:14.517Z</time></trkpt><trkpt lat="43.6244451" lon="2.4152596"><ele>637.0</ele><time>2026-05-02T09:23:15.517Z</time></trkpt><trkpt lat="43.624381" lon="2.4153832"><ele>634.0</ele><time>2026-05-02T09:23:17.519Z</time></trkpt><trkpt lat="43.6243451" lon="2.4155234"><ele>631.0</ele><time>2026-05-02T09:23:19.518Z</time></trkpt><trkpt lat="43.6242961" lon="2.4156365"><ele>628.0</ele><time>2026-05-02T09:23:21.516Z</time></trkpt><trkpt lat="43.6242658" lon="2.4157345"><ele>627.7142857142857</ele><time>2026-05-02T09:23:24.518Z</time></trkpt><trkpt lat="43.6242304" lon="2.4158115"><ele>627.4285714285714</ele><time>2026-05-02T09:23:29.518Z</time></trkpt><trkpt lat="43.6241976" lon="2.4159029"><ele>627.1428571428571</ele><time>2026-05-02T09:23:34.518Z</time></trkpt><trkpt lat="43.6241379" lon="2.4159732"><ele>626.8571428571429</ele><time>2026-05-02T09:23:39.518Z</time></trkpt><trkpt lat="43.6240983" lon="2.4160646"><ele>626.5714285714286</ele><time>2026-05-02T09:23:43.518Z</time></trkpt><trkpt lat="43.6240664" lon="2.4161536"><ele>626.2857142857142</ele><time>2026-05-02T09:23:47.518Z</time></trkpt><trkpt lat="43.6240268" lon="2.4162321"><ele>626.0</ele><time>2026-05-02T09:23:50.518Z</time></trkpt><trkpt lat="43.6240022" lon="2.416332"><ele>626.0</ele><time>2026-05-02T09:23:52.518Z</time></trkpt><trkpt lat="43.6239629" lon="2.4164573"><ele>626.0</ele><time>2026-05-02T09:23:54.517Z</time></trkpt><trkpt lat="43.62394" lon="2.4165475"><ele>626.0</ele><time>2026-05-02T09:23:55.517Z</time></trkpt><trkpt lat="43.6239133" lon="2.4166464"><ele>626.0</ele><time>2026-05-02T09:23:57.518Z</time></trkpt><trkpt lat="43.6238629" lon="2.4168016"><ele>626.0</ele><time>2026-05-02T09:23:59.517Z</time></trkpt><trkpt lat="43.6238054" lon="2.4169329"><ele>626.0</ele><time>2026-05-02T09:24:00.517Z</time></trkpt><trkpt lat="43.6237512" lon="2.417062"><ele>626.0</ele><time>2026-05-02T09:24:01.517Z</time></trkpt><trkpt lat="43.6237047" lon="2.4171584"><ele>626.0</ele><time>2026-05-02T09:24:02.517Z</time></trkpt><trkpt lat="43.6236743" lon="2.4172525"><ele>626.0</ele><time>2026-05-02T09:24:03.518Z</time></trkpt><trkpt lat="43.6236544" lon="2.4173525"><ele>626.0</ele><time>2026-05-02T09:24:04.517Z</time></trkpt><trkpt lat="43.6236283" lon="2.417462"><ele>626.0</ele><time>2026-05-02T09:24:05.517Z</time></trkpt><trkpt lat="43.6236036" lon="2.4176061"><ele>622.0</ele><time>2026-05-02T09:24:07.517Z</time></trkpt><trkpt lat="43.6235815" lon="2.4177755"><ele>618.0</ele><time>2026-05-02T09:24:09.517Z</time></trkpt><trkpt lat="43.6235975" lon="2.4178867"><ele>614.0</ele><time>2026-05-02T09:24:10.517Z</time></trkpt><trkpt lat="43.6236104" lon="2.4180144"><ele>610.0</ele><time>2026-05-02T09:24:11.517Z</time></trkpt><trkpt lat="43.6236148" lon="2.4181264"><ele>606.0</ele><time>2026-05-02T09:24:12.517Z</time></trkpt><trkpt lat="43.6236051" lon="2.4182193"><ele>602.0</ele><time>2026-05-02T09:24:13.519Z</time></trkpt><trkpt lat="43.6235873" lon="2.4183256"><ele>602.0</ele><time>2026-05-02T09:24:14.517Z</time></trkpt><trkpt lat="43.6235454" lon="2.4184525"><ele>602.0</ele><time>2026-05-02T09:24:15.518Z</time></trkpt><trkpt lat="43.6235186" lon="2.4185343"><ele>602.0</ele><time>2026-05-02T09:24:16.517Z</time></trkpt><trkpt lat="43.6234739" lon="2.4186483"><ele>602.0</ele><time>2026-05-02T09:24:18.518Z</time></trkpt><trkpt lat="43.6234082" lon="2.4186356"><ele>602.0</ele><time>2026-05-02T09:24:22.516Z</time></trkpt><trkpt lat="43.623321" lon="2.4186704"><ele>602.0</ele><time>2026-05-02T09:24:25.519Z</time></trkpt><trkpt lat="43.6232627" lon="2.4187053"><ele>602.0</ele><time>2026-05-02T09:24:27.518Z</time></trkpt><trkpt lat="43.6231828" lon="2.4188159"><ele>602.0</ele><time>2026-05-02T09:24:29.517Z</time></trkpt><trkpt lat="43.6230925" lon="2.4189242"><ele>602.0</ele><time>2026-05-02T09:24:31.518Z</time></trkpt><trkpt lat="43.6230597" lon="2.419007"><ele>602.0</ele><time>2026-05-02T09:24:32.518Z</time></trkpt><trkpt lat="43.6229789" lon="2.4190735"><ele>602.0</ele><time>2026-05-02T09:24:34.517Z</time></trkpt><trkpt lat="43.6228943" lon="2.4191449"><ele>613.0</ele><time>2026-05-02T09:24:36.518Z</time></trkpt><trkpt lat="43.6228443" lon="2.419245"><ele>613.0</ele><time>2026-05-02T09:24:38.517Z</time></trkpt><trkpt lat="43.6228138" lon="2.419326"><ele>585.0</ele><time>2026-05-02T09:24:40.517Z</time></trkpt><trkpt lat="43.6227378" lon="2.4193032"><ele>585.0</ele><time>2026-05-02T09:24:43.517Z</time></trkpt><trkpt lat="43.6227308" lon="2.419194"><ele>585.0</ele><time>2026-05-02T09:24:47.518Z</time></trkpt><trkpt lat="43.6227327" lon="2.4190995"><ele>585.0</ele><time>2026-05-02T09:24:51.518Z</time></trkpt><trkpt lat="43.6227493" lon="2.4190144"><ele>585.0</ele><time>2026-05-02T09:24:55.517Z</time></trkpt></trkseg><trkseg><trkpt lat="43.6227941" lon="2.4189054"><ele>585.0</ele><time>2026-05-02T09:35:32.515Z</time></trkpt><trkpt lat="43.6227654" lon="2.4188207"><ele>585.0</ele><time>2026-05-02T09:36:11.514Z</time></trkpt><trkpt lat="43.6227099" lon="2.4187686"><ele>585.0</ele><time>2026-05-02T09:36:37.514Z</time></trkpt><trkpt lat="43.6226456" lon="2.4187756"><ele>585.0</ele><time>2026-05-02T09:39:15.514Z</time></trkpt><trkpt lat="43.6225864" lon="2.4188097"><ele>585.0</ele><time>2026-05-02T09:39:22.515Z</time></trkpt><trkpt lat="43.6225291" lon="2.4188462"><ele>585.0</ele><time>2026-05-02T09:39:26.515Z</time></trkpt><trkpt lat="43.6224639" lon="2.4188882"><ele>585.0</ele><time>2026-05-02T09:39:30.515Z</time></trkpt><trkpt lat="43.6223887" lon="2.4189537"><ele>585.0</ele><time>2026-05-02T09:39:33.514Z</time></trkpt><trkpt lat="43.62234" lon="2.4190168"><ele>585.0</ele><time>2026-05-02T09:39:36.514Z</time></trkpt><trkpt lat="43.6223116" lon="2.4191006"><ele>585.0</ele><time>2026-05-02T09:39:39.515Z</time></trkpt><trkpt lat="43.6222962" lon="2.4192371"><ele>585.0</ele><time>2026-05-02T09:39:42.513Z</time></trkpt><trkpt lat="43.6222743" lon="2.4193402"><ele>585.0</ele><time>2026-05-02T09:39:44.515Z</time></trkpt><trkpt lat="43.6222602" lon="2.4194256"><ele>585.0</ele><time>2026-05-02T09:39:46.515Z</time></trkpt><trkpt lat="43.6222687" lon="2.4195527"><ele>585.0</ele><time>2026-05-02T09:39:49.522Z</time></trkpt><trkpt lat="43.622282" lon="2.4196506"><ele>585.0</ele><time>2026-05-02T09:39:51.514Z</time></trkpt><trkpt lat="43.6222815" lon="2.41975"><ele>585.0</ele><time>2026-05-02T09:39:53.514Z</time></trkpt><trkpt lat="43.6222907" lon="2.4198378"><ele>585.0</ele><time>2026-05-02T09:39:55.514Z</time></trkpt><trkpt lat="43.6223031" lon="2.4199321"><ele>585.0</ele><time>2026-05-02T09:39:57.514Z</time></trkpt><trkpt lat="43.6223033" lon="2.4200276"><ele>585.0</ele><time>2026-05-02T09:39:59.514Z</time></trkpt><trkpt lat="43.6222869" lon="2.4201279"><ele>585.0</ele><time>2026-05-02T09:40:02.513Z</time></trkpt><trkpt lat="43.6222168" lon="2.4202116"><ele>585.0</ele><time>2026-05-02T09:40:06.513Z</time></trkpt><trkpt lat="43.6221108" lon="2.4202105"><ele>585.0</ele><time>2026-05-02T09:40:09.512Z</time></trkpt><trkpt lat="43.6220303" lon="2.4202008"><ele>585.0</ele><time>2026-05-02T09:40:11.505Z</time></trkpt><trkpt lat="43.6219573" lon="2.4202917"><ele>585.0</ele><time>2026-05-02T09:40:13.513Z</time></trkpt><trkpt lat="43.6219101" lon="2.4204022"><ele>585.0</ele><time>2026-05-02T09:40:15.513Z</time></trkpt><trkpt lat="43.6218968" lon="2.4205252"><ele>579.2</ele><time>2026-05-02T09:40:17.513Z</time></trkpt><trkpt lat="43.6218719" lon="2.4206381"><ele>573.4</ele><time>2026-05-02T09:40:19.513Z</time></trkpt><trkpt lat="43.6218109" lon="2.4207717"><ele>567.6</ele><time>2026-05-02T09:40:21.514Z</time></trkpt><trkpt lat="43.6217714" lon="2.4208956"><ele>561.8</ele><time>2026-05-02T09:40:23.513Z</time></trkpt><trkpt lat="43.6217565" lon="2.4210327"><ele>556.0</ele><time>2026-05-02T09:40:25.513Z</time></trkpt><trkpt lat="43.6217676" lon="2.4211272"><ele>556.0</ele><time>2026-05-02T09:40:27.512Z</time></trkpt><trkpt lat="43.6217706" lon="2.4212448"><ele>556.0</ele><time>2026-05-02T09:40:29.514Z</time></trkpt><trkpt lat="43.6217525" lon="2.4213756"><ele>556.0</ele><time>2026-05-02T09:40:31.513Z</time></trkpt><trkpt lat="43.6217244" lon="2.4215137"><ele>556.0</ele><time>2026-05-02T09:40:33.513Z</time></trkpt><trkpt lat="43.6217351" lon="2.4216847"><ele>556.0</ele><time>2026-05-02T09:40:35.513Z</time></trkpt><trkpt lat="43.6216988" lon="2.4218248"><ele>555.4</ele><time>2026-05-02T09:40:37.513Z</time></trkpt><trkpt lat="43.6216531" lon="2.4219611"><ele>554.8</ele><time>2026-05-02T09:40:39.513Z</time></trkpt><trkpt lat="43.621608" lon="2.4220815"><ele>554.1999999999999</ele><time>2026-05-02T09:40:41.513Z</time></trkpt><trkpt lat="43.6215746" lon="2.4222101"><ele>553.6</ele><time>2026-05-02T09:40:43.513Z</time></trkpt><trkpt lat="43.6215602" lon="2.4223088"><ele>553.0</ele><time>2026-05-02T09:40:45.513Z</time></trkpt><trkpt lat="43.6215228" lon="2.4224106"><ele>553.0</ele><time>2026-05-02T09:40:47.513Z</time></trkpt><trkpt lat="43.621493" lon="2.4225303"><ele>553.0</ele><time>2026-05-02T09:40:49.513Z</time></trkpt><trkpt lat="43.6214567" lon="2.422683"><ele>553.0</ele><time>2026-05-02T09:40:51.513Z</time></trkpt><trkpt lat="43.6213987" lon="2.4227822"><ele>553.0</ele><time>2026-05-02T09:40:53.513Z</time></trkpt><trkpt lat="43.6213251" lon="2.4227966"><ele>553.0</ele><time>2026-05-02T09:40:55.512Z</time></trkpt><trkpt lat="43.6212491" lon="2.4228064"><ele>553.0</ele><time>2026-05-02T09:41:00.513Z</time></trkpt><trkpt lat="43.6211876" lon="2.4227413"><ele>553.0</ele><time>2026-05-02T09:41:12.513Z</time></trkpt><trkpt lat="43.6211512" lon="2.4226649"><ele>553.0</ele><time>2026-05-02T09:41:14.513Z</time></trkpt><trkpt lat="43.6211145" lon="2.4225735"><ele>553.0</ele><time>2026-05-02T09:41:17.512Z</time></trkpt><trkpt lat="43.6210628" lon="2.4224962"><ele>553.0</ele><time>2026-05-02T09:41:19.514Z</time></trkpt><trkpt lat="43.621006" lon="2.4223878"><ele>553.0</ele><time>2026-05-02T09:41:21.513Z</time></trkpt><trkpt lat="43.6209325" lon="2.4222744"><ele>553.6666666666667</ele><time>2026-05-02T09:41:23.513Z</time></trkpt><trkpt lat="43.6208721" lon="2.4222006"><ele>554.3333333333334</ele><time>2026-05-02T09:41:25.512Z</time></trkpt><trkpt lat="43.6208037" lon="2.4222285"><ele>555.0</ele><time>2026-05-02T09:41:28.512Z</time></trkpt><trkpt lat="43.6207793" lon="2.4223138"><ele>555.6666666666666</ele><time>2026-05-02T09:41:31.514Z</time></trkpt><trkpt lat="43.6207444" lon="2.4224237"><ele>556.3333333333333</ele><time>2026-05-02T09:41:34.514Z</time></trkpt><trkpt lat="43.620683" lon="2.4225271"><ele>557.0</ele><time>2026-05-02T09:41:36.514Z</time></trkpt><trkpt lat="43.6205985" lon="2.4226204"><ele>557.0</ele><time>2026-05-02T09:41:38.513Z</time></trkpt><trkpt lat="43.6205431" lon="2.4226835"><ele>557.0</ele><time>2026-05-02T09:41:40.512Z</time></trkpt><trkpt lat="43.6204731" lon="2.4227381"><ele>557.0</ele><time>2026-05-02T09:41:42.512Z</time></trkpt><trkpt lat="43.6203834" lon="2.4227636"><ele>557.0</ele><time>2026-05-02T09:41:44.512Z</time></trkpt><trkpt lat="43.6203048" lon="2.4227222"><ele>557.0</ele><time>2026-05-02T09:41:47.513Z</time></trkpt><trkpt lat="43.6203053" lon="2.4226264"><ele>557.0</ele><time>2026-05-02T09:41:49.513Z</time></trkpt><trkpt lat="43.620335" lon="2.4225307"><ele>557.0</ele><time>2026-05-02T09:41:51.512Z</time></trkpt><trkpt lat="43.620343" lon="2.4224052"><ele>557.0</ele><time>2026-05-02T09:41:53.512Z</time></trkpt><trkpt lat="43.6202892" lon="2.4222499"><ele>557.0</ele><time>2026-05-02T09:41:55.513Z</time></trkpt><trkpt lat="43.6202446" lon="2.4221521"><ele>557.0</ele><time>2026-05-02T09:41:57.513Z</time></trkpt><trkpt lat="43.6201601" lon="2.4221723"><ele>557.0</ele><time>2026-05-02T09:41:59.513Z</time></trkpt><trkpt lat="43.6201096" lon="2.4222839"><ele>561.8000000000001</ele><time>2026-05-02T09:42:01.513Z</time></trkpt><trkpt lat="43.6200535" lon="2.4224215"><ele>566.6</ele><time>2026-05-02T09:42:03.513Z</time></trkpt><trkpt lat="43.6199932" lon="2.4225627"><ele>571.4000000000001</ele><time>2026-05-02T09:42:05.512Z</time></trkpt><trkpt lat="43.6199372" lon="2.4226708"><ele>576.2</ele><time>2026-05-02T09:42:07.512Z</time></trkpt><trkpt lat="43.6198815" lon="2.4227383"><ele>581.0</ele><time>2026-05-02T09:42:09.512Z</time></trkpt><trkpt lat="43.6198123" lon="2.4228221"><ele>581.0</ele><time>2026-05-02T09:42:11.514Z</time></trkpt><trkpt lat="43.6197198" lon="2.4229011"><ele>581.0</ele><time>2026-05-02T09:42:13.512Z</time></trkpt><trkpt lat="43.6196422" lon="2.4229786"><ele>581.0</ele><time>2026-05-02T09:42:15.514Z</time></trkpt><trkpt lat="43.6195663" lon="2.4230497"><ele>581.0</ele><time>2026-05-02T09:42:17.514Z</time></trkpt><trkpt lat="43.6194692" lon="2.4231151"><ele>581.0</ele><time>2026-05-02T09:42:19.513Z</time></trkpt><trkpt lat="43.6193559" lon="2.4231775"><ele>583.4</ele><time>2026-05-02T09:42:21.514Z</time></trkpt><trkpt lat="43.6192934" lon="2.423206"><ele>585.8</ele><time>2026-05-02T09:42:22.514Z</time></trkpt><trkpt lat="43.6191797" lon="2.4232867"><ele>588.1999999999999</ele><time>2026-05-02T09:42:24.512Z</time></trkpt><trkpt lat="43.6191039" lon="2.4233233"><ele>590.6</ele><time>2026-05-02T09:42:25.514Z</time></trkpt><trkpt lat="43.6190344" lon="2.4233579"><ele>593.0</ele><time>2026-05-02T09:42:26.514Z</time></trkpt><trkpt lat="43.6189409" lon="2.4234166"><ele>593.0</ele><time>2026-05-02T09:42:28.512Z</time></trkpt><trkpt lat="43.6188412" lon="2.4234903"><ele>593.0</ele><time>2026-05-02T09:42:30.512Z</time></trkpt><trkpt lat="43.6187705" lon="2.4235463"><ele>593.0</ele><time>2026-05-02T09:42:31.513Z</time></trkpt><trkpt lat="43.6186974" lon="2.4236313"><ele>593.0</ele><time>2026-05-02T09:42:33.512Z</time></trkpt><trkpt lat="43.618642" lon="2.4237321"><ele>593.0</ele><time>2026-05-02T09:42:35.512Z</time></trkpt><trkpt lat="43.6186017" lon="2.4238111"><ele>594.3333333333333</ele><time>2026-05-02T09:42:42.513Z</time></trkpt><trkpt lat="43.6185178" lon="2.4238558"><ele>595.6666666666666</ele><time>2026-05-02T09:42:49.512Z</time></trkpt><trkpt lat="43.6184292" lon="2.4239506"><ele>597.0</ele><time>2026-05-02T09:42:51.514Z</time></trkpt><trkpt lat="43.618384" lon="2.4240176"><ele>598.3333333333334</ele><time>2026-05-02T09:42:52.512Z</time></trkpt><trkpt lat="43.6183337" lon="2.424088"><ele>599.6666666666667</ele><time>2026-05-02T09:42:53.511Z</time></trkpt><trkpt lat="43.6182615" lon="2.4241754"><ele>601.0</ele><time>2026-05-02T09:42:54.512Z</time></trkpt><trkpt lat="43.6182007" lon="2.4242506"><ele>601.0</ele><time>2026-05-02T09:42:55.513Z</time></trkpt><trkpt lat="43.6181376" lon="2.4243158"><ele>601.0</ele><time>2026-05-02T09:42:56.511Z</time></trkpt><trkpt lat="43.6180629" lon="2.424365"><ele>601.0</ele><time>2026-05-02T09:42:57.511Z</time></trkpt><trkpt lat="43.617986" lon="2.4244349"><ele>601.0</ele><time>2026-05-02T09:42:58.513Z</time></trkpt><trkpt lat="43.6179177" lon="2.424472"><ele>601.0</ele><time>2026-05-02T09:42:59.512Z</time></trkpt><trkpt lat="43.6178503" lon="2.4245016"><ele>601.0</ele><time>2026-05-02T09:43:00.513Z</time></trkpt><trkpt lat="43.6177575" lon="2.4245578"><ele>600.1666666666667</ele><time>2026-05-02T09:43:01.512Z</time></trkpt><trkpt lat="43.6176891" lon="2.4245955"><ele>599.3333333333334</ele><time>2026-05-02T09:43:02.512Z</time></trkpt><trkpt lat="43.6176142" lon="2.424632"><ele>598.5</ele><time>2026-05-02T09:43:03.512Z</time></trkpt><trkpt lat="43.6175295" lon="2.4246632"><ele>597.6666666666666</ele><time>2026-05-02T09:43:04.513Z</time></trkpt><trkpt lat="43.6174676" lon="2.424705"><ele>596.8333333333333</ele><time>2026-05-02T09:43:05.513Z</time></trkpt><trkpt lat="43.6173925" lon="2.4247299"><ele>596.0</ele><time>2026-05-02T09:43:06.514Z</time></trkpt><trkpt lat="43.6172588" lon="2.4247527"><ele>598.0</ele><time>2026-05-02T09:43:08.514Z</time></trkpt><trkpt lat="43.617175" lon="2.4247644"><ele>600.0</ele><time>2026-05-02T09:43:09.513Z</time></trkpt><trkpt lat="43.6171007" lon="2.4247735"><ele>602.0</ele><time>2026-05-02T09:43:10.513Z</time></trkpt><trkpt lat="43.6170309" lon="2.424766"><ele>604.0</ele><time>2026-05-02T09:43:11.513Z</time></trkpt><trkpt lat="43.616938" lon="2.424752"><ele>606.0</ele><time>2026-05-02T09:43:12.512Z</time></trkpt><trkpt lat="43.6168458" lon="2.4247183"><ele>608.0</ele><time>2026-05-02T09:43:13.513Z</time></trkpt><trkpt lat="43.6167653" lon="2.4246814"><ele>608.6</ele><time>2026-05-02T09:43:14.514Z</time></trkpt><trkpt lat="43.6166837" lon="2.4246474"><ele>609.1999999999999</ele><time>2026-05-02T09:43:15.513Z</time></trkpt><trkpt lat="43.6165839" lon="2.4245941"><ele>609.8</ele><time>2026-05-02T09:43:16.512Z</time></trkpt><trkpt lat="43.6164971" lon="2.424554"><ele>610.4</ele><time>2026-05-02T09:43:17.512Z</time></trkpt><trkpt lat="43.6164197" lon="2.4245235"><ele>611.0</ele><time>2026-05-02T09:43:18.513Z</time></trkpt><trkpt lat="43.6162949" lon="2.4244895"><ele>609.5</ele><time>2026-05-02T09:43:20.512Z</time></trkpt><trkpt lat="43.6162201" lon="2.4244548"><ele>608.0</ele><time>2026-05-02T09:43:21.514Z</time></trkpt><trkpt lat="43.6160943" lon="2.4244309"><ele>606.5</ele><time>2026-05-02T09:43:23.514Z</time></trkpt><trkpt lat="43.6160217" lon="2.4244195"><ele>605.0</ele><time>2026-05-02T09:43:24.514Z</time></trkpt><trkpt lat="43.6159498" lon="2.4244142"><ele>603.5</ele><time>2026-05-02T09:43:25.514Z</time></trkpt><trkpt lat="43.6158623" lon="2.4244079"><ele>602.0</ele><time>2026-05-02T09:43:26.513Z</time></trkpt><trkpt lat="43.6157748" lon="2.4244061"><ele>601.6666666666666</ele><time>2026-05-02T09:43:27.513Z</time></trkpt><trkpt lat="43.6156875" lon="2.424404"><ele>601.3333333333333</ele><time>2026-05-02T09:43:28.513Z</time></trkpt><trkpt lat="43.6156196" lon="2.4243965"><ele>601.0</ele><time>2026-05-02T09:43:29.513Z</time></trkpt><trkpt lat="43.6155454" lon="2.4244015"><ele>600.6666666666666</ele><time>2026-05-02T09:43:31.511Z</time></trkpt><trkpt lat="43.6154694" lon="2.4244108"><ele>600.3333333333334</ele><time>2026-05-02T09:43:54.512Z</time></trkpt><trkpt lat="43.6154092" lon="2.4244866"><ele>600.0</ele><time>2026-05-02T09:43:58.512Z</time></trkpt><trkpt lat="43.615346" lon="2.4244729"><ele>598.1666666666666</ele><time>2026-05-02T09:44:01.512Z</time></trkpt><trkpt lat="43.6152989" lon="2.4243833"><ele>596.3333333333334</ele><time>2026-05-02T09:44:04.514Z</time></trkpt><trkpt lat="43.6152511" lon="2.4242779"><ele>594.5</ele><time>2026-05-02T09:44:07.513Z</time></trkpt><trkpt lat="43.6152141" lon="2.4241763"><ele>592.6666666666667</ele><time>2026-05-02T09:44:10.512Z</time></trkpt><trkpt lat="43.615154" lon="2.4240783"><ele>590.8333333333334</ele><time>2026-05-02T09:44:13.513Z</time></trkpt><trkpt lat="43.6150972" lon="2.4240008"><ele>589.0</ele><time>2026-05-02T09:44:15.512Z</time></trkpt><trkpt lat="43.6150361" lon="2.4239171"><ele>588.3333333333334</ele><time>2026-05-02T09:44:17.512Z</time></trkpt><trkpt lat="43.6149833" lon="2.4237953"><ele>587.6666666666667</ele><time>2026-05-02T09:44:19.513Z</time></trkpt><trkpt lat="43.6149471" lon="2.4237087"><ele>587.0</ele><time>2026-05-02T09:44:21.512Z</time></trkpt><trkpt lat="43.6149178" lon="2.4236243"><ele>586.3333333333334</ele><time>2026-05-02T09:44:24.514Z</time></trkpt><trkpt lat="43.6148593" lon="2.4235538"><ele>585.6666666666666</ele><time>2026-05-02T09:44:29.512Z</time></trkpt><trkpt lat="43.6148" lon="2.4235058"><ele>585.0</ele><time>2026-05-02T09:44:32.511Z</time></trkpt><trkpt lat="43.614743" lon="2.4234611"><ele>585.0</ele><time>2026-05-02T09:45:18.513Z</time></trkpt><trkpt lat="43.6146948" lon="2.4234004"><ele>585.0</ele><time>2026-05-02T09:45:33.512Z</time></trkpt><trkpt lat="43.6146413" lon="2.4233375"><ele>585.0</ele><time>2026-05-02T09:45:55.51Z</time></trkpt><trkpt lat="43.6145878" lon="2.4232808"><ele>585.0</ele><time>2026-05-02T09:46:00.512Z</time></trkpt><trkpt lat="43.6145234" lon="2.4232192"><ele>585.0</ele><time>2026-05-02T09:46:04.512Z</time></trkpt><trkpt lat="43.61447" lon="2.423154"><ele>585.0</ele><time>2026-05-02T09:46:08.512Z</time></trkpt><trkpt lat="43.6144199" lon="2.423082"><ele>585.0</ele><time>2026-05-02T09:46:12.511Z</time></trkpt><trkpt lat="43.6143463" lon="2.4230577"><ele>584.8333333333334</ele><time>2026-05-02T09:46:17.511Z</time></trkpt><trkpt lat="43.6142901" lon="2.4229987"><ele>584.6666666666666</ele><time>2026-05-02T09:46:22.513Z</time></trkpt><trkpt lat="43.6142248" lon="2.4229627"><ele>584.5</ele><time>2026-05-02T09:46:26.511Z</time></trkpt><trkpt lat="43.6141524" lon="2.4229533"><ele>584.3333333333333</ele><time>2026-05-02T09:46:29.512Z</time></trkpt><trkpt lat="43.6140741" lon="2.4229533"><ele>584.1666666666666</ele><time>2026-05-02T09:46:32.511Z</time></trkpt><trkpt lat="43.6139786" lon="2.422949"><ele>584.0</ele><time>2026-05-02T09:46:35.512Z</time></trkpt><trkpt lat="43.6139158" lon="2.4229234"><ele>584.0</ele><time>2026-05-02T09:46:37.512Z</time></trkpt><trkpt lat="43.6138462" lon="2.4228719"><ele>584.0</ele><time>2026-05-02T09:46:40.512Z</time></trkpt><trkpt lat="43.6137834" lon="2.4228611"><ele>584.0</ele><time>2026-05-02T09:46:44.512Z</time></trkpt><trkpt lat="43.6137016" lon="2.4228411"><ele>584.0</ele><time>2026-05-02T09:46:48.512Z</time></trkpt><trkpt lat="43.6136369" lon="2.4228184"><ele>584.0</ele><time>2026-05-02T09:46:51.511Z</time></trkpt><trkpt lat="43.6135743" lon="2.4227638"><ele>584.0</ele><time>2026-05-02T09:46:55.512Z</time></trkpt><trkpt lat="43.6135148" lon="2.4227316"><ele>584.0</ele><time>2026-05-02T09:46:58.513Z</time></trkpt><trkpt lat="43.6134326" lon="2.4227056"><ele>582.0</ele><time>2026-05-02T09:47:02.512Z</time></trkpt><trkpt lat="43.6133487" lon="2.422689"><ele>580.0</ele><time>2026-05-02T09:47:06.511Z</time></trkpt><trkpt lat="43.6132811" lon="2.4227074"><ele>578.0</ele><time>2026-05-02T09:47:09.512Z</time></trkpt><trkpt lat="43.613242" lon="2.4227777"><ele>576.0</ele><time>2026-05-02T09:47:12.511Z</time></trkpt><trkpt lat="43.6132129" lon="2.4228686"><ele>574.0</ele><time>2026-05-02T09:47:44.512Z</time></trkpt><trkpt lat="43.6131642" lon="2.4229407"><ele>572.0</ele><time>2026-05-02T09:47:48.511Z</time></trkpt><trkpt lat="43.6130865" lon="2.4229312"><ele>570.0</ele><time>2026-05-02T09:47:51.51Z</time></trkpt><trkpt lat="43.6129956" lon="2.4228891"><ele>570.0</ele><time>2026-05-02T09:47:53.512Z</time></trkpt><trkpt lat="43.6129332" lon="2.4228569"><ele>570.0</ele><time>2026-05-02T09:47:55.51Z</time></trkpt><trkpt lat="43.6128432" lon="2.4228386"><ele>570.0</ele><time>2026-05-02T09:47:57.513Z</time></trkpt><trkpt lat="43.6127572" lon="2.4228194"><ele>570.0</ele><time>2026-05-02T09:47:59.512Z</time></trkpt><trkpt lat="43.6126797" lon="2.4228267"><ele>570.0</ele><time>2026-05-02T09:48:01.512Z</time></trkpt><trkpt lat="43.6125934" lon="2.4228267"><ele>570.0</ele><time>2026-05-02T09:48:03.51Z</time></trkpt><trkpt lat="43.6125159" lon="2.4228479"><ele>567.0</ele><time>2026-05-02T09:48:05.512Z</time></trkpt><trkpt lat="43.6124392" lon="2.4228452"><ele>564.0</ele><time>2026-05-02T09:48:07.511Z</time></trkpt><trkpt lat="43.6123571" lon="2.4228255"><ele>561.0</ele><time>2026-05-02T09:48:09.511Z</time></trkpt><trkpt lat="43.6122774" lon="2.4228103"><ele>558.0</ele><time>2026-05-02T09:48:12.51Z</time></trkpt><trkpt lat="43.6122045" lon="2.4227833"><ele>555.0</ele><time>2026-05-02T09:48:17.511Z</time></trkpt><trkpt lat="43.6121282" lon="2.4227495"><ele>552.0</ele><time>2026-05-02T09:48:21.511Z</time></trkpt><trkpt lat="43.6120593" lon="2.4227251"><ele>552.0</ele><time>2026-05-02T09:48:24.512Z</time></trkpt><trkpt lat="43.6119939" lon="2.4227595"><ele>552.0</ele><time>2026-05-02T09:48:26.512Z</time></trkpt><trkpt lat="43.6119336" lon="2.4228065"><ele>552.0</ele><time>2026-05-02T09:48:27.511Z</time></trkpt><trkpt lat="43.6118712" lon="2.4228527"><ele>552.0</ele><time>2026-05-02T09:48:28.511Z</time></trkpt><trkpt lat="43.6117946" lon="2.422901"><ele>552.0</ele><time>2026-05-02T09:48:29.511Z</time></trkpt><trkpt lat="43.611708" lon="2.4229552"><ele>552.0</ele><time>2026-05-02T09:48:30.51Z</time></trkpt><trkpt lat="43.6116228" lon="2.4230077"><ele>551.6</ele><time>2026-05-02T09:48:31.512Z</time></trkpt><trkpt lat="43.6115285" lon="2.4230425"><ele>551.2</ele><time>2026-05-02T09:48:32.512Z</time></trkpt><trkpt lat="43.6114319" lon="2.4230767"><ele>550.8</ele><time>2026-05-02T09:48:33.51Z</time></trkpt><trkpt lat="43.6113256" lon="2.4230842"><ele>550.4</ele><time>2026-05-02T09:48:34.511Z</time></trkpt><trkpt lat="43.6112196" lon="2.4230826"><ele>550.0</ele><time>2026-05-02T09:48:35.51Z</time></trkpt><trkpt lat="43.6111318" lon="2.4230902"><ele>547.2</ele><time>2026-05-02T09:48:36.511Z</time></trkpt><trkpt lat="43.6110372" lon="2.4230745"><ele>544.4</ele><time>2026-05-02T09:48:37.51Z</time></trkpt><trkpt lat="43.6109408" lon="2.4230521"><ele>541.6</ele><time>2026-05-02T09:48:38.512Z</time></trkpt><trkpt lat="43.6108453" lon="2.4230262"><ele>538.8</ele><time>2026-05-02T09:48:39.511Z</time></trkpt><trkpt lat="43.6107525" lon="2.4229974"><ele>536.0</ele><time>2026-05-02T09:48:40.511Z</time></trkpt><trkpt lat="43.6106678" lon="2.4229597"><ele>532.0</ele><time>2026-05-02T09:48:41.512Z</time></trkpt><trkpt lat="43.6105699" lon="2.422918"><ele>528.0</ele><time>2026-05-02T09:48:42.511Z</time></trkpt><trkpt lat="43.610472" lon="2.422869"><ele>524.0</ele><time>2026-05-02T09:48:43.511Z</time></trkpt><trkpt lat="43.6103812" lon="2.4228256"><ele>520.0</ele><time>2026-05-02T09:48:44.511Z</time></trkpt><trkpt lat="43.6103088" lon="2.4227993"><ele>516.0</ele><time>2026-05-02T09:48:45.511Z</time></trkpt><trkpt lat="43.610245" lon="2.4227705"><ele>512.0</ele><time>2026-05-02T09:48:46.511Z</time></trkpt><trkpt lat="43.6101812" lon="2.4227583"><ele>511.20000000000005</ele><time>2026-05-02T09:48:47.511Z</time></trkpt><trkpt lat="43.6100814" lon="2.4227959"><ele>510.40000000000003</ele><time>2026-05-02T09:48:49.512Z</time></trkpt><trkpt lat="43.6099947" lon="2.422858"><ele>509.59999999999997</ele><time>2026-05-02T09:48:51.512Z</time></trkpt><trkpt lat="43.6098977" lon="2.4229668"><ele>508.79999999999995</ele><time>2026-05-02T09:48:53.511Z</time></trkpt><trkpt lat="43.6098475" lon="2.4230431"><ele>508.0</ele><time>2026-05-02T09:48:54.511Z</time></trkpt><trkpt lat="43.6097976" lon="2.4231342"><ele>509.83333333333337</ele><time>2026-05-02T09:48:55.512Z</time></trkpt><trkpt lat="43.6097519" lon="2.4232192"><ele>511.6666666666667</ele><time>2026-05-02T09:48:56.512Z</time></trkpt><trkpt lat="43.6096993" lon="2.4233131"><ele>513.5</ele><time>2026-05-02T09:48:57.512Z</time></trkpt><trkpt lat="43.6096405" lon="2.4234148"><ele>515.3333333333334</ele><time>2026-05-02T09:48:58.511Z</time></trkpt><trkpt lat="43.6095892" lon="2.4235203"><ele>517.1666666666666</ele><time>2026-05-02T09:48:59.511Z</time></trkpt><trkpt lat="43.6095356" lon="2.4236329"><ele>519.0</ele><time>2026-05-02T09:49:00.511Z</time></trkpt><trkpt lat="43.6094873" lon="2.4237354"><ele>513.6</ele><time>2026-05-02T09:49:01.509Z</time></trkpt><trkpt lat="43.6094516" lon="2.4238509"><ele>508.2</ele><time>2026-05-02T09:49:02.511Z</time></trkpt><trkpt lat="43.6094214" lon="2.4239891"><ele>502.80000000000007</ele><time>2026-05-02T09:49:03.511Z</time></trkpt><trkpt lat="43.6093978" lon="2.4241451"><ele>497.40000000000003</ele><time>2026-05-02T09:49:04.512Z</time></trkpt><trkpt lat="43.6093837" lon="2.4242946"><ele>492.0</ele><time>2026-05-02T09:49:05.511Z</time></trkpt><trkpt lat="43.6093788" lon="2.4244464"><ele>492.0</ele><time>2026-05-02T09:49:06.511Z</time></trkpt><trkpt lat="43.609378" lon="2.4245867"><ele>492.0</ele><time>2026-05-02T09:49:07.511Z</time></trkpt><trkpt lat="43.6093891" lon="2.4247411"><ele>492.0</ele><time>2026-05-02T09:49:08.512Z</time></trkpt><trkpt lat="43.6093916" lon="2.4249056"><ele>492.0</ele><time>2026-05-02T09:49:09.512Z</time></trkpt><trkpt lat="43.6093921" lon="2.4250825"><ele>492.25</ele><time>2026-05-02T09:49:10.509Z</time></trkpt><trkpt lat="43.609389" lon="2.4252528"><ele>492.5</ele><time>2026-05-02T09:49:11.51Z</time></trkpt><trkpt lat="43.6093643" lon="2.4254164"><ele>492.75</ele><time>2026-05-02T09:49:12.511Z</time></trkpt><trkpt lat="43.6093268" lon="2.4255879"><ele>493.0</ele><time>2026-05-02T09:49:13.511Z</time></trkpt><trkpt lat="43.6092834" lon="2.4257669"><ele>493.0</ele><time>2026-05-02T09:49:14.51Z</time></trkpt><trkpt lat="43.6092397" lon="2.4259262"><ele>493.0</ele><time>2026-05-02T09:49:15.512Z</time></trkpt><trkpt lat="43.6091947" lon="2.4260777"><ele>493.0</ele><time>2026-05-02T09:49:16.511Z</time></trkpt><trkpt lat="43.6091448" lon="2.4262454"><ele>493.0</ele><time>2026-05-02T09:49:17.512Z</time></trkpt><trkpt lat="43.6090912" lon="2.4264158"><ele>496.25</ele><time>2026-05-02T09:49:18.51Z</time></trkpt><trkpt lat="43.6090345" lon="2.4265675"><ele>499.5</ele><time>2026-05-02T09:49:19.511Z</time></trkpt><trkpt lat="43.608976" lon="2.4267157"><ele>502.75</ele><time>2026-05-02T09:49:20.512Z</time></trkpt><trkpt lat="43.6089169" lon="2.4268624"><ele>506.0</ele><time>2026-05-02T09:49:21.511Z</time></trkpt><trkpt lat="43.6088623" lon="2.4269966"><ele>506.0</ele><time>2026-05-02T09:49:22.512Z</time></trkpt><trkpt lat="43.6088035" lon="2.4271053"><ele>506.0</ele><time>2026-05-02T09:49:23.511Z</time></trkpt><trkpt lat="43.6087245" lon="2.427243"><ele>506.0</ele><time>2026-05-02T09:49:24.511Z</time></trkpt><trkpt lat="43.608647" lon="2.4273931"><ele>506.0</ele><time>2026-05-02T09:49:25.511Z</time></trkpt><trkpt lat="43.6085613" lon="2.4275371"><ele>501.25</ele><time>2026-05-02T09:49:26.511Z</time></trkpt><trkpt lat="43.6084832" lon="2.4276708"><ele>496.5</ele><time>2026-05-02T09:49:27.51Z</time></trkpt><trkpt lat="43.6084181" lon="2.4278184"><ele>491.75</ele><time>2026-05-02T09:49:28.512Z</time></trkpt><trkpt lat="43.6083438" lon="2.4279466"><ele>487.0</ele><time>2026-05-02T09:49:29.51Z</time></trkpt><trkpt lat="43.6082736" lon="2.4280601"><ele>487.00000000000006</ele><time>2026-05-02T09:49:30.512Z</time></trkpt><trkpt lat="43.6082297" lon="2.4281707"><ele>487.0</ele><time>2026-05-02T09:49:31.511Z</time></trkpt><trkpt lat="43.6081904" lon="2.4282654"><ele>487.0</ele><time>2026-05-02T09:49:32.51Z</time></trkpt><trkpt lat="43.608178" lon="2.4283664"><ele>487.0</ele><time>2026-05-02T09:49:33.511Z</time></trkpt><trkpt lat="43.6081781" lon="2.4284601"><ele>487.00000000000006</ele><time>2026-05-02T09:49:34.511Z</time></trkpt><trkpt lat="43.6082074" lon="2.4285487"><ele>487.0</ele><time>2026-05-02T09:49:35.511Z</time></trkpt><trkpt lat="43.6083037" lon="2.428642"><ele>487.0</ele><time>2026-05-02T09:49:36.512Z</time></trkpt><trkpt lat="43.6083817" lon="2.4287294"><ele>487.00000000000006</ele><time>2026-05-02T09:49:37.511Z</time></trkpt><trkpt lat="43.6084342" lon="2.4288151"><ele>487.00000000000006</ele><time>2026-05-02T09:49:38.511Z</time></trkpt><trkpt lat="43.6084945" lon="2.428956"><ele>487.0</ele><time>2026-05-02T09:49:40.51Z</time></trkpt><trkpt lat="43.6084476" lon="2.4290733"><ele>487.0</ele><time>2026-05-02T09:49:41.512Z</time></trkpt><trkpt lat="43.6083775" lon="2.4291917"><ele>485.75</ele><time>2026-05-02T09:49:42.511Z</time></trkpt><trkpt lat="43.6082528" lon="2.4293234"><ele>484.5</ele><time>2026-05-02T09:49:43.511Z</time></trkpt><trkpt lat="43.6081435" lon="2.4294237"><ele>483.25</ele><time>2026-05-02T09:49:44.51Z</time></trkpt><trkpt lat="43.6080267" lon="2.4295193"><ele>482.0</ele><time>2026-05-02T09:49:45.511Z</time></trkpt><trkpt lat="43.6079191" lon="2.4296175"><ele>476.75</ele><time>2026-05-02T09:49:46.511Z</time></trkpt><trkpt lat="43.6078109" lon="2.4297372"><ele>471.5</ele><time>2026-05-02T09:49:47.511Z</time></trkpt><trkpt lat="43.6077145" lon="2.4298762"><ele>466.25</ele><time>2026-05-02T09:49:48.511Z</time></trkpt><trkpt lat="43.6076261" lon="2.4300089"><ele>461.0</ele><time>2026-05-02T09:49:49.511Z</time></trkpt><trkpt lat="43.6075449" lon="2.4301288"><ele>461.0</ele><time>2026-05-02T09:49:50.512Z</time></trkpt><trkpt lat="43.6074824" lon="2.4302736"><ele>461.0</ele><time>2026-05-02T09:49:51.511Z</time></trkpt><trkpt lat="43.6074228" lon="2.4304122"><ele>461.0</ele><time>2026-05-02T09:49:52.511Z</time></trkpt><trkpt lat="43.6073552" lon="2.4305289"><ele>461.0</ele><time>2026-05-02T09:49:53.51Z</time></trkpt><trkpt lat="43.6072952" lon="2.4306409"><ele>461.0</ele><time>2026-05-02T09:49:54.512Z</time></trkpt><trkpt lat="43.607223" lon="2.4307502"><ele>457.5</ele><time>2026-05-02T09:49:55.511Z</time></trkpt><trkpt lat="43.60715" lon="2.4308535"><ele>454.0</ele><time>2026-05-02T09:49:56.51Z</time></trkpt><trkpt lat="43.6070675" lon="2.430955"><ele>450.5</ele><time>2026-05-02T09:49:57.511Z</time></trkpt><trkpt lat="43.6069717" lon="2.431074"><ele>447.0</ele><time>2026-05-02T09:49:58.512Z</time></trkpt><trkpt lat="43.6068833" lon="2.4311895"><ele>447.0</ele><time>2026-05-02T09:49:59.512Z</time></trkpt><trkpt lat="43.6067921" lon="2.4313023"><ele>447.00000000000006</ele><time>2026-05-02T09:50:00.51Z</time></trkpt><trkpt lat="43.6067255" lon="2.4314298"><ele>447.00000000000006</ele><time>2026-05-02T09:50:01.511Z</time></trkpt><trkpt lat="43.606646" lon="2.4315355"><ele>447.0</ele><time>2026-05-02T09:50:02.511Z</time></trkpt><trkpt lat="43.6065736" lon="2.4316276"><ele>447.0</ele><time>2026-05-02T09:50:03.511Z</time></trkpt><trkpt lat="43.6065179" lon="2.4317282"><ele>449.1666666666667</ele><time>2026-05-02T09:50:04.512Z</time></trkpt><trkpt lat="43.6064897" lon="2.4318111"><ele>451.33333333333337</ele><time>2026-05-02T09:50:05.511Z</time></trkpt><trkpt lat="43.6064745" lon="2.4319157"><ele>453.5</ele><time>2026-05-02T09:50:06.511Z</time></trkpt><trkpt lat="43.6064719" lon="2.4320445"><ele>455.6666666666667</ele><time>2026-05-02T09:50:07.511Z</time></trkpt><trkpt lat="43.6064759" lon="2.4321776"><ele>457.83333333333337</ele><time>2026-05-02T09:50:08.511Z</time></trkpt><trkpt lat="43.6064942" lon="2.4322967"><ele>460.0</ele><time>2026-05-02T09:50:09.511Z</time></trkpt><trkpt lat="43.6065071" lon="2.4324108"><ele>461.1666666666667</ele><time>2026-05-02T09:50:10.512Z</time></trkpt><trkpt lat="43.606539" lon="2.4325194"><ele>462.33333333333337</ele><time>2026-05-02T09:50:11.511Z</time></trkpt><trkpt lat="43.6065773" lon="2.4326238"><ele>463.5</ele><time>2026-05-02T09:50:12.511Z</time></trkpt><trkpt lat="43.6066023" lon="2.4327089"><ele>464.66666666666663</ele><time>2026-05-02T09:50:13.51Z</time></trkpt><trkpt lat="43.6066165" lon="2.432794"><ele>465.8333333333333</ele><time>2026-05-02T09:50:14.51Z</time></trkpt><trkpt lat="43.6065909" lon="2.4329075"><ele>467.0</ele><time>2026-05-02T09:50:16.511Z</time></trkpt><trkpt lat="43.6064744" lon="2.4329016"><ele>467.0</ele><time>2026-05-02T09:50:18.512Z</time></trkpt><trkpt lat="43.6063808" lon="2.4328088"><ele>467.00000000000006</ele><time>2026-05-02T09:50:19.512Z</time></trkpt><trkpt lat="43.6062968" lon="2.4326992"><ele>467.00000000000006</ele><time>2026-05-02T09:50:20.511Z</time></trkpt><trkpt lat="43.6062159" lon="2.4326028"><ele>467.0</ele><time>2026-05-02T09:50:21.511Z</time></trkpt><trkpt lat="43.6061376" lon="2.4325133"><ele>467.0</ele><time>2026-05-02T09:50:22.511Z</time></trkpt><trkpt lat="43.6060549" lon="2.4324568"><ele>462.20000000000005</ele><time>2026-05-02T09:50:23.51Z</time></trkpt><trkpt lat="43.6059623" lon="2.4324157"><ele>457.40000000000003</ele><time>2026-05-02T09:50:24.512Z</time></trkpt><trkpt lat="43.6058703" lon="2.4324267"><ele>452.59999999999997</ele><time>2026-05-02T09:50:25.51Z</time></trkpt><trkpt lat="43.6057968" lon="2.4324949"><ele>447.79999999999995</ele><time>2026-05-02T09:50:26.51Z</time></trkpt><trkpt lat="43.6057388" lon="2.4325828"><ele>443.0</ele><time>2026-05-02T09:50:27.511Z</time></trkpt><trkpt lat="43.6056958" lon="2.4327388"><ele>443.0</ele><time>2026-05-02T09:50:28.51Z</time></trkpt><trkpt lat="43.6056552" lon="2.4328484"><ele>442.99999999999994</ele><time>2026-05-02T09:50:29.51Z</time></trkpt><trkpt lat="43.6056059" lon="2.4329647"><ele>442.99999999999994</ele><time>2026-05-02T09:50:30.51Z</time></trkpt><trkpt lat="43.6055511" lon="2.4331007"><ele>443.0</ele><time>2026-05-02T09:50:31.51Z</time></trkpt><trkpt lat="43.6054901" lon="2.4331965"><ele>443.0</ele><time>2026-05-02T09:50:32.511Z</time></trkpt><trkpt lat="43.6054328" lon="2.4332708"><ele>442.8333333333333</ele><time>2026-05-02T09:50:33.51Z</time></trkpt><trkpt lat="43.6053656" lon="2.4333518"><ele>442.66666666666663</ele><time>2026-05-02T09:50:34.511Z</time></trkpt><trkpt lat="43.6052977" lon="2.4334185"><ele>442.5</ele><time>2026-05-02T09:50:35.512Z</time></trkpt><trkpt lat="43.6052339" lon="2.4334753"><ele>442.33333333333337</ele><time>2026-05-02T09:50:36.511Z</time></trkpt><trkpt lat="43.6051311" lon="2.4335199"><ele>442.1666666666667</ele><time>2026-05-02T09:50:38.51Z</time></trkpt><trkpt lat="43.6050659" lon="2.433493"><ele>442.0</ele><time>2026-05-02T09:50:39.51Z</time></trkpt><trkpt lat="43.6050042" lon="2.4334132"><ele>442.00000000000006</ele><time>2026-05-02T09:50:41.51Z</time></trkpt><trkpt lat="43.6049435" lon="2.4333548"><ele>442.0</ele><time>2026-05-02T09:50:46.511Z</time></trkpt><trkpt lat="43.6048606" lon="2.4334327"><ele>442.0</ele><time>2026-05-02T09:50:55.509Z</time></trkpt><trkpt lat="43.6047909" lon="2.4335001"><ele>442.0</ele><time>2026-05-02T09:50:56.51Z</time></trkpt><trkpt lat="43.6047452" lon="2.4335775"><ele>442.00000000000006</ele><time>2026-05-02T09:50:57.511Z</time></trkpt><trkpt lat="43.6046935" lon="2.4336627"><ele>442.0</ele><time>2026-05-02T09:50:58.51Z</time></trkpt><trkpt lat="43.6046455" lon="2.4337458"><ele>443.20000000000005</ele><time>2026-05-02T09:50:59.512Z</time></trkpt><trkpt lat="43.6045867" lon="2.4338598"><ele>444.40000000000003</ele><time>2026-05-02T09:51:00.512Z</time></trkpt><trkpt lat="43.604536" lon="2.4339779"><ele>445.59999999999997</ele><time>2026-05-02T09:51:01.512Z</time></trkpt><trkpt lat="43.6044885" lon="2.4340847"><ele>446.79999999999995</ele><time>2026-05-02T09:51:02.51Z</time></trkpt><trkpt lat="43.6044694" lon="2.4342005"><ele>448.0</ele><time>2026-05-02T09:51:03.51Z</time></trkpt><trkpt lat="43.6044492" lon="2.4343114"><ele>452.2</ele><time>2026-05-02T09:51:04.51Z</time></trkpt><trkpt lat="43.6043904" lon="2.4344153"><ele>456.4</ele><time>2026-05-02T09:51:05.51Z</time></trkpt><trkpt lat="43.6043501" lon="2.4345266"><ele>460.59999999999997</ele><time>2026-05-02T09:51:06.511Z</time></trkpt><trkpt lat="43.6043222" lon="2.4346365"><ele>464.79999999999995</ele><time>2026-05-02T09:51:07.511Z</time></trkpt><trkpt lat="43.6042762" lon="2.434772"><ele>469.0</ele><time>2026-05-02T09:51:08.509Z</time></trkpt><trkpt lat="43.6042298" lon="2.4349316"><ele>469.0</ele><time>2026-05-02T09:51:09.509Z</time></trkpt><trkpt lat="43.6041939" lon="2.4350624"><ele>469.0</ele><time>2026-05-02T09:51:10.51Z</time></trkpt><trkpt lat="43.6041581" lon="2.4352015"><ele>469.0</ele><time>2026-05-02T09:51:11.51Z</time></trkpt><trkpt lat="43.6041223" lon="2.4353341"><ele>469.0</ele><time>2026-05-02T09:51:12.51Z</time></trkpt><trkpt lat="43.604096" lon="2.4354963"><ele>469.0</ele><time>2026-05-02T09:51:13.512Z</time></trkpt><trkpt lat="43.6040881" lon="2.4356462"><ele>469.0</ele><time>2026-05-02T09:51:14.511Z</time></trkpt><trkpt lat="43.6040859" lon="2.4358099"><ele>469.0</ele><time>2026-05-02T09:51:15.512Z</time></trkpt><trkpt lat="43.6040419" lon="2.4359726"><ele>469.0</ele><time>2026-05-02T09:51:16.511Z</time></trkpt><trkpt lat="43.6040234" lon="2.436138"><ele>469.0</ele><time>2026-05-02T09:51:17.509Z</time></trkpt><trkpt lat="43.604001" lon="2.4363117"><ele>469.0</ele><time>2026-05-02T09:51:18.511Z</time></trkpt><trkpt lat="43.6039785" lon="2.4364923"><ele>469.0</ele><time>2026-05-02T09:51:19.51Z</time></trkpt><trkpt lat="43.6039626" lon="2.4366387"><ele>469.0</ele><time>2026-05-02T09:51:20.511Z</time></trkpt><trkpt lat="43.6039458" lon="2.4367961"><ele>469.0</ele><time>2026-05-02T09:51:21.511Z</time></trkpt><trkpt lat="43.6039517" lon="2.4369573"><ele>469.0</ele><time>2026-05-02T09:51:22.511Z</time></trkpt><trkpt lat="43.6039625" lon="2.4371109"><ele>469.0</ele><time>2026-05-02T09:51:23.51Z</time></trkpt><trkpt lat="43.603953" lon="2.4372318"><ele>469.0</ele><time>2026-05-02T09:51:24.51Z</time></trkpt><trkpt lat="43.6039462" lon="2.4373483"><ele>469.0</ele><time>2026-05-02T09:51:25.51Z</time></trkpt><trkpt lat="43.6038922" lon="2.4374229"><ele>469.0</ele><time>2026-05-02T09:51:26.511Z</time></trkpt><trkpt lat="43.6038078" lon="2.437499"><ele>468.83333333333337</ele><time>2026-05-02T09:51:27.511Z</time></trkpt><trkpt lat="43.6037503" lon="2.4375607"><ele>468.6666666666667</ele><time>2026-05-02T09:51:28.511Z</time></trkpt><trkpt lat="43.6037091" lon="2.4376639"><ele>468.5</ele><time>2026-05-02T09:51:29.51Z</time></trkpt><trkpt lat="43.6036904" lon="2.4377887"><ele>468.33333333333337</ele><time>2026-05-02T09:51:30.511Z</time></trkpt><trkpt lat="43.6037173" lon="2.4379163"><ele>468.1666666666667</ele><time>2026-05-02T09:51:31.511Z</time></trkpt><trkpt lat="43.6037687" lon="2.4380114"><ele>468.0</ele><time>2026-05-02T09:51:32.509Z</time></trkpt><trkpt lat="43.6038307" lon="2.4380684"><ele>468.0</ele><time>2026-05-02T09:51:33.51Z</time></trkpt><trkpt lat="43.6039648" lon="2.4381113"><ele>467.99999999999994</ele><time>2026-05-02T09:51:35.511Z</time></trkpt><trkpt lat="43.6040305" lon="2.438113"><ele>467.99999999999994</ele><time>2026-05-02T09:51:36.511Z</time></trkpt><trkpt lat="43.6041031" lon="2.4381675"><ele>468.0</ele><time>2026-05-02T09:51:37.511Z</time></trkpt><trkpt lat="43.604163" lon="2.4382376"><ele>468.0</ele><time>2026-05-02T09:51:38.51Z</time></trkpt><trkpt lat="43.6041981" lon="2.4383634"><ele>468.0</ele><time>2026-05-02T09:51:39.51Z</time></trkpt><trkpt lat="43.6042279" lon="2.4384895"><ele>468.0</ele><time>2026-05-02T09:51:40.51Z</time></trkpt><trkpt lat="43.6042768" lon="2.4386198"><ele>468.0</ele><time>2026-05-02T09:51:41.509Z</time></trkpt><trkpt lat="43.604324" lon="2.4387706"><ele>468.0</ele><time>2026-05-02T09:51:42.51Z</time></trkpt><trkpt lat="43.6043799" lon="2.4389481"><ele>464.5</ele><time>2026-05-02T09:51:43.51Z</time></trkpt><trkpt lat="43.604402" lon="2.4391172"><ele>461.0</ele><time>2026-05-02T09:51:44.511Z</time></trkpt><trkpt lat="43.6044568" lon="2.4392802"><ele>457.5</ele><time>2026-05-02T09:51:45.51Z</time></trkpt><trkpt lat="43.6045333" lon="2.4394276"><ele>454.0</ele><time>2026-05-02T09:51:46.511Z</time></trkpt><trkpt lat="43.6046278" lon="2.4395535"><ele>460.25</ele><time>2026-05-02T09:51:47.511Z</time></trkpt><trkpt lat="43.6047216" lon="2.4396649"><ele>466.5</ele><time>2026-05-02T09:51:48.51Z</time></trkpt><trkpt lat="43.6048259" lon="2.4397712"><ele>472.75</ele><time>2026-05-02T09:51:49.51Z</time></trkpt><trkpt lat="43.6049213" lon="2.4398821"><ele>479.0</ele><time>2026-05-02T09:51:50.512Z</time></trkpt><trkpt lat="43.6050178" lon="2.4399905"><ele>479.0</ele><time>2026-05-02T09:51:51.51Z</time></trkpt><trkpt lat="43.6050916" lon="2.4400936"><ele>479.0</ele><time>2026-05-02T09:51:52.511Z</time></trkpt><trkpt lat="43.6051423" lon="2.4402054"><ele>479.0</ele><time>2026-05-02T09:51:53.51Z</time></trkpt><trkpt lat="43.605193" lon="2.4403075"><ele>479.0</ele><time>2026-05-02T09:51:54.51Z</time></trkpt><trkpt lat="43.6052358" lon="2.4404168"><ele>479.0</ele><time>2026-05-02T09:51:55.51Z</time></trkpt><trkpt lat="43.6052832" lon="2.4405398"><ele>478.8333333333333</ele><time>2026-05-02T09:51:56.51Z</time></trkpt><trkpt lat="43.6053216" lon="2.4406633"><ele>478.66666666666663</ele><time>2026-05-02T09:51:57.51Z</time></trkpt><trkpt lat="43.6053591" lon="2.4407569"><ele>478.5</ele><time>2026-05-02T09:51:58.512Z</time></trkpt><trkpt lat="43.6053899" lon="2.4408667"><ele>478.33333333333337</ele><time>2026-05-02T09:51:59.51Z</time></trkpt><trkpt lat="43.6054201" lon="2.4409672"><ele>478.1666666666667</ele><time>2026-05-02T09:52:00.51Z</time></trkpt><trkpt lat="43.6054469" lon="2.4411097"><ele>478.0</ele><time>2026-05-02T09:52:02.51Z</time></trkpt><trkpt lat="43.6054438" lon="2.4412039"><ele>478.00000000000006</ele><time>2026-05-02T09:52:03.51Z</time></trkpt><trkpt lat="43.6054378" lon="2.4412978"><ele>478.0</ele><time>2026-05-02T09:52:04.51Z</time></trkpt><trkpt lat="43.6054374" lon="2.441403"><ele>478.0</ele><time>2026-05-02T09:52:05.51Z</time></trkpt><trkpt lat="43.6054356" lon="2.4415783"><ele>478.0</ele><time>2026-05-02T09:52:07.51Z</time></trkpt><trkpt lat="43.6053969" lon="2.4416753"><ele>478.00000000000006</ele><time>2026-05-02T09:52:08.511Z</time></trkpt><trkpt lat="43.6053661" lon="2.4417673"><ele>478.0</ele><time>2026-05-02T09:52:09.511Z</time></trkpt><trkpt lat="43.6053284" lon="2.4418484"><ele>483.28571428571433</ele><time>2026-05-02T09:52:10.51Z</time></trkpt><trkpt lat="43.605304" lon="2.4419466"><ele>488.57142857142856</ele><time>2026-05-02T09:52:11.511Z</time></trkpt><trkpt lat="43.6052817" lon="2.4420343"><ele>493.8571428571429</ele><time>2026-05-02T09:52:12.509Z</time></trkpt><trkpt lat="43.6052503" lon="2.4421282"><ele>499.14285714285717</ele><time>2026-05-02T09:52:13.511Z</time></trkpt><trkpt lat="43.6052207" lon="2.4422283"><ele>504.42857142857144</ele><time>2026-05-02T09:52:14.51Z</time></trkpt><trkpt lat="43.6051797" lon="2.4423058"><ele>509.7142857142857</ele><time>2026-05-02T09:52:15.51Z</time></trkpt><trkpt lat="43.6051283" lon="2.4423745"><ele>515.0</ele><time>2026-05-02T09:52:16.51Z</time></trkpt><trkpt lat="43.6050951" lon="2.4424642"><ele>515.5</ele><time>2026-05-02T09:52:17.511Z</time></trkpt><trkpt lat="43.605061" lon="2.4425637"><ele>516.0</ele><time>2026-05-02T09:52:18.511Z</time></trkpt><trkpt lat="43.6050219" lon="2.4426483"><ele>516.5</ele><time>2026-05-02T09:52:19.512Z</time></trkpt><trkpt lat="43.6049871" lon="2.4427455"><ele>517.0</ele><time>2026-05-02T09:52:20.511Z</time></trkpt><trkpt lat="43.6049703" lon="2.4428506"><ele>517.5</ele><time>2026-05-02T09:52:21.511Z</time></trkpt><trkpt lat="43.60494" lon="2.4429506"><ele>518.0</ele><time>2026-05-02T09:52:22.51Z</time></trkpt><trkpt lat="43.604927" lon="2.4430782"><ele>518.0</ele><time>2026-05-02T09:52:23.51Z</time></trkpt><trkpt lat="43.6049284" lon="2.4432185"><ele>518.0</ele><time>2026-05-02T09:52:24.509Z</time></trkpt><trkpt lat="43.6049261" lon="2.4433162"><ele>518.0</ele><time>2026-05-02T09:52:25.51Z</time></trkpt><trkpt lat="43.6049184" lon="2.4434332"><ele>518.0</ele><time>2026-05-02T09:52:26.509Z</time></trkpt><trkpt lat="43.6048969" lon="2.4435375"><ele>518.0</ele><time>2026-05-02T09:52:27.51Z</time></trkpt><trkpt lat="43.604872" lon="2.443684"><ele>518.0</ele><time>2026-05-02T09:52:29.511Z</time></trkpt><trkpt lat="43.6048038" lon="2.4437803"><ele>517.3333333333333</ele><time>2026-05-02T09:52:31.51Z</time></trkpt><trkpt lat="43.6047192" lon="2.4438026"><ele>516.6666666666666</ele><time>2026-05-02T09:52:33.509Z</time></trkpt><trkpt lat="43.6046524" lon="2.4438143"><ele>516.0</ele><time>2026-05-02T09:52:35.51Z</time></trkpt><trkpt lat="43.6045685" lon="2.4438169"><ele>515.3333333333334</ele><time>2026-05-02T09:52:37.509Z</time></trkpt><trkpt lat="43.6044896" lon="2.4438065"><ele>514.6666666666667</ele><time>2026-05-02T09:52:40.51Z</time></trkpt><trkpt lat="43.6044278" lon="2.4437571"><ele>514.0</ele><time>2026-05-02T09:52:43.51Z</time></trkpt><trkpt lat="43.6044833" lon="2.4437133"><ele>514.6666666666667</ele><time>2026-05-02T09:52:44.508Z</time></trkpt><trkpt lat="43.6045418" lon="2.4436778"><ele>515.3333333333334</ele><time>2026-05-02T09:52:45.51Z</time></trkpt><trkpt lat="43.6046061" lon="2.4435524"><ele>516.0</ele><time>2026-05-02T09:52:47.51Z</time></trkpt><trkpt lat="43.6046137" lon="2.4434524"><ele>516.6666666666666</ele><time>2026-05-02T09:52:48.51Z</time></trkpt><trkpt lat="43.6046102" lon="2.4433112"><ele>517.3333333333333</ele><time>2026-05-02T09:52:49.51Z</time></trkpt><trkpt lat="43.6045954" lon="2.4431859"><ele>518.0</ele><time>2026-05-02T09:52:50.511Z</time></trkpt><trkpt lat="43.6046001" lon="2.4430638"><ele>518.0</ele><time>2026-05-02T09:52:51.51Z</time></trkpt><trkpt lat="43.6045904" lon="2.4429403"><ele>518.0</ele><time>2026-05-02T09:52:52.51Z</time></trkpt><trkpt lat="43.6045743" lon="2.4428294"><ele>518.0</ele><time>2026-05-02T09:52:53.51Z</time></trkpt><trkpt lat="43.6045703" lon="2.4427236"><ele>518.0</ele><time>2026-05-02T09:52:54.51Z</time></trkpt><trkpt lat="43.6045632" lon="2.4426308"><ele>518.0</ele><time>2026-05-02T09:52:55.509Z</time></trkpt><trkpt lat="43.604555" lon="2.4425336"><ele>518.0</ele><time>2026-05-02T09:52:56.51Z</time></trkpt><trkpt lat="43.6045332" lon="2.4424206"><ele>518.0</ele><time>2026-05-02T09:52:57.51Z</time></trkpt><trkpt lat="43.6045106" lon="2.4423069"><ele>518.0</ele><time>2026-05-02T09:52:58.511Z</time></trkpt><trkpt lat="43.6044889" lon="2.4422107"><ele>518.0</ele><time>2026-05-02T09:52:59.51Z</time></trkpt><trkpt lat="43.6044612" lon="2.4421033"><ele>518.0</ele><time>2026-05-02T09:53:00.511Z</time></trkpt><trkpt lat="43.6044312" lon="2.4419919"><ele>518.0</ele><time>2026-05-02T09:53:01.51Z</time></trkpt><trkpt lat="43.6043958" lon="2.4418953"><ele>518.0</ele><time>2026-05-02T09:53:02.51Z</time></trkpt><trkpt lat="43.6043679" lon="2.4418151"><ele>526.4</ele><time>2026-05-02T09:53:03.509Z</time></trkpt><trkpt lat="43.6043007" lon="2.4417259"><ele>534.8</ele><time>2026-05-02T09:53:04.509Z</time></trkpt><trkpt lat="43.6042178" lon="2.4416577"><ele>543.2</ele><time>2026-05-02T09:53:05.509Z</time></trkpt><trkpt lat="43.6041213" lon="2.4415911"><ele>551.6</ele><time>2026-05-02T09:53:06.509Z</time></trkpt><trkpt lat="43.6040447" lon="2.4415331"><ele>560.0</ele><time>2026-05-02T09:53:07.51Z</time></trkpt><trkpt lat="43.6039663" lon="2.4414713"><ele>560.0</ele><time>2026-05-02T09:53:08.51Z</time></trkpt><trkpt lat="43.6038882" lon="2.441415"><ele>560.0</ele><time>2026-05-02T09:53:09.51Z</time></trkpt><trkpt lat="43.6038083" lon="2.4413585"><ele>560.0</ele><time>2026-05-02T09:53:10.51Z</time></trkpt><trkpt lat="43.6037253" lon="2.4413045"><ele>560.0</ele><time>2026-05-02T09:53:11.509Z</time></trkpt><trkpt lat="43.6036504" lon="2.4412512"><ele>560.0</ele><time>2026-05-02T09:53:12.509Z</time></trkpt><trkpt lat="43.6035646" lon="2.4411946"><ele>560.0</ele><time>2026-05-02T09:53:13.509Z</time></trkpt><trkpt lat="43.60348" lon="2.4411467"><ele>561.4</ele><time>2026-05-02T09:53:14.509Z</time></trkpt><trkpt lat="43.6034003" lon="2.4411006"><ele>562.8</ele><time>2026-05-02T09:53:15.509Z</time></trkpt><trkpt lat="43.6033038" lon="2.4410575"><ele>564.2</ele><time>2026-05-02T09:53:16.511Z</time></trkpt><trkpt lat="43.6032095" lon="2.4410232"><ele>565.6</ele><time>2026-05-02T09:53:17.51Z</time></trkpt><trkpt lat="43.6031268" lon="2.4410132"><ele>567.0</ele><time>2026-05-02T09:53:18.51Z</time></trkpt><trkpt lat="43.6030347" lon="2.4409947"><ele>567.0</ele><time>2026-05-02T09:53:19.511Z</time></trkpt><trkpt lat="43.6029387" lon="2.4409677"><ele>567.0</ele><time>2026-05-02T09:53:20.51Z</time></trkpt><trkpt lat="43.6028554" lon="2.440949"><ele>567.0</ele><time>2026-05-02T09:53:21.51Z</time></trkpt><trkpt lat="43.602766" lon="2.4409481"><ele>567.0</ele><time>2026-05-02T09:53:22.511Z</time></trkpt><trkpt lat="43.6026701" lon="2.440946"><ele>567.0</ele><time>2026-05-02T09:53:23.509Z</time></trkpt><trkpt lat="43.6025819" lon="2.4409224"><ele>568.6</ele><time>2026-05-02T09:53:24.51Z</time></trkpt><trkpt lat="43.6024962" lon="2.4409105"><ele>570.2</ele><time>2026-05-02T09:53:25.509Z</time></trkpt><trkpt lat="43.6023978" lon="2.440888"><ele>571.8</ele><time>2026-05-02T09:53:26.51Z</time></trkpt><trkpt lat="43.6022941" lon="2.4408543"><ele>573.4</ele><time>2026-05-02T09:53:27.51Z</time></trkpt><trkpt lat="43.6021808" lon="2.4407934"><ele>575.0</ele><time>2026-05-02T09:53:28.51Z</time></trkpt><trkpt lat="43.6020721" lon="2.4407299"><ele>576.8</ele><time>2026-05-02T09:53:29.51Z</time></trkpt><trkpt lat="43.6019769" lon="2.4406633"><ele>578.6</ele><time>2026-05-02T09:53:30.508Z</time></trkpt><trkpt lat="43.6018838" lon="2.4405698"><ele>580.4</ele><time>2026-05-02T09:53:31.51Z</time></trkpt><trkpt lat="43.6018001" lon="2.4404769"><ele>582.2</ele><time>2026-05-02T09:53:32.51Z</time></trkpt><trkpt lat="43.6017183" lon="2.4403744"><ele>584.0</ele><time>2026-05-02T09:53:33.51Z</time></trkpt><trkpt lat="43.6016537" lon="2.4402713"><ele>584.4</ele><time>2026-05-02T09:53:34.509Z</time></trkpt><trkpt lat="43.601578" lon="2.4401641"><ele>584.8</ele><time>2026-05-02T09:53:35.51Z</time></trkpt><trkpt lat="43.6015023" lon="2.4400604"><ele>585.2</ele><time>2026-05-02T09:53:36.51Z</time></trkpt><trkpt lat="43.6014257" lon="2.4399507"><ele>585.6</ele><time>2026-05-02T09:53:37.51Z</time></trkpt><trkpt lat="43.6013474" lon="2.4398465"><ele>586.0</ele><time>2026-05-02T09:53:38.51Z</time></trkpt><trkpt lat="43.6012722" lon="2.4397451"><ele>586.0</ele><time>2026-05-02T09:53:39.51Z</time></trkpt><trkpt lat="43.6012021" lon="2.4396566"><ele>586.0</ele><time>2026-05-02T09:53:40.511Z</time></trkpt><trkpt lat="43.6011401" lon="2.4395761"><ele>586.0</ele><time>2026-05-02T09:53:41.51Z</time></trkpt><trkpt lat="43.6010817" lon="2.4394993"><ele>586.0</ele><time>2026-05-02T09:53:42.509Z</time></trkpt><trkpt lat="43.6010291" lon="2.4394327"><ele>586.0</ele><time>2026-05-02T09:53:43.51Z</time></trkpt><trkpt lat="43.6009503" lon="2.4393368"><ele>586.0</ele><time>2026-05-02T09:53:45.51Z</time></trkpt><trkpt lat="43.6008825" lon="2.4392846"><ele>585.5</ele><time>2026-05-02T09:53:48.51Z</time></trkpt><trkpt lat="43.6008226" lon="2.4392361"><ele>585.0</ele><time>2026-05-02T09:53:58.51Z</time></trkpt><trkpt lat="43.6007727" lon="2.4391602"><ele>584.5</ele><time>2026-05-02T09:54:00.51Z</time></trkpt><trkpt lat="43.6007488" lon="2.4390689"><ele>584.0</ele><time>2026-05-02T09:54:02.509Z</time></trkpt><trkpt lat="43.6006746" lon="2.4390884"><ele>583.5</ele><time>2026-05-02T09:54:04.51Z</time></trkpt><trkpt lat="43.6005748" lon="2.4391439"><ele>583.0</ele><time>2026-05-02T09:54:06.51Z</time></trkpt><trkpt lat="43.600447" lon="2.4391732"><ele>583.0</ele><time>2026-05-02T09:54:08.509Z</time></trkpt><trkpt lat="43.6003726" lon="2.4392003"><ele>583.0</ele><time>2026-05-02T09:54:09.509Z</time></trkpt><trkpt lat="43.6003114" lon="2.4392233"><ele>583.0</ele><time>2026-05-02T09:54:10.51Z</time></trkpt><trkpt lat="43.6002188" lon="2.4392563"><ele>583.0</ele><time>2026-05-02T09:54:12.51Z</time></trkpt><trkpt lat="43.6001375" lon="2.4392827"><ele>583.0</ele><time>2026-05-02T09:54:14.51Z</time></trkpt><trkpt lat="43.6000707" lon="2.4393127"><ele>583.0</ele><time>2026-05-02T09:54:16.509Z</time></trkpt><trkpt lat="43.5999488" lon="2.4393664"><ele>582.2857142857143</ele><time>2026-05-02T09:59:08.509Z</time></trkpt><trkpt lat="43.5998798" lon="2.4393754"><ele>581.5714285714286</ele><time>2026-05-02T09:59:11.509Z</time></trkpt><trkpt lat="43.5998132" lon="2.4393818"><ele>580.8571428571429</ele><time>2026-05-02T09:59:14.509Z</time></trkpt><trkpt lat="43.5997492" lon="2.4393828"><ele>580.1428571428571</ele><time>2026-05-02T09:59:17.509Z</time></trkpt><trkpt lat="43.5996855" lon="2.439407"><ele>579.4285714285714</ele><time>2026-05-02T09:59:24.508Z</time></trkpt><trkpt lat="43.5996239" lon="2.4394312"><ele>578.7142857142858</ele><time>2026-05-02T09:59:27.509Z</time></trkpt><trkpt lat="43.5995399" lon="2.4394455"><ele>578.0</ele><time>2026-05-02T09:59:30.508Z</time></trkpt><trkpt lat="43.5994422" lon="2.4394693"><ele>575.6666666666666</ele><time>2026-05-02T09:59:33.51Z</time></trkpt><trkpt lat="43.5993725" lon="2.4394768"><ele>573.3333333333333</ele><time>2026-05-02T09:59:35.507Z</time></trkpt><trkpt lat="43.5993065" lon="2.439439"><ele>571.0</ele><time>2026-05-02T09:59:37.509Z</time></trkpt><trkpt lat="43.5992509" lon="2.4393593"><ele>568.6666666666666</ele><time>2026-05-02T09:59:39.509Z</time></trkpt><trkpt lat="43.5991965" lon="2.4392806"><ele>566.3333333333334</ele><time>2026-05-02T09:59:41.508Z</time></trkpt><trkpt lat="43.5991413" lon="2.4391989"><ele>564.0</ele><time>2026-05-02T09:59:43.509Z</time></trkpt><trkpt lat="43.5990997" lon="2.4390838"><ele>564.0</ele><time>2026-05-02T09:59:45.508Z</time></trkpt><trkpt lat="43.5990383" lon="2.4389546"><ele>564.0</ele><time>2026-05-02T09:59:47.507Z</time></trkpt><trkpt lat="43.5989978" lon="2.4388833"><ele>564.0</ele><time>2026-05-02T09:59:48.508Z</time></trkpt><trkpt lat="43.5989213" lon="2.4387658"><ele>564.0</ele><time>2026-05-02T09:59:50.508Z</time></trkpt><trkpt lat="43.5988197" lon="2.438742"><ele>564.0</ele><time>2026-05-02T09:59:52.508Z</time></trkpt><trkpt lat="43.5987735" lon="2.4388027"><ele>564.0</ele><time>2026-05-02T09:59:54.507Z</time></trkpt><trkpt lat="43.5987183" lon="2.4389346"><ele>564.0</ele><time>2026-05-02T09:59:56.507Z</time></trkpt><trkpt lat="43.5986958" lon="2.4390593"><ele>564.0</ele><time>2026-05-02T09:59:58.508Z</time></trkpt><trkpt lat="43.5986929" lon="2.439187"><ele>564.0</ele><time>2026-05-02T10:00:00.509Z</time></trkpt><trkpt lat="43.5987009" lon="2.4393244"><ele>564.0</ele><time>2026-05-02T10:00:02.509Z</time></trkpt><trkpt lat="43.5987092" lon="2.4394206"><ele>564.0</ele><time>2026-05-02T10:00:04.508Z</time></trkpt><trkpt lat="43.5987302" lon="2.4395259"><ele>564.0</ele><time>2026-05-02T10:00:06.508Z</time></trkpt><trkpt lat="43.5987525" lon="2.439643"><ele>564.0</ele><time>2026-05-02T10:00:08.507Z</time></trkpt><trkpt lat="43.598772" lon="2.4397803"><ele>564.0</ele><time>2026-05-02T10:00:10.508Z</time></trkpt><trkpt lat="43.5988012" lon="2.4399553"><ele>564.0</ele><time>2026-05-02T10:00:13.508Z</time></trkpt><trkpt lat="43.5987746" lon="2.4400741"><ele>563.1428571428571</ele><time>2026-05-02T10:00:15.502Z</time></trkpt><trkpt lat="43.5987249" lon="2.4401506"><ele>562.2857142857142</ele><time>2026-05-02T10:00:16.508Z</time></trkpt><trkpt lat="43.5986515" lon="2.440191"><ele>561.4285714285713</ele><time>2026-05-02T10:00:17.509Z</time></trkpt><trkpt lat="43.5985828" lon="2.440209"><ele>560.5714285714286</ele><time>2026-05-02T10:00:18.509Z</time></trkpt><trkpt lat="43.5985178" lon="2.440218"><ele>559.7142857142857</ele><time>2026-05-02T10:00:19.508Z</time></trkpt><trkpt lat="43.5984498" lon="2.4402271"><ele>558.8571428571428</ele><time>2026-05-02T10:00:20.508Z</time></trkpt><trkpt lat="43.5983755" lon="2.440237"><ele>558.0</ele><time>2026-05-02T10:00:21.507Z</time></trkpt><trkpt lat="43.5983005" lon="2.440256"><ele>555.0</ele><time>2026-05-02T10:00:22.508Z</time></trkpt><trkpt lat="43.59822" lon="2.4402759"><ele>552.0</ele><time>2026-05-02T10:00:23.508Z</time></trkpt><trkpt lat="43.5981424" lon="2.4402732"><ele>549.0</ele><time>2026-05-02T10:00:24.507Z</time></trkpt><trkpt lat="43.5980617" lon="2.4402491"><ele>546.0</ele><time>2026-05-02T10:00:25.507Z</time></trkpt><trkpt lat="43.5979791" lon="2.440223"><ele>543.0</ele><time>2026-05-02T10:00:26.508Z</time></trkpt><trkpt lat="43.597907" lon="2.440205"><ele>540.0</ele><time>2026-05-02T10:00:27.508Z</time></trkpt><trkpt lat="43.5978264" lon="2.4401882"><ele>539.0</ele><time>2026-05-02T10:00:28.508Z</time></trkpt><trkpt lat="43.5977488" lon="2.4401617"><ele>538.0</ele><time>2026-05-02T10:00:29.508Z</time></trkpt><trkpt lat="43.5976718" lon="2.4401495"><ele>537.0</ele><time>2026-05-02T10:00:30.509Z</time></trkpt><trkpt lat="43.5975905" lon="2.4401508"><ele>536.0</ele><time>2026-05-02T10:00:31.507Z</time></trkpt><trkpt lat="43.5974646" lon="2.4401893"><ele>535.0</ele><time>2026-05-02T10:00:33.508Z</time></trkpt><trkpt lat="43.5973967" lon="2.4402358"><ele>534.0</ele><time>2026-05-02T10:00:34.509Z</time></trkpt><trkpt lat="43.5973304" lon="2.4402858"><ele>534.0</ele><time>2026-05-02T10:00:35.509Z</time></trkpt><trkpt lat="43.5972761" lon="2.4403453"><ele>534.0</ele><time>2026-05-02T10:00:36.509Z</time></trkpt><trkpt lat="43.5972118" lon="2.440413"><ele>534.0</ele><time>2026-05-02T10:00:37.508Z</time></trkpt><trkpt lat="43.597158" lon="2.4404737"><ele>534.0</ele><time>2026-05-02T10:00:38.507Z</time></trkpt><trkpt lat="43.5970825" lon="2.4405239"><ele>534.0</ele><time>2026-05-02T10:00:39.508Z</time></trkpt><trkpt lat="43.5969642" lon="2.4405612"><ele>534.0</ele><time>2026-05-02T10:00:41.507Z</time></trkpt><trkpt lat="43.5968982" lon="2.4405727"><ele>534.0</ele><time>2026-05-02T10:00:43.508Z</time></trkpt><trkpt lat="43.5968321" lon="2.4405963"><ele>534.0</ele><time>2026-05-02T10:00:49.509Z</time></trkpt><trkpt lat="43.5967648" lon="2.4405998"><ele>534.0</ele><time>2026-05-02T10:00:51.508Z</time></trkpt><trkpt lat="43.5966761" lon="2.4406043"><ele>534.0</ele><time>2026-05-02T10:00:53.508Z</time></trkpt><trkpt lat="43.5965908" lon="2.4406198"><ele>534.0</ele><time>2026-05-02T10:00:55.508Z</time></trkpt><trkpt lat="43.5964984" lon="2.440635"><ele>534.0</ele><time>2026-05-02T10:00:57.507Z</time></trkpt><trkpt lat="43.5963736" lon="2.4406311"><ele>534.0</ele><time>2026-05-02T10:00:59.509Z</time></trkpt><trkpt lat="43.5962739" lon="2.4406465"><ele>534.0</ele><time>2026-05-02T10:01:01.508Z</time></trkpt><trkpt lat="43.5961476" lon="2.4406473"><ele>534.0</ele><time>2026-05-02T10:01:03.507Z</time></trkpt><trkpt lat="43.5960279" lon="2.4406358"><ele>534.0</ele><time>2026-05-02T10:01:05.509Z</time></trkpt><trkpt lat="43.5959645" lon="2.4406376"><ele>534.0</ele><time>2026-05-02T10:01:06.508Z</time></trkpt><trkpt lat="43.5958585" lon="2.4406328"><ele>532.0</ele><time>2026-05-02T10:01:08.509Z</time></trkpt><trkpt lat="43.5957446" lon="2.4406248"><ele>530.0</ele><time>2026-05-02T10:01:10.508Z</time></trkpt><trkpt lat="43.5956532" lon="2.440611"><ele>528.0</ele><time>2026-05-02T10:01:12.509Z</time></trkpt><trkpt lat="43.5956428" lon="2.4407378"><ele>526.0</ele><time>2026-05-02T10:01:14.507Z</time></trkpt><trkpt lat="43.5956313" lon="2.4409177"><ele>524.0</ele><time>2026-05-02T10:01:16.506Z</time></trkpt><trkpt lat="43.5956237" lon="2.4410125"><ele>524.0</ele><time>2026-05-02T10:01:17.508Z</time></trkpt><trkpt lat="43.5956158" lon="2.4411082"><ele>524.0</ele><time>2026-05-02T10:01:18.508Z</time></trkpt><trkpt lat="43.5956154" lon="2.4412066"><ele>524.0</ele><time>2026-05-02T10:01:19.509Z</time></trkpt><trkpt lat="43.5956099" lon="2.4413002"><ele>524.0</ele><time>2026-05-02T10:01:20.508Z</time></trkpt><trkpt lat="43.5956063" lon="2.4413973"><ele>524.0</ele><time>2026-05-02T10:01:21.508Z</time></trkpt><trkpt lat="43.5955909" lon="2.4414946"><ele>524.0</ele><time>2026-05-02T10:01:22.509Z</time></trkpt><trkpt lat="43.5955621" lon="2.4415972"><ele>524.0</ele><time>2026-05-02T10:01:23.508Z</time></trkpt><trkpt lat="43.5955224" lon="2.4416926"><ele>524.0</ele><time>2026-05-02T10:01:24.508Z</time></trkpt><trkpt lat="43.5954812" lon="2.4417744"><ele>524.0</ele><time>2026-05-02T10:01:25.507Z</time></trkpt><trkpt lat="43.595446" lon="2.4418472"><ele>524.0</ele><time>2026-05-02T10:01:26.509Z</time></trkpt><trkpt lat="43.5954043" lon="2.4419308"><ele>524.0</ele><time>2026-05-02T10:01:27.508Z</time></trkpt><trkpt lat="43.595368" lon="2.4420138"><ele>524.0</ele><time>2026-05-02T10:01:28.506Z</time></trkpt><trkpt lat="43.5953199" lon="2.442095"><ele>524.0</ele><time>2026-05-02T10:01:29.507Z</time></trkpt><trkpt lat="43.5952763" lon="2.4421713"><ele>524.0</ele><time>2026-05-02T10:01:30.507Z</time></trkpt><trkpt lat="43.5952324" lon="2.4422404"><ele>522.3333333333333</ele><time>2026-05-02T10:01:31.509Z</time></trkpt><trkpt lat="43.5951912" lon="2.442317"><ele>520.6666666666666</ele><time>2026-05-02T10:01:32.508Z</time></trkpt><trkpt lat="43.5951522" lon="2.442395"><ele>519.0</ele><time>2026-05-02T10:01:33.507Z</time></trkpt><trkpt lat="43.5950783" lon="2.4425212"><ele>517.3333333333334</ele><time>2026-05-02T10:01:35.509Z</time></trkpt><trkpt lat="43.5949997" lon="2.4426496"><ele>515.6666666666667</ele><time>2026-05-02T10:01:37.508Z</time></trkpt><trkpt lat="43.5949479" lon="2.4427159"><ele>514.0</ele><time>2026-05-02T10:01:38.509Z</time></trkpt><trkpt lat="43.5948878" lon="2.4427902"><ele>514.0</ele><time>2026-05-02T10:01:39.508Z</time></trkpt><trkpt lat="43.5948343" lon="2.4428573"><ele>514.0</ele><time>2026-05-02T10:01:40.509Z</time></trkpt><trkpt lat="43.5947828" lon="2.4429095"><ele>514.0</ele><time>2026-05-02T10:01:41.507Z</time></trkpt><trkpt lat="43.594728" lon="2.4429525"><ele>514.0</ele><time>2026-05-02T10:01:42.509Z</time></trkpt><trkpt lat="43.5946371" lon="2.4430093"><ele>514.0</ele><time>2026-05-02T10:01:44.507Z</time></trkpt><trkpt lat="43.5945191" lon="2.4430848"><ele>514.0</ele><time>2026-05-02T10:01:46.507Z</time></trkpt><trkpt lat="43.5944613" lon="2.4431321"><ele>512.6</ele><time>2026-05-02T10:01:47.509Z</time></trkpt><trkpt lat="43.5944026" lon="2.4431722"><ele>511.2</ele><time>2026-05-02T10:01:48.508Z</time></trkpt><trkpt lat="43.5942962" lon="2.4432357"><ele>509.80000000000007</ele><time>2026-05-02T10:01:50.508Z</time></trkpt><trkpt lat="43.5941864" lon="2.4433014"><ele>508.40000000000003</ele><time>2026-05-02T10:01:52.508Z</time></trkpt><trkpt lat="43.5941261" lon="2.4433532"><ele>507.0</ele><time>2026-05-02T10:01:53.508Z</time></trkpt><trkpt lat="43.594021" lon="2.4434278"><ele>507.0</ele><time>2026-05-02T10:01:55.506Z</time></trkpt><trkpt lat="43.5939351" lon="2.4435282"><ele>507.00000000000006</ele><time>2026-05-02T10:01:57.509Z</time></trkpt><trkpt lat="43.5938689" lon="2.4435937"><ele>507.00000000000006</ele><time>2026-05-02T10:01:59.507Z</time></trkpt><trkpt lat="43.5937913" lon="2.4436789"><ele>507.0</ele><time>2026-05-02T10:02:01.508Z</time></trkpt><trkpt lat="43.5937351" lon="2.4437767"><ele>507.0</ele><time>2026-05-02T10:02:03.508Z</time></trkpt><trkpt lat="43.5936848" lon="2.4438848"><ele>507.3333333333333</ele><time>2026-05-02T10:02:05.507Z</time></trkpt><trkpt lat="43.5936492" lon="2.4439977"><ele>507.66666666666663</ele><time>2026-05-02T10:02:07.508Z</time></trkpt><trkpt lat="43.5936456" lon="2.4441057"><ele>508.0</ele><time>2026-05-02T10:02:09.508Z</time></trkpt><trkpt lat="43.5936992" lon="2.4442193"><ele>508.3333333333333</ele><time>2026-05-02T10:02:11.508Z</time></trkpt><trkpt lat="43.5937496" lon="2.4442757"><ele>508.66666666666663</ele><time>2026-05-02T10:02:12.508Z</time></trkpt><trkpt lat="43.5938085" lon="2.4443471"><ele>509.0</ele><time>2026-05-02T10:02:13.509Z</time></trkpt><trkpt lat="43.5938744" lon="2.4444312"><ele>509.0</ele><time>2026-05-02T10:02:14.508Z</time></trkpt><trkpt lat="43.5939494" lon="2.4445101"><ele>509.0</ele><time>2026-05-02T10:02:15.509Z</time></trkpt><trkpt lat="43.5940221" lon="2.4445855"><ele>509.0</ele><time>2026-05-02T10:02:16.508Z</time></trkpt><trkpt lat="43.5940963" lon="2.4446569"><ele>509.0</ele><time>2026-05-02T10:02:17.507Z</time></trkpt><trkpt lat="43.5941739" lon="2.4447321"><ele>509.0</ele><time>2026-05-02T10:02:18.507Z</time></trkpt><trkpt lat="43.5942583" lon="2.4447981"><ele>509.8333333333333</ele><time>2026-05-02T10:02:19.508Z</time></trkpt><trkpt lat="43.5943239" lon="2.4448711"><ele>510.66666666666663</ele><time>2026-05-02T10:02:20.507Z</time></trkpt><trkpt lat="43.5943895" lon="2.444937"><ele>511.5</ele><time>2026-05-02T10:02:21.506Z</time></trkpt><trkpt lat="43.594443" lon="2.444983"><ele>512.3333333333334</ele><time>2026-05-02T10:02:22.507Z</time></trkpt><trkpt lat="43.5945255" lon="2.4450511"><ele>513.1666666666667</ele><time>2026-05-02T10:02:24.507Z</time></trkpt><trkpt lat="43.5945857" lon="2.4451206"><ele>514.0</ele><time>2026-05-02T10:02:26.508Z</time></trkpt><trkpt lat="43.5946274" lon="2.4452288"><ele>514.0</ele><time>2026-05-02T10:02:29.509Z</time></trkpt><trkpt lat="43.5946874" lon="2.4453798"><ele>514.0</ele><time>2026-05-02T10:02:31.509Z</time></trkpt><trkpt lat="43.5947461" lon="2.4454853"><ele>514.0</ele><time>2026-05-02T10:02:32.508Z</time></trkpt><trkpt lat="43.5948184" lon="2.4456055"><ele>514.0</ele><time>2026-05-02T10:02:33.508Z</time></trkpt><trkpt lat="43.5948897" lon="2.4457214"><ele>514.0</ele><time>2026-05-02T10:02:34.508Z</time></trkpt><trkpt lat="43.5949591" lon="2.445831"><ele>511.4</ele><time>2026-05-02T10:02:35.507Z</time></trkpt><trkpt lat="43.5950166" lon="2.4459203"><ele>508.79999999999995</ele><time>2026-05-02T10:02:36.508Z</time></trkpt><trkpt lat="43.5950788" lon="2.4460153"><ele>506.20000000000005</ele><time>2026-05-02T10:02:37.507Z</time></trkpt><trkpt lat="43.5951426" lon="2.4461156"><ele>503.6</ele><time>2026-05-02T10:02:38.507Z</time></trkpt><trkpt lat="43.5952124" lon="2.4462127"><ele>501.0</ele><time>2026-05-02T10:02:39.507Z</time></trkpt><trkpt lat="43.595269" lon="2.4463104"><ele>501.0</ele><time>2026-05-02T10:02:40.508Z</time></trkpt><trkpt lat="43.5953226" lon="2.4464019"><ele>501.0</ele><time>2026-05-02T10:02:41.508Z</time></trkpt><trkpt lat="43.595364" lon="2.4464891"><ele>501.0</ele><time>2026-05-02T10:02:42.507Z</time></trkpt><trkpt lat="43.5953861" lon="2.4466504"><ele>501.0</ele><time>2026-05-02T10:02:44.507Z</time></trkpt><trkpt lat="43.5953767" lon="2.4467802"><ele>501.0</ele><time>2026-05-02T10:02:46.508Z</time></trkpt><trkpt lat="43.5954196" lon="2.4469209"><ele>501.0</ele><time>2026-05-02T10:02:48.509Z</time></trkpt><trkpt lat="43.5954991" lon="2.4469729"><ele>501.0</ele><time>2026-05-02T10:02:49.507Z</time></trkpt><trkpt lat="43.5955864" lon="2.447026"><ele>501.0</ele><time>2026-05-02T10:02:50.507Z</time></trkpt><trkpt lat="43.595683" lon="2.4470688"><ele>501.0</ele><time>2026-05-02T10:02:51.508Z</time></trkpt><trkpt lat="43.5957811" lon="2.4470995"><ele>501.0</ele><time>2026-05-02T10:02:52.506Z</time></trkpt><trkpt lat="43.5958882" lon="2.4471156"><ele>501.0</ele><time>2026-05-02T10:02:53.507Z</time></trkpt><trkpt lat="43.5959859" lon="2.4471255"><ele>501.0</ele><time>2026-05-02T10:02:54.509Z</time></trkpt><trkpt lat="43.596069" lon="2.4471328"><ele>501.0</ele><time>2026-05-02T10:02:55.508Z</time></trkpt><trkpt lat="43.5961482" lon="2.4471403"><ele>501.0</ele><time>2026-05-02T10:02:56.508Z</time></trkpt><trkpt lat="43.5962273" lon="2.4471513"><ele>501.0</ele><time>2026-05-02T10:02:57.509Z</time></trkpt><trkpt lat="43.5963033" lon="2.4471751"><ele>501.0</ele><time>2026-05-02T10:02:58.508Z</time></trkpt><trkpt lat="43.596384" lon="2.447202"><ele>502.5</ele><time>2026-05-02T10:02:59.507Z</time></trkpt><trkpt lat="43.5964637" lon="2.447242"><ele>504.0</ele><time>2026-05-02T10:03:00.508Z</time></trkpt><trkpt lat="43.5965452" lon="2.4472749"><ele>505.5</ele><time>2026-05-02T10:03:01.509Z</time></trkpt><trkpt lat="43.5966207" lon="2.4473086"><ele>507.0</ele><time>2026-05-02T10:03:02.508Z</time></trkpt><trkpt lat="43.5966928" lon="2.4473543"><ele>508.5</ele><time>2026-05-02T10:03:03.507Z</time></trkpt><trkpt lat="43.5967598" lon="2.4474065"><ele>510.0</ele><time>2026-05-02T10:03:04.506Z</time></trkpt><trkpt lat="43.5968236" lon="2.4474572"><ele>510.0</ele><time>2026-05-02T10:03:05.507Z</time></trkpt><trkpt lat="43.5968847" lon="2.447511"><ele>510.0</ele><time>2026-05-02T10:03:06.508Z</time></trkpt><trkpt lat="43.5969484" lon="2.4475766"><ele>510.0</ele><time>2026-05-02T10:03:07.507Z</time></trkpt><trkpt lat="43.5970181" lon="2.4476504"><ele>510.0</ele><time>2026-05-02T10:03:08.508Z</time></trkpt><trkpt lat="43.5970822" lon="2.4477441"><ele>510.0</ele><time>2026-05-02T10:03:09.507Z</time></trkpt><trkpt lat="43.5971399" lon="2.4478314"><ele>510.0</ele><time>2026-05-02T10:03:10.508Z</time></trkpt><trkpt lat="43.5971895" lon="2.4479053"><ele>511.5</ele><time>2026-05-02T10:03:11.509Z</time></trkpt><trkpt lat="43.597229" lon="2.4479794"><ele>513.0</ele><time>2026-05-02T10:03:12.506Z</time></trkpt><trkpt lat="43.5972899" lon="2.4481224"><ele>514.5</ele><time>2026-05-02T10:03:14.508Z</time></trkpt><trkpt lat="43.5973221" lon="2.4482093"><ele>516.0</ele><time>2026-05-02T10:03:15.506Z</time></trkpt><trkpt lat="43.5973519" lon="2.4483052"><ele>517.5</ele><time>2026-05-02T10:03:16.507Z</time></trkpt><trkpt lat="43.5973789" lon="2.4484145"><ele>519.0</ele><time>2026-05-02T10:03:17.507Z</time></trkpt><trkpt lat="43.5974196" lon="2.4485321"><ele>519.0</ele><time>2026-05-02T10:03:18.507Z</time></trkpt><trkpt lat="43.597453" lon="2.4486285"><ele>519.0</ele><time>2026-05-02T10:03:19.508Z</time></trkpt><trkpt lat="43.5974954" lon="2.4487247"><ele>519.0</ele><time>2026-05-02T10:03:20.508Z</time></trkpt><trkpt lat="43.5975454" lon="2.4488365"><ele>519.0</ele><time>2026-05-02T10:03:21.507Z</time></trkpt><trkpt lat="43.5975892" lon="2.4489244"><ele>519.0</ele><time>2026-05-02T10:03:22.507Z</time></trkpt><trkpt lat="43.5976341" lon="2.4490041"><ele>519.0</ele><time>2026-05-02T10:03:23.507Z</time></trkpt><trkpt lat="43.5976848" lon="2.4490948"><ele>520.3333333333334</ele><time>2026-05-02T10:03:24.507Z</time></trkpt><trkpt lat="43.5977303" lon="2.4491792"><ele>521.6666666666666</ele><time>2026-05-02T10:03:25.508Z</time></trkpt><trkpt lat="43.5977766" lon="2.4492525"><ele>523.0</ele><time>2026-05-02T10:03:26.508Z</time></trkpt><trkpt lat="43.5978355" lon="2.4493134"><ele>524.3333333333333</ele><time>2026-05-02T10:03:27.507Z</time></trkpt><trkpt lat="43.5978958" lon="2.4493738"><ele>525.6666666666666</ele><time>2026-05-02T10:03:28.507Z</time></trkpt><trkpt lat="43.5979704" lon="2.449448"><ele>527.0</ele><time>2026-05-02T10:03:29.507Z</time></trkpt><trkpt lat="43.598045" lon="2.4495284"><ele>527.4</ele><time>2026-05-02T10:03:30.507Z</time></trkpt><trkpt lat="43.5981324" lon="2.4496086"><ele>527.8000000000001</ele><time>2026-05-02T10:03:31.507Z</time></trkpt><trkpt lat="43.5982067" lon="2.4496679"><ele>528.2</ele><time>2026-05-02T10:03:32.507Z</time></trkpt><trkpt lat="43.5982747" lon="2.4497002"><ele>528.6</ele><time>2026-05-02T10:03:33.507Z</time></trkpt><trkpt lat="43.5983438" lon="2.4497481"><ele>529.0</ele><time>2026-05-02T10:03:34.507Z</time></trkpt><trkpt lat="43.5984548" lon="2.4498521"><ele>529.3333333333334</ele><time>2026-05-02T10:03:36.507Z</time></trkpt><trkpt lat="43.5985051" lon="2.4499096"><ele>529.6666666666667</ele><time>2026-05-02T10:03:37.507Z</time></trkpt><trkpt lat="43.5985437" lon="2.4499863"><ele>530.0</ele><time>2026-05-02T10:03:38.507Z</time></trkpt><trkpt lat="43.5985839" lon="2.450064"><ele>530.3333333333334</ele><time>2026-05-02T10:03:39.506Z</time></trkpt><trkpt lat="43.5986583" lon="2.4501894"><ele>530.6666666666666</ele><time>2026-05-02T10:03:41.508Z</time></trkpt><trkpt lat="43.5987015" lon="2.4502679"><ele>531.0</ele><time>2026-05-02T10:03:42.507Z</time></trkpt><trkpt lat="43.5987408" lon="2.4503383"><ele>532.3333333333334</ele><time>2026-05-02T10:03:43.508Z</time></trkpt><trkpt lat="43.5987876" lon="2.4504291"><ele>533.6666666666666</ele><time>2026-05-02T10:03:44.507Z</time></trkpt><trkpt lat="43.5988267" lon="2.4505127"><ele>535.0</ele><time>2026-05-02T10:03:45.507Z</time></trkpt><trkpt lat="43.5988791" lon="2.4506247"><ele>536.3333333333333</ele><time>2026-05-02T10:03:46.507Z</time></trkpt><trkpt lat="43.598928" lon="2.450738"><ele>537.6666666666666</ele><time>2026-05-02T10:03:47.507Z</time></trkpt><trkpt lat="43.5989819" lon="2.4508396"><ele>539.0</ele><time>2026-05-02T10:03:48.508Z</time></trkpt><trkpt lat="43.5990358" lon="2.4509507"><ele>539.1666666666666</ele><time>2026-05-02T10:03:49.508Z</time></trkpt><trkpt lat="43.5990912" lon="2.4510694"><ele>539.3333333333333</ele><time>2026-05-02T10:03:50.506Z</time></trkpt><trkpt lat="43.5991345" lon="2.4511795"><ele>539.5</ele><time>2026-05-02T10:03:51.507Z</time></trkpt><trkpt lat="43.5991647" lon="2.4512668"><ele>539.6666666666666</ele><time>2026-05-02T10:03:52.507Z</time></trkpt><trkpt lat="43.5991935" lon="2.4513586"><ele>539.8333333333334</ele><time>2026-05-02T10:03:53.506Z</time></trkpt><trkpt lat="43.5992338" lon="2.4514343"><ele>540.0</ele><time>2026-05-02T10:03:54.507Z</time></trkpt><trkpt lat="43.5992527" lon="2.4515228"><ele>542.1666666666666</ele><time>2026-05-02T10:03:55.507Z</time></trkpt><trkpt lat="43.5992729" lon="2.4516096"><ele>544.3333333333334</ele><time>2026-05-02T10:03:56.507Z</time></trkpt><trkpt lat="43.599298" lon="2.4517666"><ele>546.5</ele><time>2026-05-02T10:03:58.507Z</time></trkpt><trkpt lat="43.5992962" lon="2.4518559"><ele>548.6666666666667</ele><time>2026-05-02T10:03:59.508Z</time></trkpt><trkpt lat="43.5992843" lon="2.4519486"><ele>550.8333333333334</ele><time>2026-05-02T10:04:00.508Z</time></trkpt><trkpt lat="43.5992881" lon="2.4520411"><ele>553.0</ele><time>2026-05-02T10:04:01.506Z</time></trkpt><trkpt lat="43.5992977" lon="2.4521356"><ele>554.4285714285714</ele><time>2026-05-02T10:04:02.506Z</time></trkpt><trkpt lat="43.599328" lon="2.4522192"><ele>555.8571428571429</ele><time>2026-05-02T10:04:03.508Z</time></trkpt><trkpt lat="43.5993649" lon="2.4523342"><ele>557.2857142857142</ele><time>2026-05-02T10:04:04.507Z</time></trkpt><trkpt lat="43.5993838" lon="2.4524326"><ele>558.7142857142858</ele><time>2026-05-02T10:04:05.507Z</time></trkpt><trkpt lat="43.599407" lon="2.4525216"><ele>560.1428571428571</ele><time>2026-05-02T10:04:06.506Z</time></trkpt><trkpt lat="43.599422" lon="2.452615"><ele>561.5714285714286</ele><time>2026-05-02T10:04:07.507Z</time></trkpt><trkpt lat="43.5994447" lon="2.4527092"><ele>563.0</ele><time>2026-05-02T10:04:08.508Z</time></trkpt><trkpt lat="43.5994953" lon="2.4527976"><ele>564.5</ele><time>2026-05-02T10:04:09.506Z</time></trkpt><trkpt lat="43.5995317" lon="2.4528844"><ele>566.0</ele><time>2026-05-02T10:04:10.507Z</time></trkpt><trkpt lat="43.5995669" lon="2.452957"><ele>567.5</ele><time>2026-05-02T10:04:11.508Z</time></trkpt><trkpt lat="43.5996072" lon="2.4530347"><ele>569.0</ele><time>2026-05-02T10:04:12.508Z</time></trkpt><trkpt lat="43.5996698" lon="2.4531356"><ele>570.5</ele><time>2026-05-02T10:04:14.507Z</time></trkpt><trkpt lat="43.5997529" lon="2.4532475"><ele>572.0</ele><time>2026-05-02T10:04:16.508Z</time></trkpt><trkpt lat="43.5997953" lon="2.4533147"><ele>573.4</ele><time>2026-05-02T10:04:17.507Z</time></trkpt><trkpt lat="43.5998818" lon="2.4534365"><ele>574.8000000000001</ele><time>2026-05-02T10:04:19.507Z</time></trkpt><trkpt lat="43.5999454" lon="2.4535125"><ele>576.2</ele><time>2026-05-02T10:04:21.507Z</time></trkpt><trkpt lat="43.6000009" lon="2.4535768"><ele>577.6</ele><time>2026-05-02T10:04:23.505Z</time></trkpt><trkpt lat="43.600062" lon="2.4536768"><ele>579.0</ele><time>2026-05-02T10:04:25.507Z</time></trkpt><trkpt lat="43.6001465" lon="2.4537776"><ele>581.6</ele><time>2026-05-02T10:04:27.508Z</time></trkpt><trkpt lat="43.6002272" lon="2.4538841"><ele>584.2</ele><time>2026-05-02T10:04:29.508Z</time></trkpt><trkpt lat="43.6003133" lon="2.4539804"><ele>586.8000000000001</ele><time>2026-05-02T10:04:31.508Z</time></trkpt><trkpt lat="43.6003609" lon="2.4540462"><ele>589.4</ele><time>2026-05-02T10:04:32.507Z</time></trkpt><trkpt lat="43.6004139" lon="2.4541145"><ele>592.0</ele><time>2026-05-02T10:04:33.507Z</time></trkpt><trkpt lat="43.6004974" lon="2.4542077"><ele>593.5</ele><time>2026-05-02T10:04:35.507Z</time></trkpt><trkpt lat="43.6005403" lon="2.4542776"><ele>595.0</ele><time>2026-05-02T10:04:38.507Z</time></trkpt><trkpt lat="43.6006037" lon="2.4543553"><ele>596.5</ele><time>2026-05-02T10:08:23.506Z</time></trkpt><trkpt lat="43.6005926" lon="2.4544452"><ele>598.0</ele><time>2026-05-02T10:08:25.505Z</time></trkpt><trkpt lat="43.6005517" lon="2.4545187"><ele>599.5</ele><time>2026-05-02T10:08:26.507Z</time></trkpt><trkpt lat="43.6005044" lon="2.4546031"><ele>601.0</ele><time>2026-05-02T10:08:27.506Z</time></trkpt><trkpt lat="43.6004398" lon="2.4547331"><ele>601.0</ele><time>2026-05-02T10:08:28.505Z</time></trkpt><trkpt lat="43.6003647" lon="2.4548566"><ele>601.0</ele><time>2026-05-02T10:08:29.507Z</time></trkpt><trkpt lat="43.600281" lon="2.4549958"><ele>601.0</ele><time>2026-05-02T10:08:30.506Z</time></trkpt><trkpt lat="43.6001989" lon="2.455139"><ele>601.0</ele><time>2026-05-02T10:08:31.506Z</time></trkpt><trkpt lat="43.6001137" lon="2.455298"><ele>602.75</ele><time>2026-05-02T10:08:32.505Z</time></trkpt><trkpt lat="43.60004" lon="2.4554614"><ele>604.5</ele><time>2026-05-02T10:08:33.505Z</time></trkpt><trkpt lat="43.5999732" lon="2.4556204"><ele>606.25</ele><time>2026-05-02T10:08:34.506Z</time></trkpt><trkpt lat="43.5999171" lon="2.4557753"><ele>608.0</ele><time>2026-05-02T10:08:35.506Z</time></trkpt><trkpt lat="43.599855" lon="2.4559304"><ele>608.0</ele><time>2026-05-02T10:08:36.506Z</time></trkpt><trkpt lat="43.5997932" lon="2.4560784"><ele>608.0</ele><time>2026-05-02T10:08:37.506Z</time></trkpt><trkpt lat="43.5997424" lon="2.4562165"><ele>608.0</ele><time>2026-05-02T10:08:38.506Z</time></trkpt><trkpt lat="43.5996853" lon="2.4563384"><ele>608.0</ele><time>2026-05-02T10:08:39.507Z</time></trkpt><trkpt lat="43.5996241" lon="2.4564542"><ele>608.0</ele><time>2026-05-02T10:08:40.507Z</time></trkpt><trkpt lat="43.599555" lon="2.4565745"><ele>608.25</ele><time>2026-05-02T10:08:41.507Z</time></trkpt><trkpt lat="43.5994796" lon="2.4567007"><ele>608.5</ele><time>2026-05-02T10:08:42.506Z</time></trkpt><trkpt lat="43.5994003" lon="2.4568311"><ele>608.75</ele><time>2026-05-02T10:08:43.506Z</time></trkpt><trkpt lat="43.5993244" lon="2.4569532"><ele>609.0</ele><time>2026-05-02T10:08:44.507Z</time></trkpt><trkpt lat="43.5992454" lon="2.4570745"><ele>609.25</ele><time>2026-05-02T10:08:45.507Z</time></trkpt><trkpt lat="43.5991692" lon="2.4571955"><ele>609.5</ele><time>2026-05-02T10:08:46.507Z</time></trkpt><trkpt lat="43.5990853" lon="2.4573116"><ele>609.75</ele><time>2026-05-02T10:08:47.505Z</time></trkpt><trkpt lat="43.5990046" lon="2.4574343"><ele>610.0</ele><time>2026-05-02T10:08:48.505Z</time></trkpt><trkpt lat="43.5989343" lon="2.457559"><ele>610.0</ele><time>2026-05-02T10:08:49.506Z</time></trkpt><trkpt lat="43.5988754" lon="2.4576932"><ele>610.0</ele><time>2026-05-02T10:08:50.506Z</time></trkpt><trkpt lat="43.5988294" lon="2.4578285"><ele>610.0</ele><time>2026-05-02T10:08:51.505Z</time></trkpt><trkpt lat="43.5987881" lon="2.4579964"><ele>610.0</ele><time>2026-05-02T10:08:52.506Z</time></trkpt><trkpt lat="43.5987554" lon="2.458166"><ele>608.25</ele><time>2026-05-02T10:08:53.506Z</time></trkpt><trkpt lat="43.598728" lon="2.4583333"><ele>606.5</ele><time>2026-05-02T10:08:54.506Z</time></trkpt><trkpt lat="43.5987111" lon="2.458501"><ele>604.75</ele><time>2026-05-02T10:08:55.506Z</time></trkpt><trkpt lat="43.5987162" lon="2.4586693"><ele>603.0</ele><time>2026-05-02T10:08:56.507Z</time></trkpt><trkpt lat="43.598728" lon="2.4588329"><ele>603.0</ele><time>2026-05-02T10:08:57.506Z</time></trkpt><trkpt lat="43.5987399" lon="2.4589932"><ele>603.0</ele><time>2026-05-02T10:08:58.506Z</time></trkpt><trkpt lat="43.5987738" lon="2.4591429"><ele>603.0</ele><time>2026-05-02T10:08:59.506Z</time></trkpt><trkpt lat="43.5988266" lon="2.4592886"><ele>603.0</ele><time>2026-05-02T10:09:00.504Z</time></trkpt><trkpt lat="43.5988852" lon="2.4594069"><ele>603.0</ele><time>2026-05-02T10:09:01.506Z</time></trkpt><trkpt lat="43.5989412" lon="2.459518"><ele>603.0</ele><time>2026-05-02T10:09:02.505Z</time></trkpt><trkpt lat="43.598991" lon="2.4596027"><ele>603.0</ele><time>2026-05-02T10:09:03.506Z</time></trkpt><trkpt lat="43.5990393" lon="2.4596609"><ele>603.0</ele><time>2026-05-02T10:09:04.507Z</time></trkpt><trkpt lat="43.5991224" lon="2.4597466"><ele>603.0</ele><time>2026-05-02T10:09:06.507Z</time></trkpt><trkpt lat="43.5991786" lon="2.459875"><ele>602.4</ele><time>2026-05-02T10:09:08.507Z</time></trkpt><trkpt lat="43.5992279" lon="2.4599341"><ele>601.8</ele><time>2026-05-02T10:09:09.506Z</time></trkpt><trkpt lat="43.5993211" lon="2.4600074"><ele>601.2</ele><time>2026-05-02T10:09:10.506Z</time></trkpt><trkpt lat="43.5994182" lon="2.4600861"><ele>600.6</ele><time>2026-05-02T10:09:11.506Z</time></trkpt><trkpt lat="43.5995323" lon="2.4601751"><ele>600.0</ele><time>2026-05-02T10:09:12.506Z</time></trkpt><trkpt lat="43.5996453" lon="2.4602658"><ele>599.5</ele><time>2026-05-02T10:09:13.507Z</time></trkpt><trkpt lat="43.5997593" lon="2.4603705"><ele>599.0</ele><time>2026-05-02T10:09:14.506Z</time></trkpt><trkpt lat="43.5998635" lon="2.4604907"><ele>598.5</ele><time>2026-05-02T10:09:15.507Z</time></trkpt><trkpt lat="43.5999767" lon="2.4606008"><ele>598.0</ele><time>2026-05-02T10:09:16.505Z</time></trkpt><trkpt lat="43.6000962" lon="2.4607128"><ele>599.0</ele><time>2026-05-02T10:09:17.506Z</time></trkpt><trkpt lat="43.6002118" lon="2.4608133"><ele>600.0</ele><time>2026-05-02T10:09:18.505Z</time></trkpt><trkpt lat="43.6003502" lon="2.4609038"><ele>601.0</ele><time>2026-05-02T10:09:19.505Z</time></trkpt><trkpt lat="43.6004796" lon="2.4609834"><ele>602.0</ele><time>2026-05-02T10:09:20.505Z</time></trkpt><trkpt lat="43.6006174" lon="2.4610574"><ele>602.0</ele><time>2026-05-02T10:09:21.505Z</time></trkpt><trkpt lat="43.6007455" lon="2.4611412"><ele>602.0</ele><time>2026-05-02T10:09:22.505Z</time></trkpt><trkpt lat="43.6008674" lon="2.4612098"><ele>602.0</ele><time>2026-05-02T10:09:23.505Z</time></trkpt><trkpt lat="43.6010022" lon="2.4612634"><ele>602.0</ele><time>2026-05-02T10:09:24.506Z</time></trkpt><trkpt lat="43.6011434" lon="2.4613019"><ele>600.75</ele><time>2026-05-02T10:09:25.504Z</time></trkpt><trkpt lat="43.6012861" lon="2.4613263"><ele>599.5</ele><time>2026-05-02T10:09:26.507Z</time></trkpt><trkpt lat="43.6014215" lon="2.4613476"><ele>598.25</ele><time>2026-05-02T10:09:27.507Z</time></trkpt><trkpt lat="43.6015499" lon="2.4613592"><ele>597.0</ele><time>2026-05-02T10:09:28.507Z</time></trkpt><trkpt lat="43.601683" lon="2.4613868"><ele>597.0</ele><time>2026-05-02T10:09:29.506Z</time></trkpt><trkpt lat="43.6018161" lon="2.4614236"><ele>597.0</ele><time>2026-05-02T10:09:30.505Z</time></trkpt><trkpt lat="43.6019445" lon="2.4614747"><ele>597.0</ele><time>2026-05-02T10:09:31.505Z</time></trkpt><trkpt lat="43.602073" lon="2.4615289"><ele>597.0</ele><time>2026-05-02T10:09:32.505Z</time></trkpt><trkpt lat="43.6022017" lon="2.4615895"><ele>596.25</ele><time>2026-05-02T10:09:33.505Z</time></trkpt><trkpt lat="43.6023377" lon="2.4616621"><ele>595.5</ele><time>2026-05-02T10:09:34.506Z</time></trkpt><trkpt lat="43.6024656" lon="2.4617338"><ele>594.75</ele><time>2026-05-02T10:09:35.507Z</time></trkpt><trkpt lat="43.6025969" lon="2.4618237"><ele>594.0</ele><time>2026-05-02T10:09:36.506Z</time></trkpt><trkpt lat="43.6027175" lon="2.4619075"><ele>594.0</ele><time>2026-05-02T10:09:37.507Z</time></trkpt><trkpt lat="43.6028259" lon="2.4620003"><ele>594.0</ele><time>2026-05-02T10:09:38.506Z</time></trkpt><trkpt lat="43.6029408" lon="2.4621179"><ele>594.0</ele><time>2026-05-02T10:09:39.504Z</time></trkpt><trkpt lat="43.6030427" lon="2.462249"><ele>594.0</ele><time>2026-05-02T10:09:40.506Z</time></trkpt><trkpt lat="43.6031176" lon="2.4623949"><ele>592.6</ele><time>2026-05-02T10:09:41.507Z</time></trkpt><trkpt lat="43.6031868" lon="2.4625389"><ele>591.2</ele><time>2026-05-02T10:09:42.504Z</time></trkpt><trkpt lat="43.60324" lon="2.4626667"><ele>589.8000000000001</ele><time>2026-05-02T10:09:43.505Z</time></trkpt><trkpt lat="43.6032824" lon="2.4627894"><ele>588.4</ele><time>2026-05-02T10:09:44.505Z</time></trkpt><trkpt lat="43.6033423" lon="2.4629002"><ele>587.0</ele><time>2026-05-02T10:09:45.506Z</time></trkpt><trkpt lat="43.6033839" lon="2.4630159"><ele>589.6666666666666</ele><time>2026-05-02T10:09:46.507Z</time></trkpt><trkpt lat="43.6034117" lon="2.4631158"><ele>592.3333333333333</ele><time>2026-05-02T10:09:47.506Z</time></trkpt><trkpt lat="43.6034533" lon="2.4632201"><ele>595.0</ele><time>2026-05-02T10:09:48.505Z</time></trkpt><trkpt lat="43.6034851" lon="2.4633233"><ele>597.6666666666666</ele><time>2026-05-02T10:09:49.506Z</time></trkpt><trkpt lat="43.6035316" lon="2.4634339"><ele>600.3333333333334</ele><time>2026-05-02T10:09:50.507Z</time></trkpt><trkpt lat="43.6035715" lon="2.4635134"><ele>603.0</ele><time>2026-05-02T10:09:51.506Z</time></trkpt><trkpt lat="43.6036084" lon="2.4635949"><ele>603.0</ele><time>2026-05-02T10:09:52.505Z</time></trkpt><trkpt lat="43.603651" lon="2.4636855"><ele>603.0</ele><time>2026-05-02T10:09:53.505Z</time></trkpt><trkpt lat="43.6036899" lon="2.4637793"><ele>603.0</ele><time>2026-05-02T10:09:54.504Z</time></trkpt><trkpt lat="43.6037499" lon="2.4638755"><ele>603.0</ele><time>2026-05-02T10:09:55.505Z</time></trkpt><trkpt lat="43.6037812" lon="2.4639637"><ele>603.0</ele><time>2026-05-02T10:09:56.506Z</time></trkpt><trkpt lat="43.6038222" lon="2.464036"><ele>603.0</ele><time>2026-05-02T10:09:57.506Z</time></trkpt><trkpt lat="43.6038726" lon="2.4641667"><ele>600.5</ele><time>2026-05-02T10:09:59.504Z</time></trkpt><trkpt lat="43.6039444" lon="2.4643051"><ele>598.0</ele><time>2026-05-02T10:10:01.505Z</time></trkpt><trkpt lat="43.6039828" lon="2.464386"><ele>595.5</ele><time>2026-05-02T10:10:02.504Z</time></trkpt><trkpt lat="43.6040279" lon="2.4644634"><ele>593.0</ele><time>2026-05-02T10:10:03.507Z</time></trkpt><trkpt lat="43.6040834" lon="2.4645597"><ele>590.5</ele><time>2026-05-02T10:10:04.507Z</time></trkpt><trkpt lat="43.6041298" lon="2.4646514"><ele>588.0</ele><time>2026-05-02T10:10:05.505Z</time></trkpt><trkpt lat="43.6041639" lon="2.4647607"><ele>588.0</ele><time>2026-05-02T10:10:06.505Z</time></trkpt><trkpt lat="43.6042233" lon="2.4648716"><ele>588.0</ele><time>2026-05-02T10:10:07.505Z</time></trkpt><trkpt lat="43.6042637" lon="2.4649849"><ele>588.0</ele><time>2026-05-02T10:10:08.506Z</time></trkpt><trkpt lat="43.6043022" lon="2.4650869"><ele>588.0</ele><time>2026-05-02T10:10:09.506Z</time></trkpt><trkpt lat="43.6043277" lon="2.4652018"><ele>588.0</ele><time>2026-05-02T10:10:10.505Z</time></trkpt><trkpt lat="43.6043451" lon="2.4653262"><ele>587.0</ele><time>2026-05-02T10:10:11.505Z</time></trkpt><trkpt lat="43.6043154" lon="2.4654544"><ele>586.0</ele><time>2026-05-02T10:10:12.506Z</time></trkpt><trkpt lat="43.6042832" lon="2.4655643"><ele>585.0</ele><time>2026-05-02T10:10:13.505Z</time></trkpt><trkpt lat="43.6042615" lon="2.4656729"><ele>584.0</ele><time>2026-05-02T10:10:14.505Z</time></trkpt><trkpt lat="43.6042272" lon="2.4657785"><ele>583.0</ele><time>2026-05-02T10:10:15.507Z</time></trkpt><trkpt lat="43.6041986" lon="2.4658849"><ele>582.0</ele><time>2026-05-02T10:10:16.506Z</time></trkpt><trkpt lat="43.6041643" lon="2.4659913"><ele>582.0</ele><time>2026-05-02T10:10:17.506Z</time></trkpt><trkpt lat="43.6041282" lon="2.466094"><ele>582.0</ele><time>2026-05-02T10:10:18.504Z</time></trkpt><trkpt lat="43.6040985" lon="2.4661952"><ele>582.0</ele><time>2026-05-02T10:10:19.507Z</time></trkpt><trkpt lat="43.6040654" lon="2.4662984"><ele>582.0</ele><time>2026-05-02T10:10:20.506Z</time></trkpt><trkpt lat="43.6040349" lon="2.4664011"><ele>582.0</ele><time>2026-05-02T10:10:21.505Z</time></trkpt><trkpt lat="43.6040029" lon="2.466501"><ele>582.0</ele><time>2026-05-02T10:10:22.504Z</time></trkpt><trkpt lat="43.6039652" lon="2.4666063"><ele>580.0</ele><time>2026-05-02T10:10:23.506Z</time></trkpt><trkpt lat="43.6039477" lon="2.4667125"><ele>578.0</ele><time>2026-05-02T10:10:24.506Z</time></trkpt><trkpt lat="43.6039383" lon="2.4668087"><ele>576.0</ele><time>2026-05-02T10:10:25.505Z</time></trkpt><trkpt lat="43.6039473" lon="2.4669143"><ele>574.0</ele><time>2026-05-02T10:10:26.506Z</time></trkpt><trkpt lat="43.6039731" lon="2.4670188"><ele>572.0</ele><time>2026-05-02T10:10:27.506Z</time></trkpt><trkpt lat="43.6039981" lon="2.467125"><ele>570.0</ele><time>2026-05-02T10:10:28.505Z</time></trkpt><trkpt lat="43.6040517" lon="2.4671983"><ele>570.0</ele><time>2026-05-02T10:10:29.504Z</time></trkpt><trkpt lat="43.6041073" lon="2.4672606"><ele>570.0</ele><time>2026-05-02T10:10:30.507Z</time></trkpt><trkpt lat="43.6041688" lon="2.4673159"><ele>570.0</ele><time>2026-05-02T10:10:31.505Z</time></trkpt><trkpt lat="43.6042838" lon="2.4673495"><ele>570.0</ele><time>2026-05-02T10:10:33.506Z</time></trkpt><trkpt lat="43.604348" lon="2.4673572"><ele>570.0</ele><time>2026-05-02T10:10:34.505Z</time></trkpt><trkpt lat="43.6044136" lon="2.4673468"><ele>570.0</ele><time>2026-05-02T10:10:35.506Z</time></trkpt><trkpt lat="43.6044819" lon="2.4673158"><ele>570.3333333333334</ele><time>2026-05-02T10:10:36.506Z</time></trkpt><trkpt lat="43.6045438" lon="2.4672834"><ele>570.6666666666666</ele><time>2026-05-02T10:10:37.505Z</time></trkpt><trkpt lat="43.6046104" lon="2.4672302"><ele>571.0</ele><time>2026-05-02T10:10:38.505Z</time></trkpt><trkpt lat="43.6046604" lon="2.4671616"><ele>571.3333333333333</ele><time>2026-05-02T10:10:39.506Z</time></trkpt><trkpt lat="43.6047125" lon="2.4670883"><ele>571.6666666666666</ele><time>2026-05-02T10:10:40.507Z</time></trkpt><trkpt lat="43.6047708" lon="2.4670134"><ele>572.0</ele><time>2026-05-02T10:10:41.505Z</time></trkpt><trkpt lat="43.604835" lon="2.4669232"><ele>572.0</ele><time>2026-05-02T10:10:42.505Z</time></trkpt><trkpt lat="43.6048909" lon="2.4668378"><ele>572.0</ele><time>2026-05-02T10:10:43.505Z</time></trkpt><trkpt lat="43.6049534" lon="2.4667673"><ele>572.0</ele><time>2026-05-02T10:10:44.505Z</time></trkpt><trkpt lat="43.6050154" lon="2.4667054"><ele>572.0</ele><time>2026-05-02T10:10:45.506Z</time></trkpt><trkpt lat="43.6050819" lon="2.4666522"><ele>572.0</ele><time>2026-05-02T10:10:46.504Z</time></trkpt><trkpt lat="43.6051604" lon="2.4665972"><ele>572.0</ele><time>2026-05-02T10:10:47.506Z</time></trkpt><trkpt lat="43.6052363" lon="2.4665228"><ele>572.0</ele><time>2026-05-02T10:10:48.506Z</time></trkpt><trkpt lat="43.6053131" lon="2.4664484"><ele>572.0</ele><time>2026-05-02T10:10:49.504Z</time></trkpt><trkpt lat="43.6053823" lon="2.4663896"><ele>572.0</ele><time>2026-05-02T10:10:50.506Z</time></trkpt><trkpt lat="43.6054526" lon="2.4663263"><ele>572.0</ele><time>2026-05-02T10:10:51.506Z</time></trkpt><trkpt lat="43.6055287" lon="2.4662644"><ele>572.0</ele><time>2026-05-02T10:10:52.505Z</time></trkpt><trkpt lat="43.6055971" lon="2.4662027"><ele>572.0</ele><time>2026-05-02T10:10:53.506Z</time></trkpt><trkpt lat="43.6056656" lon="2.4661525"><ele>571.8333333333333</ele><time>2026-05-02T10:10:54.504Z</time></trkpt><trkpt lat="43.6057302" lon="2.4661042"><ele>571.6666666666666</ele><time>2026-05-02T10:10:55.505Z</time></trkpt><trkpt lat="43.6057996" lon="2.4660483"><ele>571.5</ele><time>2026-05-02T10:10:56.506Z</time></trkpt><trkpt lat="43.6058722" lon="2.4660004"><ele>571.3333333333334</ele><time>2026-05-02T10:10:57.504Z</time></trkpt><trkpt lat="43.6059693" lon="2.4659645"><ele>571.1666666666667</ele><time>2026-05-02T10:10:58.505Z</time></trkpt><trkpt lat="43.6060561" lon="2.4659301"><ele>571.0</ele><time>2026-05-02T10:10:59.504Z</time></trkpt><trkpt lat="43.6061626" lon="2.4659164"><ele>573.75</ele><time>2026-05-02T10:11:00.506Z</time></trkpt><trkpt lat="43.6062664" lon="2.4659037"><ele>576.5</ele><time>2026-05-02T10:11:01.506Z</time></trkpt><trkpt lat="43.6063904" lon="2.4658919"><ele>579.25</ele><time>2026-05-02T10:11:02.505Z</time></trkpt><trkpt lat="43.606503" lon="2.4659082"><ele>582.0</ele><time>2026-05-02T10:11:03.506Z</time></trkpt><trkpt lat="43.6066157" lon="2.4659422"><ele>582.0</ele><time>2026-05-02T10:11:04.504Z</time></trkpt><trkpt lat="43.6067204" lon="2.4659647"><ele>582.0</ele><time>2026-05-02T10:11:05.507Z</time></trkpt><trkpt lat="43.6068086" lon="2.4659761"><ele>582.0</ele><time>2026-05-02T10:11:06.504Z</time></trkpt><trkpt lat="43.6068809" lon="2.4659626"><ele>582.0</ele><time>2026-05-02T10:11:07.506Z</time></trkpt><trkpt lat="43.6069566" lon="2.4659309"><ele>582.0</ele><time>2026-05-02T10:11:08.505Z</time></trkpt><trkpt lat="43.6070322" lon="2.4659038"><ele>582.0</ele><time>2026-05-02T10:11:09.505Z</time></trkpt><trkpt lat="43.6071047" lon="2.465873"><ele>582.2857142857142</ele><time>2026-05-02T10:11:10.506Z</time></trkpt><trkpt lat="43.6071668" lon="2.4658364"><ele>582.5714285714286</ele><time>2026-05-02T10:11:11.504Z</time></trkpt><trkpt lat="43.6072346" lon="2.4658003"><ele>582.8571428571429</ele><time>2026-05-02T10:11:12.506Z</time></trkpt><trkpt lat="43.607299" lon="2.465766"><ele>583.1428571428571</ele><time>2026-05-02T10:11:13.504Z</time></trkpt><trkpt lat="43.6073624" lon="2.4657311"><ele>583.4285714285714</ele><time>2026-05-02T10:11:14.505Z</time></trkpt><trkpt lat="43.6074314" lon="2.4656868"><ele>583.7142857142857</ele><time>2026-05-02T10:11:15.505Z</time></trkpt><trkpt lat="43.6074971" lon="2.4656418"><ele>584.0</ele><time>2026-05-02T10:11:16.505Z</time></trkpt><trkpt lat="43.6075595" lon="2.4655889"><ele>584.0</ele><time>2026-05-02T10:11:17.506Z</time></trkpt><trkpt lat="43.6076208" lon="2.4655281"><ele>584.0</ele><time>2026-05-02T10:11:18.506Z</time></trkpt><trkpt lat="43.6076738" lon="2.465452"><ele>584.0</ele><time>2026-05-02T10:11:19.506Z</time></trkpt><trkpt lat="43.6077179" lon="2.4653705"><ele>584.0</ele><time>2026-05-02T10:11:20.506Z</time></trkpt><trkpt lat="43.6077453" lon="2.4652821"><ele>584.0</ele><time>2026-05-02T10:11:21.506Z</time></trkpt><trkpt lat="43.6077576" lon="2.4651831"><ele>584.0</ele><time>2026-05-02T10:11:22.505Z</time></trkpt><trkpt lat="43.6077604" lon="2.4650872"><ele>584.0</ele><time>2026-05-02T10:11:23.505Z</time></trkpt><trkpt lat="43.6077492" lon="2.46499"><ele>583.8333333333333</ele><time>2026-05-02T10:11:24.505Z</time></trkpt><trkpt lat="43.6077408" lon="2.4648699"><ele>583.6666666666666</ele><time>2026-05-02T10:11:25.506Z</time></trkpt><trkpt lat="43.6077256" lon="2.4647791"><ele>583.5</ele><time>2026-05-02T10:11:26.505Z</time></trkpt><trkpt lat="43.607715" lon="2.4646765"><ele>583.3333333333334</ele><time>2026-05-02T10:11:27.505Z</time></trkpt><trkpt lat="43.6076988" lon="2.4645806"><ele>583.1666666666667</ele><time>2026-05-02T10:11:28.505Z</time></trkpt><trkpt lat="43.6076854" lon="2.4644938"><ele>583.0</ele><time>2026-05-02T10:11:29.505Z</time></trkpt><trkpt lat="43.6076541" lon="2.4643214"><ele>583.0000000000001</ele><time>2026-05-02T10:11:31.505Z</time></trkpt><trkpt lat="43.607642" lon="2.4642259"><ele>583.0</ele><time>2026-05-02T10:11:32.506Z</time></trkpt><trkpt lat="43.6076368" lon="2.4641328"><ele>583.0</ele><time>2026-05-02T10:11:33.506Z</time></trkpt><trkpt lat="43.6076415" lon="2.464024"><ele>583.0</ele><time>2026-05-02T10:11:34.505Z</time></trkpt><trkpt lat="43.607655" lon="2.4639184"><ele>583.0</ele><time>2026-05-02T10:11:35.504Z</time></trkpt><trkpt lat="43.6076852" lon="2.4638305"><ele>583.0000000000001</ele><time>2026-05-02T10:11:36.505Z</time></trkpt><trkpt lat="43.6077263" lon="2.4637585"><ele>583.0</ele><time>2026-05-02T10:11:37.506Z</time></trkpt><trkpt lat="43.6077736" lon="2.4636959"><ele>583.8333333333334</ele><time>2026-05-02T10:11:38.505Z</time></trkpt><trkpt lat="43.607833" lon="2.46364"><ele>584.6666666666667</ele><time>2026-05-02T10:11:39.505Z</time></trkpt><trkpt lat="43.6079031" lon="2.4635982"><ele>585.5</ele><time>2026-05-02T10:11:40.506Z</time></trkpt><trkpt lat="43.6079682" lon="2.4635841"><ele>586.3333333333334</ele><time>2026-05-02T10:11:41.504Z</time></trkpt><trkpt lat="43.6080596" lon="2.463577"><ele>587.1666666666666</ele><time>2026-05-02T10:11:43.505Z</time></trkpt><trkpt lat="43.6081247" lon="2.4635889"><ele>588.0</ele><time>2026-05-02T10:11:45.506Z</time></trkpt><trkpt lat="43.6081609" lon="2.4636922"><ele>588.0</ele><time>2026-05-02T10:11:48.505Z</time></trkpt><trkpt lat="43.6082065" lon="2.4637708"><ele>588.0</ele><time>2026-05-02T10:11:50.506Z</time></trkpt><trkpt lat="43.6082519" lon="2.4638932"><ele>588.0</ele><time>2026-05-02T10:11:52.505Z</time></trkpt><trkpt lat="43.6082811" lon="2.4639829"><ele>588.0</ele><time>2026-05-02T10:11:53.504Z</time></trkpt><trkpt lat="43.608312" lon="2.4640708"><ele>588.0</ele><time>2026-05-02T10:11:54.506Z</time></trkpt><trkpt lat="43.6083371" lon="2.4641511"><ele>588.0</ele><time>2026-05-02T10:11:55.506Z</time></trkpt><trkpt lat="43.6083678" lon="2.4642409"><ele>589.0</ele><time>2026-05-02T10:11:56.505Z</time></trkpt><trkpt lat="43.6084056" lon="2.4643476"><ele>590.0</ele><time>2026-05-02T10:11:57.506Z</time></trkpt><trkpt lat="43.6084361" lon="2.4644534"><ele>591.0</ele><time>2026-05-02T10:11:58.504Z</time></trkpt><trkpt lat="43.6084695" lon="2.4645661"><ele>592.0</ele><time>2026-05-02T10:11:59.505Z</time></trkpt><trkpt lat="43.6085062" lon="2.4646981"><ele>593.0</ele><time>2026-05-02T10:12:00.505Z</time></trkpt><trkpt lat="43.6085333" lon="2.464819"><ele>593.8</ele><time>2026-05-02T10:12:01.506Z</time></trkpt><trkpt lat="43.6085603" lon="2.4649062"><ele>594.5999999999999</ele><time>2026-05-02T10:12:02.505Z</time></trkpt><trkpt lat="43.6086096" lon="2.4650816"><ele>595.4000000000001</ele><time>2026-05-02T10:12:04.506Z</time></trkpt><trkpt lat="43.6086267" lon="2.4652093"><ele>596.2</ele><time>2026-05-02T10:12:05.505Z</time></trkpt><trkpt lat="43.6086447" lon="2.4653762"><ele>597.0</ele><time>2026-05-02T10:12:06.505Z</time></trkpt><trkpt lat="43.60866" lon="2.4655316"><ele>599.5</ele><time>2026-05-02T10:12:07.505Z</time></trkpt><trkpt lat="43.6086775" lon="2.4657053"><ele>602.0</ele><time>2026-05-02T10:12:08.505Z</time></trkpt><trkpt lat="43.6086889" lon="2.4658918"><ele>604.5</ele><time>2026-05-02T10:12:09.504Z</time></trkpt><trkpt lat="43.608703" lon="2.4660961"><ele>607.0</ele><time>2026-05-02T10:12:10.506Z</time></trkpt><trkpt lat="43.6087223" lon="2.4663156"><ele>608.0</ele><time>2026-05-02T10:12:11.506Z</time></trkpt><trkpt lat="43.6087362" lon="2.4665323"><ele>609.0</ele><time>2026-05-02T10:12:12.505Z</time></trkpt><trkpt lat="43.6087731" lon="2.4667599"><ele>610.0</ele><time>2026-05-02T10:12:13.505Z</time></trkpt><trkpt lat="43.6088115" lon="2.4669884"><ele>610.0</ele><time>2026-05-02T10:12:14.504Z</time></trkpt><trkpt lat="43.60885" lon="2.4672273"><ele>610.0</ele><time>2026-05-02T10:12:15.505Z</time></trkpt><trkpt lat="43.6088835" lon="2.4674681"><ele>610.0</ele><time>2026-05-02T10:12:16.505Z</time></trkpt><trkpt lat="43.6089198" lon="2.4677081"><ele>611.3333333333334</ele><time>2026-05-02T10:12:17.506Z</time></trkpt><trkpt lat="43.6089651" lon="2.4679454"><ele>612.6666666666666</ele><time>2026-05-02T10:12:18.504Z</time></trkpt><trkpt lat="43.609016" lon="2.4681885"><ele>614.0</ele><time>2026-05-02T10:12:19.506Z</time></trkpt><trkpt lat="43.6090692" lon="2.4684277"><ele>614.0</ele><time>2026-05-02T10:12:20.506Z</time></trkpt><trkpt lat="43.6091229" lon="2.4686691"><ele>614.0</ele><time>2026-05-02T10:12:21.505Z</time></trkpt><trkpt lat="43.6091871" lon="2.4689103"><ele>614.0</ele><time>2026-05-02T10:12:22.504Z</time></trkpt><trkpt lat="43.6092763" lon="2.4691429"><ele>613.0</ele><time>2026-05-02T10:12:23.504Z</time></trkpt><trkpt lat="43.609381" lon="2.4693606"><ele>612.0</ele><time>2026-05-02T10:12:24.505Z</time></trkpt><trkpt lat="43.6095001" lon="2.4695627"><ele>611.0</ele><time>2026-05-02T10:12:25.505Z</time></trkpt><trkpt lat="43.6096294" lon="2.4697519"><ele>613.6666666666666</ele><time>2026-05-02T10:12:26.503Z</time></trkpt><trkpt lat="43.6097591" lon="2.4699308"><ele>616.3333333333334</ele><time>2026-05-02T10:12:27.505Z</time></trkpt><trkpt lat="43.6098806" lon="2.4701048"><ele>619.0</ele><time>2026-05-02T10:12:28.505Z</time></trkpt><trkpt lat="43.6099705" lon="2.4702867"><ele>621.3333333333334</ele><time>2026-05-02T10:12:29.505Z</time></trkpt><trkpt lat="43.6100375" lon="2.4704868"><ele>623.6666666666666</ele><time>2026-05-02T10:12:30.506Z</time></trkpt><trkpt lat="43.6100787" lon="2.4706953"><ele>626.0</ele><time>2026-05-02T10:12:31.504Z</time></trkpt><trkpt lat="43.6100985" lon="2.4709064"><ele>626.0</ele><time>2026-05-02T10:12:32.505Z</time></trkpt><trkpt lat="43.6101023" lon="2.471131"><ele>626.0</ele><time>2026-05-02T10:12:33.504Z</time></trkpt><trkpt lat="43.6101022" lon="2.4713595"><ele>626.0</ele><time>2026-05-02T10:12:34.504Z</time></trkpt><trkpt lat="43.6101065" lon="2.4715873"><ele>626.3333333333333</ele><time>2026-05-02T10:12:35.506Z</time></trkpt><trkpt lat="43.6101031" lon="2.4718022"><ele>626.6666666666666</ele><time>2026-05-02T10:12:36.504Z</time></trkpt><trkpt lat="43.6101008" lon="2.472013"><ele>627.0</ele><time>2026-05-02T10:12:37.506Z</time></trkpt><trkpt lat="43.610097" lon="2.4722241"><ele>628.3333333333334</ele><time>2026-05-02T10:12:38.504Z</time></trkpt><trkpt lat="43.6100794" lon="2.4724405"><ele>629.6666666666667</ele><time>2026-05-02T10:12:39.505Z</time></trkpt><trkpt lat="43.6100549" lon="2.4726504"><ele>631.0</ele><time>2026-05-02T10:12:40.505Z</time></trkpt><trkpt lat="43.6100152" lon="2.4728632"><ele>631.6666666666667</ele><time>2026-05-02T10:12:41.504Z</time></trkpt><trkpt lat="43.6099586" lon="2.4730764"><ele>632.3333333333334</ele><time>2026-05-02T10:12:42.505Z</time></trkpt><trkpt lat="43.6098948" lon="2.4732771"><ele>633.0</ele><time>2026-05-02T10:12:43.505Z</time></trkpt><trkpt lat="43.6098263" lon="2.4734693"><ele>633.0</ele><time>2026-05-02T10:12:44.505Z</time></trkpt><trkpt lat="43.6097506" lon="2.4736492"><ele>633.0</ele><time>2026-05-02T10:12:45.505Z</time></trkpt><trkpt lat="43.6096744" lon="2.473825"><ele>633.0</ele><time>2026-05-02T10:12:46.505Z</time></trkpt><trkpt lat="43.6095979" lon="2.473999"><ele>633.0</ele><time>2026-05-02T10:12:47.505Z</time></trkpt><trkpt lat="43.609517" lon="2.4741686"><ele>633.5</ele><time>2026-05-02T10:12:48.505Z</time></trkpt><trkpt lat="43.6094275" lon="2.4743266"><ele>634.0</ele><time>2026-05-02T10:12:49.505Z</time></trkpt><trkpt lat="43.6093322" lon="2.4744793"><ele>634.5</ele><time>2026-05-02T10:12:50.506Z</time></trkpt><trkpt lat="43.609231" lon="2.4746229"><ele>635.0</ele><time>2026-05-02T10:12:51.505Z</time></trkpt><trkpt lat="43.6091165" lon="2.4747662"><ele>635.0</ele><time>2026-05-02T10:12:52.505Z</time></trkpt><trkpt lat="43.6089951" lon="2.4749023"><ele>635.0</ele><time>2026-05-02T10:12:53.505Z</time></trkpt><trkpt lat="43.608867" lon="2.4750395"><ele>635.0</ele><time>2026-05-02T10:12:54.503Z</time></trkpt><trkpt lat="43.6087407" lon="2.475175"><ele>635.3333333333333</ele><time>2026-05-02T10:12:55.505Z</time></trkpt><trkpt lat="43.6086108" lon="2.4752901"><ele>635.6666666666666</ele><time>2026-05-02T10:12:56.505Z</time></trkpt><trkpt lat="43.6084819" lon="2.4754008"><ele>636.0</ele><time>2026-05-02T10:12:57.505Z</time></trkpt><trkpt lat="43.6083586" lon="2.4755247"><ele>636.0</ele><time>2026-05-02T10:12:58.506Z</time></trkpt><trkpt lat="43.6082523" lon="2.4756616"><ele>636.0</ele><time>2026-05-02T10:12:59.505Z</time></trkpt><trkpt lat="43.608166" lon="2.4758033"><ele>636.0</ele><time>2026-05-02T10:13:00.505Z</time></trkpt><trkpt lat="43.6080877" lon="2.4759226"><ele>636.0</ele><time>2026-05-02T10:13:01.505Z</time></trkpt><trkpt lat="43.6080199" lon="2.4760267"><ele>636.0</ele><time>2026-05-02T10:13:02.505Z</time></trkpt><trkpt lat="43.6079626" lon="2.4761174"><ele>636.0</ele><time>2026-05-02T10:13:03.505Z</time></trkpt><trkpt lat="43.6079052" lon="2.4761986"><ele>636.0</ele><time>2026-05-02T10:13:04.504Z</time></trkpt><trkpt lat="43.6078618" lon="2.4762646"><ele>636.0</ele><time>2026-05-02T10:13:05.504Z</time></trkpt><trkpt lat="43.607816" lon="2.4763301"><ele>636.0</ele><time>2026-05-02T10:13:06.504Z</time></trkpt><trkpt lat="43.6077659" lon="2.476388"><ele>636.0</ele><time>2026-05-02T10:13:07.506Z</time></trkpt><trkpt lat="43.6076991" lon="2.4764109"><ele>636.0</ele><time>2026-05-02T10:13:08.504Z</time></trkpt><trkpt lat="43.6076263" lon="2.4764092"><ele>638.0</ele><time>2026-05-02T10:13:09.505Z</time></trkpt><trkpt lat="43.6075438" lon="2.4763902"><ele>640.0</ele><time>2026-05-02T10:13:10.506Z</time></trkpt><trkpt lat="43.6074714" lon="2.4763915"><ele>642.0</ele><time>2026-05-02T10:13:11.505Z</time></trkpt><trkpt lat="43.6074042" lon="2.4763986"><ele>644.0</ele><time>2026-05-02T10:13:14.504Z</time></trkpt><trkpt lat="43.6073344" lon="2.4763421"><ele>646.0</ele><time>2026-05-02T10:13:54.504Z</time></trkpt><trkpt lat="43.6072257" lon="2.4764448"><ele>648.0</ele><time>2026-05-02T10:13:56.503Z</time></trkpt><trkpt lat="43.6071334" lon="2.4765346"><ele>648.0</ele><time>2026-05-02T10:13:57.504Z</time></trkpt><trkpt lat="43.6070485" lon="2.4766102"><ele>648.0</ele><time>2026-05-02T10:13:58.505Z</time></trkpt><trkpt lat="43.6069542" lon="2.4766856"><ele>648.0</ele><time>2026-05-02T10:13:59.504Z</time></trkpt><trkpt lat="43.6068632" lon="2.4767752"><ele>648.0</ele><time>2026-05-02T10:14:00.503Z</time></trkpt><trkpt lat="43.6067825" lon="2.4768607"><ele>648.0</ele><time>2026-05-02T10:14:01.503Z</time></trkpt><trkpt lat="43.6067311" lon="2.4769314"><ele>649.5999999999999</ele><time>2026-05-02T10:14:02.505Z</time></trkpt><trkpt lat="43.606672" lon="2.4769942"><ele>651.1999999999999</ele><time>2026-05-02T10:14:03.506Z</time></trkpt><trkpt lat="43.6066176" lon="2.4770414"><ele>652.8</ele><time>2026-05-02T10:14:04.505Z</time></trkpt><trkpt lat="43.6065266" lon="2.4771241"><ele>654.4</ele><time>2026-05-02T10:14:06.506Z</time></trkpt><trkpt lat="43.606434" lon="2.4772167"><ele>656.0</ele><time>2026-05-02T10:14:08.504Z</time></trkpt><trkpt lat="43.6063438" lon="2.4773161"><ele>657.7142857142857</ele><time>2026-05-02T10:14:10.504Z</time></trkpt><trkpt lat="43.6062809" lon="2.4773527"><ele>659.4285714285714</ele><time>2026-05-02T10:14:11.505Z</time></trkpt><trkpt lat="43.6062283" lon="2.4774039"><ele>661.1428571428571</ele><time>2026-05-02T10:14:12.505Z</time></trkpt><trkpt lat="43.6061778" lon="2.4774588"><ele>662.8571428571429</ele><time>2026-05-02T10:14:13.505Z</time></trkpt><trkpt lat="43.6061337" lon="2.477524"><ele>664.5714285714286</ele><time>2026-05-02T10:14:14.505Z</time></trkpt><trkpt lat="43.6060744" lon="2.4776178"><ele>666.2857142857142</ele><time>2026-05-02T10:14:16.506Z</time></trkpt><trkpt lat="43.6060276" lon="2.4776879"><ele>668.0</ele><time>2026-05-02T10:14:19.505Z</time></trkpt><trkpt lat="43.6059684" lon="2.4778024"><ele>668.3333333333333</ele><time>2026-05-02T10:14:21.505Z</time></trkpt><trkpt lat="43.6059281" lon="2.4778807"><ele>668.6666666666666</ele><time>2026-05-02T10:14:22.505Z</time></trkpt><trkpt lat="43.6058901" lon="2.4779652"><ele>669.0</ele><time>2026-05-02T10:14:23.506Z</time></trkpt><trkpt lat="43.6058504" lon="2.478049"><ele>669.3333333333334</ele><time>2026-05-02T10:14:24.505Z</time></trkpt><trkpt lat="43.6058082" lon="2.4781171"><ele>669.6666666666667</ele><time>2026-05-02T10:14:25.505Z</time></trkpt><trkpt lat="43.6057689" lon="2.4782602"><ele>670.0</ele><time>2026-05-02T10:14:27.505Z</time></trkpt><trkpt lat="43.6057451" lon="2.4783803"><ele>672.4</ele><time>2026-05-02T10:14:29.503Z</time></trkpt><trkpt lat="43.605706" lon="2.4784506"><ele>674.8</ele><time>2026-05-02T10:15:00.506Z</time></trkpt><trkpt lat="43.6056558" lon="2.4785563"><ele>677.2</ele><time>2026-05-02T10:15:03.505Z</time></trkpt><trkpt lat="43.6056205" lon="2.4786326"><ele>679.6</ele><time>2026-05-02T10:15:04.503Z</time></trkpt><trkpt lat="43.6055815" lon="2.4787997"><ele>682.0</ele><time>2026-05-02T10:15:06.503Z</time></trkpt><trkpt lat="43.6055395" lon="2.4789607"><ele>684.0</ele><time>2026-05-02T10:15:08.505Z</time></trkpt><trkpt lat="43.6055261" lon="2.4791062"><ele>686.0</ele><time>2026-05-02T10:15:10.504Z</time></trkpt><trkpt lat="43.605495" lon="2.4792357"><ele>688.0</ele><time>2026-05-02T10:15:12.503Z</time></trkpt><trkpt lat="43.6054716" lon="2.4793308"><ele>690.0</ele><time>2026-05-02T10:15:13.505Z</time></trkpt><trkpt lat="43.6054195" lon="2.4794968"><ele>692.0</ele><time>2026-05-02T10:15:15.505Z</time></trkpt><trkpt lat="43.6053924" lon="2.4796128"><ele>693.5</ele><time>2026-05-02T10:15:16.505Z</time></trkpt><trkpt lat="43.6053332" lon="2.4797291"><ele>695.0</ele><time>2026-05-02T10:15:17.504Z</time></trkpt><trkpt lat="43.6053127" lon="2.4798211"><ele>696.5</ele><time>2026-05-02T10:15:18.505Z</time></trkpt><trkpt lat="43.6052903" lon="2.4799161"><ele>698.0</ele><time>2026-05-02T10:15:19.505Z</time></trkpt><trkpt lat="43.6052518" lon="2.4800037"><ele>699.5</ele><time>2026-05-02T10:15:20.505Z</time></trkpt><trkpt lat="43.6052098" lon="2.4800963"><ele>701.0</ele><time>2026-05-02T10:15:21.506Z</time></trkpt><trkpt lat="43.6051984" lon="2.4802109"><ele>704.1999999999999</ele><time>2026-05-02T10:15:22.505Z</time></trkpt><trkpt lat="43.6051698" lon="2.4803324"><ele>707.4</ele><time>2026-05-02T10:15:23.504Z</time></trkpt><trkpt lat="43.6051422" lon="2.4804417"><ele>710.6</ele><time>2026-05-02T10:15:24.504Z</time></trkpt><trkpt lat="43.6051021" lon="2.4805324"><ele>713.8</ele><time>2026-05-02T10:15:25.505Z</time></trkpt><trkpt lat="43.6050863" lon="2.4806276"><ele>717.0</ele><time>2026-05-02T10:15:26.503Z</time></trkpt><trkpt lat="43.6050499" lon="2.4808067"><ele>719.1666666666666</ele><time>2026-05-02T10:15:28.505Z</time></trkpt><trkpt lat="43.605046" lon="2.4809024"><ele>721.3333333333334</ele><time>2026-05-02T10:15:29.504Z</time></trkpt><trkpt lat="43.6050484" lon="2.4810018"><ele>723.5</ele><time>2026-05-02T10:15:30.504Z</time></trkpt><trkpt lat="43.6050439" lon="2.4810933"><ele>725.6666666666667</ele><time>2026-05-02T10:15:31.505Z</time></trkpt><trkpt lat="43.6050356" lon="2.4811911"><ele>727.8333333333334</ele><time>2026-05-02T10:15:32.504Z</time></trkpt><trkpt lat="43.6049989" lon="2.4813373"><ele>730.0</ele><time>2026-05-02T10:15:34.504Z</time></trkpt><trkpt lat="43.6049478" lon="2.481422"><ele>730.8333333333334</ele><time>2026-05-02T10:15:35.504Z</time></trkpt><trkpt lat="43.6049036" lon="2.4815031"><ele>731.6666666666667</ele><time>2026-05-02T10:15:36.504Z</time></trkpt><trkpt lat="43.604863" lon="2.4815918"><ele>732.5</ele><time>2026-05-02T10:15:37.505Z</time></trkpt><trkpt lat="43.6048291" lon="2.4816886"><ele>733.3333333333334</ele><time>2026-05-02T10:15:38.504Z</time></trkpt><trkpt lat="43.6047804" lon="2.4817984"><ele>734.1666666666666</ele><time>2026-05-02T10:15:39.505Z</time></trkpt><trkpt lat="43.60474" lon="2.4819132"><ele>735.0</ele><time>2026-05-02T10:15:40.504Z</time></trkpt><trkpt lat="43.6046999" lon="2.4820086"><ele>735.3333333333334</ele><time>2026-05-02T10:15:41.504Z</time></trkpt><trkpt lat="43.6046825" lon="2.4821186"><ele>735.6666666666666</ele><time>2026-05-02T10:15:42.504Z</time></trkpt><trkpt lat="43.6046423" lon="2.4822102"><ele>736.0</ele><time>2026-05-02T10:15:43.504Z</time></trkpt><trkpt lat="43.6045909" lon="2.4823179"><ele>736.3333333333333</ele><time>2026-05-02T10:15:44.504Z</time></trkpt><trkpt lat="43.6045479" lon="2.4824313"><ele>736.6666666666666</ele><time>2026-05-02T10:15:45.504Z</time></trkpt><trkpt lat="43.6045067" lon="2.4825429"><ele>737.0</ele><time>2026-05-02T10:15:46.504Z</time></trkpt><trkpt lat="43.604457" lon="2.4826549"><ele>740.1666666666666</ele><time>2026-05-02T10:15:47.503Z</time></trkpt><trkpt lat="43.6044094" lon="2.4827474"><ele>743.3333333333333</ele><time>2026-05-02T10:15:48.504Z</time></trkpt><trkpt lat="43.604382" lon="2.4828502"><ele>746.5</ele><time>2026-05-02T10:15:49.504Z</time></trkpt><trkpt lat="43.6043532" lon="2.4829622"><ele>749.6666666666666</ele><time>2026-05-02T10:15:50.504Z</time></trkpt><trkpt lat="43.6043241" lon="2.4830611"><ele>752.8333333333334</ele><time>2026-05-02T10:15:51.504Z</time></trkpt><trkpt lat="43.6042875" lon="2.483142"><ele>756.0</ele><time>2026-05-02T10:15:52.504Z</time></trkpt><trkpt lat="43.6042624" lon="2.4832348"><ele>756.6666666666666</ele><time>2026-05-02T10:15:53.504Z</time></trkpt><trkpt lat="43.6042469" lon="2.4833378"><ele>757.3333333333334</ele><time>2026-05-02T10:15:54.503Z</time></trkpt><trkpt lat="43.6042331" lon="2.4834418"><ele>758.0</ele><time>2026-05-02T10:15:55.504Z</time></trkpt><trkpt lat="43.6042197" lon="2.4835663"><ele>758.6666666666667</ele><time>2026-05-02T10:15:56.504Z</time></trkpt><trkpt lat="43.6042072" lon="2.4836893"><ele>759.3333333333334</ele><time>2026-05-02T10:15:57.503Z</time></trkpt><trkpt lat="43.604171" lon="2.4837989"><ele>760.0</ele><time>2026-05-02T10:15:58.503Z</time></trkpt><trkpt lat="43.6041315" lon="2.4839022"><ele>760.1666666666667</ele><time>2026-05-02T10:15:59.504Z</time></trkpt><trkpt lat="43.6040967" lon="2.4840002"><ele>760.3333333333334</ele><time>2026-05-02T10:16:00.504Z</time></trkpt><trkpt lat="43.60408" lon="2.484089"><ele>760.5</ele><time>2026-05-02T10:16:01.504Z</time></trkpt><trkpt lat="43.6040528" lon="2.4842677"><ele>760.6666666666666</ele><time>2026-05-02T10:16:03.503Z</time></trkpt><trkpt lat="43.6040358" lon="2.484365"><ele>760.8333333333333</ele><time>2026-05-02T10:16:04.504Z</time></trkpt><trkpt lat="43.6040292" lon="2.4844582"><ele>761.0</ele><time>2026-05-02T10:16:05.504Z</time></trkpt><trkpt lat="43.604031" lon="2.4845529"><ele>761.1666666666666</ele><time>2026-05-02T10:16:06.504Z</time></trkpt><trkpt lat="43.6040324" lon="2.4846578"><ele>761.3333333333333</ele><time>2026-05-02T10:16:07.504Z</time></trkpt><trkpt lat="43.6040052" lon="2.4847691"><ele>761.5</ele><time>2026-05-02T10:16:08.504Z</time></trkpt><trkpt lat="43.6039856" lon="2.4848814"><ele>761.6666666666666</ele><time>2026-05-02T10:16:09.503Z</time></trkpt><trkpt lat="43.6039765" lon="2.485"><ele>761.8333333333334</ele><time>2026-05-02T10:16:10.504Z</time></trkpt><trkpt lat="43.6039708" lon="2.4851249"><ele>762.0</ele><time>2026-05-02T10:16:12.504Z</time></trkpt><trkpt lat="43.603948" lon="2.4852145"><ele>762.0</ele><time>2026-05-02T10:17:25.505Z</time></trkpt><trkpt lat="43.60393" lon="2.4853883"><ele>762.0</ele><time>2026-05-02T10:17:27.504Z</time></trkpt><trkpt lat="43.6039233" lon="2.485515"><ele>762.0</ele><time>2026-05-02T10:17:28.503Z</time></trkpt><trkpt lat="43.6039149" lon="2.4856528"><ele>762.0</ele><time>2026-05-02T10:17:29.505Z</time></trkpt><trkpt lat="43.6039054" lon="2.4857943"><ele>762.0</ele><time>2026-05-02T10:17:30.504Z</time></trkpt><trkpt lat="43.6038939" lon="2.4859105"><ele>762.3333333333334</ele><time>2026-05-02T10:17:31.502Z</time></trkpt><trkpt lat="43.6038833" lon="2.4860217"><ele>762.6666666666666</ele><time>2026-05-02T10:17:32.504Z</time></trkpt><trkpt lat="43.6038699" lon="2.4861115"><ele>763.0</ele><time>2026-05-02T10:17:33.503Z</time></trkpt><trkpt lat="43.6038485" lon="2.4862115"><ele>763.3333333333333</ele><time>2026-05-02T10:17:34.504Z</time></trkpt><trkpt lat="43.6038373" lon="2.4863119"><ele>763.6666666666666</ele><time>2026-05-02T10:17:35.505Z</time></trkpt><trkpt lat="43.603823" lon="2.4864311"><ele>764.0</ele><time>2026-05-02T10:17:36.504Z</time></trkpt><trkpt lat="43.6038215" lon="2.4866269"><ele>764.2</ele><time>2026-05-02T10:17:38.504Z</time></trkpt><trkpt lat="43.6038611" lon="2.4868135"><ele>764.4000000000001</ele><time>2026-05-02T10:17:40.503Z</time></trkpt><trkpt lat="43.6038752" lon="2.4869363"><ele>764.6</ele><time>2026-05-02T10:17:41.505Z</time></trkpt><trkpt lat="43.6038869" lon="2.4870664"><ele>764.8</ele><time>2026-05-02T10:17:42.503Z</time></trkpt><trkpt lat="43.6038945" lon="2.4872063"><ele>765.0</ele><time>2026-05-02T10:17:43.503Z</time></trkpt><trkpt lat="43.6039081" lon="2.4873371"><ele>766.2</ele><time>2026-05-02T10:17:44.503Z</time></trkpt><trkpt lat="43.6039222" lon="2.4874684"><ele>767.4</ele><time>2026-05-02T10:17:45.502Z</time></trkpt><trkpt lat="43.6039246" lon="2.4875982"><ele>768.5999999999999</ele><time>2026-05-02T10:17:46.505Z</time></trkpt><trkpt lat="43.6039289" lon="2.4877435"><ele>769.8</ele><time>2026-05-02T10:17:47.504Z</time></trkpt><trkpt lat="43.6039428" lon="2.4878658"><ele>771.0</ele><time>2026-05-02T10:17:48.505Z</time></trkpt><trkpt lat="43.6039456" lon="2.4880247"><ele>773.0</ele><time>2026-05-02T10:17:49.483Z</time></trkpt><trkpt lat="43.6039548" lon="2.4881657"><ele>775.0</ele><time>2026-05-02T10:17:50.483Z</time></trkpt><trkpt lat="43.6039492" lon="2.4882952"><ele>777.0</ele><time>2026-05-02T10:17:51.483Z</time></trkpt><trkpt lat="43.6039483" lon="2.4884469"><ele>779.0</ele><time>2026-05-02T10:17:52.504Z</time></trkpt><trkpt lat="43.6039523" lon="2.4885878"><ele>781.0</ele><time>2026-05-02T10:17:53.504Z</time></trkpt><trkpt lat="43.6039644" lon="2.4887353"><ele>781.8333333333333</ele><time>2026-05-02T10:17:54.503Z</time></trkpt><trkpt lat="43.603966" lon="2.4888611"><ele>782.6666666666666</ele><time>2026-05-02T10:17:55.504Z</time></trkpt><trkpt lat="43.6039757" lon="2.4889818"><ele>783.5</ele><time>2026-05-02T10:17:56.505Z</time></trkpt><trkpt lat="43.6039727" lon="2.4890932"><ele>784.3333333333333</ele><time>2026-05-02T10:17:57.504Z</time></trkpt><trkpt lat="43.6039561" lon="2.4891949"><ele>785.1666666666666</ele><time>2026-05-02T10:17:58.504Z</time></trkpt><trkpt lat="43.6039269" lon="2.4892799"><ele>786.0</ele><time>2026-05-02T10:17:59.504Z</time></trkpt><trkpt lat="43.6039131" lon="2.4893665"><ele>786.0</ele><time>2026-05-02T10:18:00.504Z</time></trkpt><trkpt lat="43.6038793" lon="2.4894893"><ele>786.0</ele><time>2026-05-02T10:18:02.502Z</time></trkpt><trkpt lat="43.6038254" lon="2.4895996"><ele>786.0</ele><time>2026-05-02T10:18:04.503Z</time></trkpt><trkpt lat="43.6037783" lon="2.4896655"><ele>786.0</ele><time>2026-05-02T10:18:06.503Z</time></trkpt><trkpt lat="43.6037472" lon="2.4897482"><ele>786.0</ele><time>2026-05-02T10:18:10.503Z</time></trkpt><trkpt lat="43.60374" lon="2.4898437"><ele>786.0</ele><time>2026-05-02T10:18:26.503Z</time></trkpt><trkpt lat="43.6037146" lon="2.4899701"><ele>784.1999999999999</ele><time>2026-05-02T10:18:29.504Z</time></trkpt><trkpt lat="43.603657" lon="2.4901161"><ele>782.4</ele><time>2026-05-02T10:18:31.505Z</time></trkpt><trkpt lat="43.6036198" lon="2.4901903"><ele>780.6</ele><time>2026-05-02T10:18:32.503Z</time></trkpt><trkpt lat="43.6035562" lon="2.4903249"><ele>778.8</ele><time>2026-05-02T10:18:34.504Z</time></trkpt><trkpt lat="43.6035214" lon="2.490403"><ele>777.0</ele><time>2026-05-02T10:18:35.503Z</time></trkpt><trkpt lat="43.6034628" lon="2.4905458"><ele>777.0</ele><time>2026-05-02T10:18:37.502Z</time></trkpt><trkpt lat="43.6034296" lon="2.4906937"><ele>777.0</ele><time>2026-05-02T10:18:39.504Z</time></trkpt><trkpt lat="43.603381" lon="2.4907978"><ele>777.0</ele><time>2026-05-02T10:18:40.504Z</time></trkpt><trkpt lat="43.6033152" lon="2.4909418"><ele>777.0</ele><time>2026-05-02T10:18:42.504Z</time></trkpt><trkpt lat="43.6032426" lon="2.4910911"><ele>777.0</ele><time>2026-05-02T10:18:44.503Z</time></trkpt><trkpt lat="43.603186" lon="2.4912201"><ele>777.0</ele><time>2026-05-02T10:18:46.505Z</time></trkpt><trkpt lat="43.6031265" lon="2.4913705"><ele>777.0</ele><time>2026-05-02T10:18:49.482Z</time></trkpt><trkpt lat="43.6030929" lon="2.4914497"><ele>777.0</ele><time>2026-05-02T10:18:50.484Z</time></trkpt><trkpt lat="43.6030799" lon="2.4915433"><ele>777.0</ele><time>2026-05-02T10:18:51.484Z</time></trkpt><trkpt lat="43.6030658" lon="2.4916335"><ele>777.0</ele><time>2026-05-02T10:18:52.483Z</time></trkpt><trkpt lat="43.6030378" lon="2.491738"><ele>778.2</ele><time>2026-05-02T10:18:53.484Z</time></trkpt><trkpt lat="43.6030215" lon="2.4918289"><ele>779.4000000000001</ele><time>2026-05-02T10:18:54.484Z</time></trkpt><trkpt lat="43.6029997" lon="2.4919228"><ele>780.5999999999999</ele><time>2026-05-02T10:18:55.484Z</time></trkpt><trkpt lat="43.6029682" lon="2.4920655"><ele>781.8</ele><time>2026-05-02T10:18:57.484Z</time></trkpt><trkpt lat="43.6029181" lon="2.4922278"><ele>783.0</ele><time>2026-05-02T10:18:59.484Z</time></trkpt><trkpt lat="43.6028755" lon="2.4923583"><ele>779.5999999999999</ele><time>2026-05-02T10:19:01.484Z</time></trkpt><trkpt lat="43.6028148" lon="2.492501"><ele>776.1999999999999</ele><time>2026-05-02T10:19:03.483Z</time></trkpt><trkpt lat="43.6027876" lon="2.4926249"><ele>772.8</ele><time>2026-05-02T10:19:05.484Z</time></trkpt><trkpt lat="43.6027435" lon="2.4927499"><ele>769.4</ele><time>2026-05-02T10:19:07.484Z</time></trkpt><trkpt lat="43.6026991" lon="2.4929174"><ele>766.0</ele><time>2026-05-02T10:19:09.484Z</time></trkpt><trkpt lat="43.6026416" lon="2.4930672"><ele>766.0</ele><time>2026-05-02T10:19:11.484Z</time></trkpt><trkpt lat="43.6025918" lon="2.4931939"><ele>766.0</ele><time>2026-05-02T10:19:13.483Z</time></trkpt><trkpt lat="43.6025967" lon="2.4933305"><ele>766.0</ele><time>2026-05-02T10:19:15.484Z</time></trkpt><trkpt lat="43.6025874" lon="2.4934997"><ele>766.0</ele><time>2026-05-02T10:19:17.483Z</time></trkpt><trkpt lat="43.602584" lon="2.4935952"><ele>766.0</ele><time>2026-05-02T10:19:18.484Z</time></trkpt><trkpt lat="43.6025661" lon="2.4937639"><ele>766.0</ele><time>2026-05-02T10:19:20.484Z</time></trkpt><trkpt lat="43.6025461" lon="2.4938527"><ele>766.0</ele><time>2026-05-02T10:19:21.484Z</time></trkpt><trkpt lat="43.602522" lon="2.4939386"><ele>766.0</ele><time>2026-05-02T10:19:22.484Z</time></trkpt><trkpt lat="43.6025047" lon="2.4940252"><ele>766.0</ele><time>2026-05-02T10:19:23.483Z</time></trkpt><trkpt lat="43.6024628" lon="2.4941575"><ele>766.0</ele><time>2026-05-02T10:19:25.484Z</time></trkpt><trkpt lat="43.6024125" lon="2.4942833"><ele>766.0</ele><time>2026-05-02T10:19:27.484Z</time></trkpt><trkpt lat="43.6023738" lon="2.4943534"><ele>766.0</ele><time>2026-05-02T10:19:28.484Z</time></trkpt><trkpt lat="43.602303" lon="2.4944725"><ele>766.0</ele><time>2026-05-02T10:19:30.484Z</time></trkpt><trkpt lat="43.6022261" lon="2.4946058"><ele>766.0</ele><time>2026-05-02T10:19:32.484Z</time></trkpt><trkpt lat="43.602175" lon="2.494676"><ele>766.0</ele><time>2026-05-02T10:19:33.483Z</time></trkpt><trkpt lat="43.6021094" lon="2.4947388"><ele>766.0</ele><time>2026-05-02T10:19:34.483Z</time></trkpt><trkpt lat="43.6020333" lon="2.494775"><ele>764.8333333333334</ele><time>2026-05-02T10:19:35.483Z</time></trkpt><trkpt lat="43.6019605" lon="2.4947917"><ele>763.6666666666667</ele><time>2026-05-02T10:19:36.484Z</time></trkpt><trkpt lat="43.6018843" lon="2.4948068"><ele>762.5</ele><time>2026-05-02T10:19:37.484Z</time></trkpt><trkpt lat="43.6018047" lon="2.4948172"><ele>761.3333333333334</ele><time>2026-05-02T10:19:38.484Z</time></trkpt><trkpt lat="43.6017" lon="2.4948249"><ele>760.1666666666666</ele><time>2026-05-02T10:19:40.484Z</time></trkpt><trkpt lat="43.6016337" lon="2.4949109"><ele>759.0</ele><time>2026-05-02T10:21:02.483Z</time></trkpt><trkpt lat="43.601583" lon="2.4949823"><ele>759.0</ele><time>2026-05-02T10:21:04.483Z</time></trkpt><trkpt lat="43.6015313" lon="2.4950575"><ele>759.0</ele><time>2026-05-02T10:21:06.484Z</time></trkpt><trkpt lat="43.6014799" lon="2.4951345"><ele>759.0</ele><time>2026-05-02T10:21:08.483Z</time></trkpt><trkpt lat="43.6014242" lon="2.4952369"><ele>759.0</ele><time>2026-05-02T10:21:10.483Z</time></trkpt><trkpt lat="43.6013764" lon="2.4953478"><ele>759.0</ele><time>2026-05-02T10:21:12.484Z</time></trkpt><trkpt lat="43.6013668" lon="2.495482"><ele>759.0</ele><time>2026-05-02T10:21:14.484Z</time></trkpt><trkpt lat="43.6013738" lon="2.4956212"><ele>759.0</ele><time>2026-05-02T10:21:16.484Z</time></trkpt><trkpt lat="43.6013806" lon="2.4957626"><ele>759.0</ele><time>2026-05-02T10:21:18.483Z</time></trkpt><trkpt lat="43.6013769" lon="2.4959335"><ele>759.0</ele><time>2026-05-02T10:21:20.484Z</time></trkpt><trkpt lat="43.6013898" lon="2.4961164"><ele>759.0</ele><time>2026-05-02T10:21:22.484Z</time></trkpt><trkpt lat="43.6013807" lon="2.4962143"><ele>759.0</ele><time>2026-05-02T10:21:23.483Z</time></trkpt><trkpt lat="43.6013547" lon="2.4963594"><ele>759.0</ele><time>2026-05-02T10:21:25.484Z</time></trkpt><trkpt lat="43.6013286" lon="2.4965119"><ele>759.0</ele><time>2026-05-02T10:21:27.483Z</time></trkpt><trkpt lat="43.6012965" lon="2.4965921"><ele>759.0</ele><time>2026-05-02T10:21:28.484Z</time></trkpt><trkpt lat="43.601255" lon="2.4966789"><ele>759.0</ele><time>2026-05-02T10:21:30.484Z</time></trkpt><trkpt lat="43.6012172" lon="2.4967995"><ele>759.0</ele><time>2026-05-02T10:21:32.483Z</time></trkpt><trkpt lat="43.6011913" lon="2.4968789"><ele>759.0</ele><time>2026-05-02T10:21:33.484Z</time></trkpt><trkpt lat="43.6011519" lon="2.4970194"><ele>761.2</ele><time>2026-05-02T10:21:35.484Z</time></trkpt><trkpt lat="43.6011147" lon="2.4971505"><ele>763.4000000000001</ele><time>2026-05-02T10:21:37.484Z</time></trkpt><trkpt lat="43.6010876" lon="2.4973027"><ele>765.6</ele><time>2026-05-02T10:21:39.484Z</time></trkpt><trkpt lat="43.6010856" lon="2.4974277"><ele>767.8</ele><time>2026-05-02T10:21:41.484Z</time></trkpt><trkpt lat="43.6010476" lon="2.4975896"><ele>770.0</ele><time>2026-05-02T10:21:43.484Z</time></trkpt><trkpt lat="43.6010187" lon="2.4976794"><ele>770.0</ele><time>2026-05-02T10:21:44.483Z</time></trkpt><trkpt lat="43.600947" lon="2.4977887"><ele>770.0</ele><time>2026-05-02T10:21:46.484Z</time></trkpt><trkpt lat="43.6008849" lon="2.4979154"><ele>770.0</ele><time>2026-05-02T10:21:48.484Z</time></trkpt><trkpt lat="43.60082" lon="2.4980503"><ele>770.0</ele><time>2026-05-02T10:21:50.484Z</time></trkpt><trkpt lat="43.6007563" lon="2.4981847"><ele>770.3333333333334</ele><time>2026-05-02T10:21:52.484Z</time></trkpt><trkpt lat="43.600717" lon="2.4983009"><ele>770.6666666666667</ele><time>2026-05-02T10:21:54.483Z</time></trkpt><trkpt lat="43.6006857" lon="2.498386"><ele>771.0</ele><time>2026-05-02T10:22:28.484Z</time></trkpt><trkpt lat="43.6006579" lon="2.4984711"><ele>771.3333333333333</ele><time>2026-05-02T10:22:30.484Z</time></trkpt><trkpt lat="43.6005993" lon="2.4985048"><ele>771.6666666666666</ele><time>2026-05-02T10:22:32.484Z</time></trkpt><trkpt lat="43.6005375" lon="2.4985683"><ele>772.0</ele><time>2026-05-02T10:22:34.484Z</time></trkpt><trkpt lat="43.600448" lon="2.4986556"><ele>771.9999999999999</ele><time>2026-05-02T10:22:36.484Z</time></trkpt><trkpt lat="43.600388" lon="2.498699"><ele>772.0</ele><time>2026-05-02T10:22:37.484Z</time></trkpt><trkpt lat="43.6003253" lon="2.4987517"><ele>772.0</ele><time>2026-05-02T10:22:38.484Z</time></trkpt><trkpt lat="43.6002641" lon="2.4988035"><ele>772.0</ele><time>2026-05-02T10:22:39.484Z</time></trkpt><trkpt lat="43.60016" lon="2.4988934"><ele>771.9999999999999</ele><time>2026-05-02T10:22:41.502Z</time></trkpt><trkpt lat="43.6000889" lon="2.4989558"><ele>772.0</ele><time>2026-05-02T10:22:42.502Z</time></trkpt><trkpt lat="43.6000105" lon="2.4990174"><ele>772.8333333333333</ele><time>2026-05-02T10:22:43.501Z</time></trkpt><trkpt lat="43.5999496" lon="2.4990659"><ele>773.6666666666666</ele><time>2026-05-02T10:22:44.502Z</time></trkpt><trkpt lat="43.5998679" lon="2.4991121"><ele>774.5</ele><time>2026-05-02T10:22:45.503Z</time></trkpt><trkpt lat="43.5998088" lon="2.4991531"><ele>775.3333333333333</ele><time>2026-05-02T10:22:46.502Z</time></trkpt><trkpt lat="43.5997358" lon="2.4992212"><ele>776.1666666666666</ele><time>2026-05-02T10:22:47.503Z</time></trkpt><trkpt lat="43.5996562" lon="2.4992873"><ele>777.0</ele><time>2026-05-02T10:22:48.503Z</time></trkpt><trkpt lat="43.5995766" lon="2.4993597"><ele>777.4000000000001</ele><time>2026-05-02T10:22:49.503Z</time></trkpt><trkpt lat="43.5994946" lon="2.4994483"><ele>777.8000000000001</ele><time>2026-05-02T10:22:50.503Z</time></trkpt><trkpt lat="43.5994092" lon="2.4995347"><ele>778.2</ele><time>2026-05-02T10:22:51.503Z</time></trkpt><trkpt lat="43.5993255" lon="2.4995973"><ele>778.6</ele><time>2026-05-02T10:22:52.504Z</time></trkpt><trkpt lat="43.5992429" lon="2.4996646"><ele>779.0</ele><time>2026-05-02T10:22:53.503Z</time></trkpt><trkpt lat="43.5991699" lon="2.4997326"><ele>780.0000000000001</ele><time>2026-05-02T10:22:54.503Z</time></trkpt><trkpt lat="43.5990988" lon="2.4998042"><ele>781.0</ele><time>2026-05-02T10:22:55.503Z</time></trkpt><trkpt lat="43.5990283" lon="2.4998749"><ele>782.0</ele><time>2026-05-02T10:22:56.502Z</time></trkpt><trkpt lat="43.5989584" lon="2.4999432"><ele>783.0</ele><time>2026-05-02T10:22:57.503Z</time></trkpt><trkpt lat="43.5988882" lon="2.5000064"><ele>784.0000000000001</ele><time>2026-05-02T10:22:58.503Z</time></trkpt><trkpt lat="43.5988295" lon="2.5000672"><ele>785.0</ele><time>2026-05-02T10:22:59.502Z</time></trkpt><trkpt lat="43.5987709" lon="2.50012"><ele>785.0000000000001</ele><time>2026-05-02T10:23:00.503Z</time></trkpt><trkpt lat="43.5987153" lon="2.5001657"><ele>785.0</ele><time>2026-05-02T10:23:01.503Z</time></trkpt><trkpt lat="43.5986131" lon="2.500232"><ele>785.0</ele><time>2026-05-02T10:23:03.502Z</time></trkpt><trkpt lat="43.5985213" lon="2.500221"><ele>785.0</ele><time>2026-05-02T10:23:05.502Z</time></trkpt><trkpt lat="43.598457" lon="2.5002285"><ele>785.0000000000001</ele><time>2026-05-02T10:23:06.502Z</time></trkpt><trkpt lat="43.5983958" lon="2.5002524"><ele>785.0</ele><time>2026-05-02T10:23:07.503Z</time></trkpt><trkpt lat="43.5983134" lon="2.5003368"><ele>786.8</ele><time>2026-05-02T10:23:09.504Z</time></trkpt><trkpt lat="43.5982178" lon="2.5004526"><ele>788.6</ele><time>2026-05-02T10:23:11.502Z</time></trkpt><trkpt lat="43.5981736" lon="2.5005158"><ele>790.4000000000001</ele><time>2026-05-02T10:23:12.502Z</time></trkpt><trkpt lat="43.5981162" lon="2.5006207"><ele>792.2</ele><time>2026-05-02T10:23:14.502Z</time></trkpt><trkpt lat="43.5980684" lon="2.5007635"><ele>794.0</ele><time>2026-05-02T10:23:16.502Z</time></trkpt><trkpt lat="43.597992" lon="2.500903"><ele>794.0</ele><time>2026-05-02T10:23:18.504Z</time></trkpt><trkpt lat="43.5979193" lon="2.501022"><ele>794.0</ele><time>2026-05-02T10:23:20.503Z</time></trkpt><trkpt lat="43.5978583" lon="2.5011358"><ele>794.0</ele><time>2026-05-02T10:23:22.502Z</time></trkpt><trkpt lat="43.5978203" lon="2.5012174"><ele>794.0</ele><time>2026-05-02T10:23:23.502Z</time></trkpt><trkpt lat="43.5977854" lon="2.5012967"><ele>794.0</ele><time>2026-05-02T10:23:24.502Z</time></trkpt><trkpt lat="43.5977711" lon="2.5014693"><ele>793.8571428571429</ele><time>2026-05-02T10:23:26.502Z</time></trkpt><trkpt lat="43.5977792" lon="2.5015678"><ele>793.7142857142857</ele><time>2026-05-02T10:23:27.502Z</time></trkpt><trkpt lat="43.5977924" lon="2.5016601"><ele>793.5714285714287</ele><time>2026-05-02T10:23:28.502Z</time></trkpt><trkpt lat="43.597791" lon="2.5017526"><ele>793.4285714285714</ele><time>2026-05-02T10:23:29.503Z</time></trkpt><trkpt lat="43.5977873" lon="2.5018532"><ele>793.2857142857143</ele><time>2026-05-02T10:23:30.502Z</time></trkpt><trkpt lat="43.5977889" lon="2.5019503"><ele>793.1428571428572</ele><time>2026-05-02T10:23:31.502Z</time></trkpt><trkpt lat="43.5978033" lon="2.502044"><ele>793.0</ele><time>2026-05-02T10:23:32.503Z</time></trkpt><trkpt lat="43.5978272" lon="2.502145"><ele>793.1666666666666</ele><time>2026-05-02T10:23:33.503Z</time></trkpt><trkpt lat="43.5978564" lon="2.5022426"><ele>793.3333333333333</ele><time>2026-05-02T10:23:34.501Z</time></trkpt><trkpt lat="43.5979052" lon="2.5023713"><ele>793.5</ele><time>2026-05-02T10:23:36.503Z</time></trkpt><trkpt lat="43.5978944" lon="2.5025414"><ele>793.6666666666667</ele><time>2026-05-02T10:23:38.502Z</time></trkpt><trkpt lat="43.5978802" lon="2.5026357"><ele>793.8333333333334</ele><time>2026-05-02T10:23:39.503Z</time></trkpt><trkpt lat="43.5978639" lon="2.5027256"><ele>794.0</ele><time>2026-05-02T10:23:40.503Z</time></trkpt><trkpt lat="43.5978421" lon="2.5028921"><ele>793.0</ele><time>2026-05-02T10:23:42.502Z</time></trkpt><trkpt lat="43.5978311" lon="2.5029858"><ele>792.0</ele><time>2026-05-02T10:23:43.501Z</time></trkpt><trkpt lat="43.5978234" lon="2.5030775"><ele>791.0</ele><time>2026-05-02T10:23:44.503Z</time></trkpt><trkpt lat="43.5978186" lon="2.5031767"><ele>790.0</ele><time>2026-05-02T10:23:45.503Z</time></trkpt><trkpt lat="43.5978183" lon="2.5032694"><ele>789.0</ele><time>2026-05-02T10:23:46.503Z</time></trkpt><trkpt lat="43.5978066" lon="2.50337"><ele>788.0</ele><time>2026-05-02T10:23:47.501Z</time></trkpt><trkpt lat="43.5977868" lon="2.5034663"><ele>787.0</ele><time>2026-05-02T10:23:48.502Z</time></trkpt><trkpt lat="43.5977648" lon="2.5035505"><ele>786.9999999999999</ele><time>2026-05-02T10:23:49.502Z</time></trkpt><trkpt lat="43.5977337" lon="2.5036351"><ele>787.0</ele><time>2026-05-02T10:23:50.503Z</time></trkpt><trkpt lat="43.5976934" lon="2.5038011"><ele>787.0</ele><time>2026-05-02T10:23:52.501Z</time></trkpt><trkpt lat="43.5976657" lon="2.5038949"><ele>787.0</ele><time>2026-05-02T10:23:53.502Z</time></trkpt><trkpt lat="43.5976307" lon="2.5039878"><ele>786.9999999999999</ele><time>2026-05-02T10:23:54.501Z</time></trkpt><trkpt lat="43.5975908" lon="2.5040807"><ele>787.0</ele><time>2026-05-02T10:23:55.502Z</time></trkpt><trkpt lat="43.597553" lon="2.504166"><ele>787.3333333333333</ele><time>2026-05-02T10:23:56.502Z</time></trkpt><trkpt lat="43.5975271" lon="2.5042605"><ele>787.6666666666666</ele><time>2026-05-02T10:23:57.503Z</time></trkpt><trkpt lat="43.5975011" lon="2.5043447"><ele>788.0</ele><time>2026-05-02T10:23:58.503Z</time></trkpt><trkpt lat="43.5974722" lon="2.5044874"><ele>788.3333333333333</ele><time>2026-05-02T10:24:00.502Z</time></trkpt><trkpt lat="43.5974654" lon="2.5045787"><ele>788.6666666666666</ele><time>2026-05-02T10:24:01.502Z</time></trkpt><trkpt lat="43.5974618" lon="2.5046817"><ele>789.0</ele><time>2026-05-02T10:24:02.503Z</time></trkpt><trkpt lat="43.5974738" lon="2.5047727"><ele>789.1666666666666</ele><time>2026-05-02T10:24:03.502Z</time></trkpt><trkpt lat="43.5974845" lon="2.5048682"><ele>789.3333333333333</ele><time>2026-05-02T10:24:04.502Z</time></trkpt><trkpt lat="43.5975083" lon="2.5050203"><ele>789.5</ele><time>2026-05-02T10:24:06.502Z</time></trkpt><trkpt lat="43.5975294" lon="2.505143"><ele>789.6666666666666</ele><time>2026-05-02T10:24:08.502Z</time></trkpt><trkpt lat="43.5975533" lon="2.5052405"><ele>789.8333333333333</ele><time>2026-05-02T10:24:10.501Z</time></trkpt><trkpt lat="43.5975777" lon="2.5053237"><ele>790.0</ele><time>2026-05-02T10:24:13.503Z</time></trkpt><trkpt lat="43.5976096" lon="2.5054135"><ele>791.0</ele><time>2026-05-02T10:24:17.503Z</time></trkpt><trkpt lat="43.5976455" lon="2.5055002"><ele>792.0</ele><time>2026-05-02T10:26:16.502Z</time></trkpt><trkpt lat="43.5976445" lon="2.5055917"><ele>793.0</ele><time>2026-05-02T10:26:21.503Z</time></trkpt><trkpt lat="43.5976709" lon="2.5056764"><ele>794.0</ele><time>2026-05-02T10:26:23.501Z</time></trkpt><trkpt lat="43.5976927" lon="2.5057604"><ele>795.0</ele><time>2026-05-02T10:26:32.501Z</time></trkpt><trkpt lat="43.5976852" lon="2.5056486"><ele>796.0</ele><time>2026-05-02T10:26:37.5Z</time></trkpt><trkpt lat="43.5976653" lon="2.505549"><ele>797.0</ele><time>2026-05-02T10:26:40.503Z</time></trkpt><trkpt lat="43.5976335" lon="2.5054627"><ele>795.8333333333334</ele><time>2026-05-02T10:26:43.5Z</time></trkpt><trkpt lat="43.5976106" lon="2.5053644"><ele>794.6666666666667</ele><time>2026-05-02T10:26:46.501Z</time></trkpt><trkpt lat="43.5975771" lon="2.5052787"><ele>793.5</ele><time>2026-05-02T10:26:48.501Z</time></trkpt><trkpt lat="43.5975494" lon="2.5051564"><ele>792.3333333333333</ele><time>2026-05-02T10:26:50.503Z</time></trkpt><trkpt lat="43.5975296" lon="2.5050599"><ele>791.1666666666666</ele><time>2026-05-02T10:26:51.502Z</time></trkpt><trkpt lat="43.5974997" lon="2.5049123"><ele>790.0</ele><time>2026-05-02T10:26:53.502Z</time></trkpt><trkpt lat="43.5974738" lon="2.5047556"><ele>790.0</ele><time>2026-05-02T10:26:55.501Z</time></trkpt><trkpt lat="43.5974831" lon="2.5046166"><ele>790.0</ele><time>2026-05-02T10:26:57.502Z</time></trkpt><trkpt lat="43.5974974" lon="2.5044599"><ele>790.0</ele><time>2026-05-02T10:26:59.501Z</time></trkpt><trkpt lat="43.5975397" lon="2.5043217"><ele>790.0</ele><time>2026-05-02T10:27:01.501Z</time></trkpt><trkpt lat="43.5975724" lon="2.5041799"><ele>790.0</ele><time>2026-05-02T10:27:03.5Z</time></trkpt><trkpt lat="43.5976061" lon="2.5040593"><ele>789.75</ele><time>2026-05-02T10:27:05.501Z</time></trkpt><trkpt lat="43.5976545" lon="2.5039338"><ele>789.5</ele><time>2026-05-02T10:27:07.502Z</time></trkpt><trkpt lat="43.5977001" lon="2.5037681"><ele>789.25</ele><time>2026-05-02T10:27:09.502Z</time></trkpt><trkpt lat="43.5977624" lon="2.5036081"><ele>789.0</ele><time>2026-05-02T10:27:11.501Z</time></trkpt><trkpt lat="43.5977916" lon="2.5034599"><ele>788.6666666666666</ele><time>2026-05-02T10:27:13.501Z</time></trkpt><trkpt lat="43.597806" lon="2.5032642"><ele>788.3333333333333</ele><time>2026-05-02T10:27:15.502Z</time></trkpt><trkpt lat="43.5978088" lon="2.5031642"><ele>788.0</ele><time>2026-05-02T10:27:16.503Z</time></trkpt><trkpt lat="43.5978192" lon="2.5030645"><ele>787.6666666666666</ele><time>2026-05-02T10:27:17.502Z</time></trkpt><trkpt lat="43.5978285" lon="2.5029455"><ele>787.3333333333333</ele><time>2026-05-02T10:27:18.501Z</time></trkpt><trkpt lat="43.5978368" lon="2.5028497"><ele>787.0</ele><time>2026-05-02T10:27:19.501Z</time></trkpt><trkpt lat="43.5978553" lon="2.5026691"><ele>787.2</ele><time>2026-05-02T10:27:21.501Z</time></trkpt><trkpt lat="43.5978735" lon="2.5025107"><ele>787.4000000000001</ele><time>2026-05-02T10:27:23.501Z</time></trkpt><trkpt lat="43.5978682" lon="2.5023508"><ele>787.5999999999999</ele><time>2026-05-02T10:27:25.502Z</time></trkpt><trkpt lat="43.59784" lon="2.5021825"><ele>787.8</ele><time>2026-05-02T10:27:27.501Z</time></trkpt><trkpt lat="43.5978189" lon="2.5020888"><ele>788.0</ele><time>2026-05-02T10:27:28.5Z</time></trkpt><trkpt lat="43.5977997" lon="2.5019148"><ele>789.0</ele><time>2026-05-02T10:27:30.5Z</time></trkpt><trkpt lat="43.597793" lon="2.501818"><ele>790.0</ele><time>2026-05-02T10:27:31.502Z</time></trkpt><trkpt lat="43.5977582" lon="2.5016517"><ele>791.0</ele><time>2026-05-02T10:27:33.501Z</time></trkpt><trkpt lat="43.5977606" lon="2.5014868"><ele>792.0</ele><time>2026-05-02T10:27:35.502Z</time></trkpt><trkpt lat="43.5977983" lon="2.50134"><ele>793.0</ele><time>2026-05-02T10:27:37.502Z</time></trkpt><trkpt lat="43.5978322" lon="2.5012583"><ele>793.2</ele><time>2026-05-02T10:27:38.501Z</time></trkpt><trkpt lat="43.5979087" lon="2.5011249"><ele>793.4</ele><time>2026-05-02T10:27:40.501Z</time></trkpt><trkpt lat="43.5979625" lon="2.5010089"><ele>793.6</ele><time>2026-05-02T10:27:42.5Z</time></trkpt><trkpt lat="43.5980504" lon="2.5008974"><ele>793.8000000000001</ele><time>2026-05-02T10:27:44.501Z</time></trkpt><trkpt lat="43.5980831" lon="2.5008098"><ele>794.0</ele><time>2026-05-02T10:27:45.502Z</time></trkpt><trkpt lat="43.5981386" lon="2.5006726"><ele>794.0000000000001</ele><time>2026-05-02T10:27:47.501Z</time></trkpt><trkpt lat="43.5981746" lon="2.5006011"><ele>794.0</ele><time>2026-05-02T10:27:48.501Z</time></trkpt><trkpt lat="43.5982402" lon="2.5005039"><ele>794.0</ele><time>2026-05-02T10:27:50.501Z</time></trkpt><trkpt lat="43.598308" lon="2.5004191"><ele>794.0</ele><time>2026-05-02T10:27:52.5Z</time></trkpt><trkpt lat="43.598374" lon="2.5003304"><ele>794.0000000000001</ele><time>2026-05-02T10:27:54.501Z</time></trkpt><trkpt lat="43.598456" lon="2.5002861"><ele>794.0</ele><time>2026-05-02T10:27:56.501Z</time></trkpt><trkpt lat="43.5985501" lon="2.5002854"><ele>792.8000000000001</ele><time>2026-05-02T10:27:58.5Z</time></trkpt><trkpt lat="43.5986258" lon="2.5002928"><ele>791.6</ele><time>2026-05-02T10:28:00.502Z</time></trkpt><trkpt lat="43.5986917" lon="2.5002173"><ele>790.4</ele><time>2026-05-02T10:28:02.501Z</time></trkpt><trkpt lat="43.5987889" lon="2.50015"><ele>789.2</ele><time>2026-05-02T10:28:04.502Z</time></trkpt><trkpt lat="43.5988979" lon="2.5000511"><ele>788.0</ele><time>2026-05-02T10:28:06.501Z</time></trkpt><trkpt lat="43.5989815" lon="2.4999777"><ele>787.4</ele><time>2026-05-02T10:28:07.5Z</time></trkpt><trkpt lat="43.5990404" lon="2.4999205"><ele>786.8</ele><time>2026-05-02T10:28:08.501Z</time></trkpt><trkpt lat="43.5991037" lon="2.4998557"><ele>786.2</ele><time>2026-05-02T10:28:09.501Z</time></trkpt><trkpt lat="43.5991637" lon="2.4997851"><ele>785.6</ele><time>2026-05-02T10:28:10.501Z</time></trkpt><trkpt lat="43.5992957" lon="2.499681"><ele>785.0</ele><time>2026-05-02T10:28:12.501Z</time></trkpt><trkpt lat="43.5993959" lon="2.499594"><ele>784.0000000000001</ele><time>2026-05-02T10:28:14.5Z</time></trkpt><trkpt lat="43.5994587" lon="2.4995203"><ele>783.0</ele><time>2026-05-02T10:28:15.501Z</time></trkpt><trkpt lat="43.5995216" lon="2.499453"><ele>782.0</ele><time>2026-05-02T10:28:16.499Z</time></trkpt><trkpt lat="43.5996212" lon="2.4993581"><ele>781.0</ele><time>2026-05-02T10:28:18.502Z</time></trkpt><trkpt lat="43.5996896" lon="2.4992949"><ele>780.0000000000001</ele><time>2026-05-02T10:28:19.501Z</time></trkpt><trkpt lat="43.599753" lon="2.4992391"><ele>779.0</ele><time>2026-05-02T10:28:20.501Z</time></trkpt><trkpt lat="43.5998142" lon="2.4992004"><ele>778.6666666666667</ele><time>2026-05-02T10:28:21.501Z</time></trkpt><trkpt lat="43.5998838" lon="2.499154"><ele>778.3333333333334</ele><time>2026-05-02T10:28:22.502Z</time></trkpt><trkpt lat="43.5999916" lon="2.4990806"><ele>778.0</ele><time>2026-05-02T10:28:24.501Z</time></trkpt><trkpt lat="43.600061" lon="2.4990049"><ele>777.6666666666667</ele><time>2026-05-02T10:28:25.5Z</time></trkpt><trkpt lat="43.6001105" lon="2.4989401"><ele>777.3333333333334</ele><time>2026-05-02T10:28:26.501Z</time></trkpt><trkpt lat="43.6001714" lon="2.4988947"><ele>777.0</ele><time>2026-05-02T10:28:27.502Z</time></trkpt><trkpt lat="43.6002345" lon="2.4988518"><ele>776.0</ele><time>2026-05-02T10:28:28.5Z</time></trkpt><trkpt lat="43.6003365" lon="2.4987606"><ele>775.0</ele><time>2026-05-02T10:28:30.501Z</time></trkpt><trkpt lat="43.6004025" lon="2.4987061"><ele>774.0</ele><time>2026-05-02T10:28:31.499Z</time></trkpt><trkpt lat="43.6005144" lon="2.4986201"><ele>773.0</ele><time>2026-05-02T10:28:33.502Z</time></trkpt><trkpt lat="43.6005703" lon="2.4985726"><ele>772.0</ele><time>2026-05-02T10:28:34.501Z</time></trkpt><trkpt lat="43.6006575" lon="2.4985062"><ele>772.0</ele><time>2026-05-02T10:28:36.5Z</time></trkpt><trkpt lat="43.6007024" lon="2.498418"><ele>772.0</ele><time>2026-05-02T10:28:39.502Z</time></trkpt><trkpt lat="43.6007563" lon="2.4983253"><ele>772.0</ele><time>2026-05-02T10:28:41.501Z</time></trkpt><trkpt lat="43.6008144" lon="2.4981959"><ele>772.0</ele><time>2026-05-02T10:28:43.501Z</time></trkpt><trkpt lat="43.600877" lon="2.4980874"><ele>772.0</ele><time>2026-05-02T10:28:45.502Z</time></trkpt><trkpt lat="43.6009262" lon="2.4979644"><ele>771.6</ele><time>2026-05-02T10:28:47.5Z</time></trkpt><trkpt lat="43.6009964" lon="2.4978351"><ele>771.2</ele><time>2026-05-02T10:28:49.502Z</time></trkpt><trkpt lat="43.6010262" lon="2.4976965"><ele>770.8</ele><time>2026-05-02T10:28:51.501Z</time></trkpt><trkpt lat="43.6010687" lon="2.4975621"><ele>770.4</ele><time>2026-05-02T10:28:53.501Z</time></trkpt><trkpt lat="43.6010845" lon="2.4974467"><ele>770.0</ele><time>2026-05-02T10:28:55.5Z</time></trkpt><trkpt lat="43.6011043" lon="2.4972977"><ele>770.0000000000001</ele><time>2026-05-02T10:28:57.501Z</time></trkpt><trkpt lat="43.6011523" lon="2.4971772"><ele>770.0</ele><time>2026-05-02T10:28:59.502Z</time></trkpt><trkpt lat="43.6011698" lon="2.4970586"><ele>770.0</ele><time>2026-05-02T10:29:01.5Z</time></trkpt><trkpt lat="43.6012026" lon="2.4969551"><ele>770.0</ele><time>2026-05-02T10:29:03.5Z</time></trkpt><trkpt lat="43.6012481" lon="2.4968573"><ele>770.0000000000001</ele><time>2026-05-02T10:29:06.502Z</time></trkpt><trkpt lat="43.6012547" lon="2.4967695"><ele>770.0</ele><time>2026-05-02T10:29:28.501Z</time></trkpt><trkpt lat="43.6013102" lon="2.4968136"><ele>768.1666666666667</ele><time>2026-05-02T10:30:06.5Z</time></trkpt><trkpt lat="43.6013391" lon="2.4969116"><ele>766.3333333333334</ele><time>2026-05-02T10:30:10.501Z</time></trkpt><trkpt lat="43.6013434" lon="2.4969995"><ele>764.5</ele><time>2026-05-02T10:30:56.5Z</time></trkpt><trkpt lat="43.601368" lon="2.4970884"><ele>762.6666666666667</ele><time>2026-05-02T10:30:59.5Z</time></trkpt><trkpt lat="43.6014119" lon="2.4971856"><ele>760.8333333333334</ele><time>2026-05-02T10:31:01.5Z</time></trkpt><trkpt lat="43.6014731" lon="2.4973139"><ele>759.0</ele><time>2026-05-02T10:31:03.5Z</time></trkpt><trkpt lat="43.601486" lon="2.4974666"><ele>759.0</ele><time>2026-05-02T10:31:05.5Z</time></trkpt><trkpt lat="43.6015106" lon="2.4975671"><ele>759.0</ele><time>2026-05-02T10:31:07.5Z</time></trkpt><trkpt lat="43.6015147" lon="2.4976571"><ele>759.0</ele><time>2026-05-02T10:31:12.499Z</time></trkpt><trkpt lat="43.6014716" lon="2.4977548"><ele>759.0</ele><time>2026-05-02T10:31:31.5Z</time></trkpt><trkpt lat="43.6014656" lon="2.4978645"><ele>759.0</ele><time>2026-05-02T10:31:32.5Z</time></trkpt><trkpt lat="43.6014681" lon="2.4979614"><ele>759.0</ele><time>2026-05-02T10:31:33.5Z</time></trkpt><trkpt lat="43.6014894" lon="2.4980787"><ele>759.0</ele><time>2026-05-02T10:31:34.499Z</time></trkpt><trkpt lat="43.6014932" lon="2.49818"><ele>759.0</ele><time>2026-05-02T10:31:35.5Z</time></trkpt><trkpt lat="43.6014763" lon="2.4983019"><ele>759.0</ele><time>2026-05-02T10:31:36.501Z</time></trkpt><trkpt lat="43.6014583" lon="2.4984178"><ele>759.0</ele><time>2026-05-02T10:31:37.499Z</time></trkpt><trkpt lat="43.601414" lon="2.4985724"><ele>759.0</ele><time>2026-05-02T10:31:38.501Z</time></trkpt><trkpt lat="43.6013706" lon="2.498685"><ele>758.8000000000001</ele><time>2026-05-02T10:31:39.5Z</time></trkpt><trkpt lat="43.6013159" lon="2.4988027"><ele>758.6</ele><time>2026-05-02T10:31:40.499Z</time></trkpt><trkpt lat="43.6012613" lon="2.4988955"><ele>758.4</ele><time>2026-05-02T10:31:41.5Z</time></trkpt><trkpt lat="43.601225" lon="2.498977"><ele>758.2</ele><time>2026-05-02T10:31:43.499Z</time></trkpt><trkpt lat="43.6011755" lon="2.4990838"><ele>758.0</ele><time>2026-05-02T10:31:51.5Z</time></trkpt><trkpt lat="43.6010925" lon="2.4992111"><ele>758.5999999999999</ele><time>2026-05-02T10:31:53.499Z</time></trkpt><trkpt lat="43.6010251" lon="2.4992913"><ele>759.1999999999999</ele><time>2026-05-02T10:31:54.499Z</time></trkpt><trkpt lat="43.6009577" lon="2.4993793"><ele>759.8</ele><time>2026-05-02T10:31:55.5Z</time></trkpt><trkpt lat="43.6008818" lon="2.4994707"><ele>760.4</ele><time>2026-05-02T10:31:56.5Z</time></trkpt><trkpt lat="43.6008185" lon="2.499567"><ele>761.0</ele><time>2026-05-02T10:31:57.5Z</time></trkpt><trkpt lat="43.6007234" lon="2.4996531"><ele>759.4</ele><time>2026-05-02T10:31:58.5Z</time></trkpt><trkpt lat="43.6006692" lon="2.4997461"><ele>757.8</ele><time>2026-05-02T10:31:59.5Z</time></trkpt><trkpt lat="43.6006152" lon="2.4998493"><ele>756.1999999999999</ele><time>2026-05-02T10:32:00.5Z</time></trkpt><trkpt lat="43.600565" lon="2.4999557"><ele>754.5999999999999</ele><time>2026-05-02T10:32:01.499Z</time></trkpt><trkpt lat="43.6005114" lon="2.5000609"><ele>753.0</ele><time>2026-05-02T10:32:02.5Z</time></trkpt><trkpt lat="43.6004645" lon="2.5001815"><ele>753.0</ele><time>2026-05-02T10:32:03.499Z</time></trkpt><trkpt lat="43.6004257" lon="2.5002965"><ele>753.0</ele><time>2026-05-02T10:32:04.5Z</time></trkpt><trkpt lat="43.6003796" lon="2.5004008"><ele>753.0</ele><time>2026-05-02T10:32:05.5Z</time></trkpt><trkpt lat="43.6003375" lon="2.5005164"><ele>753.0</ele><time>2026-05-02T10:32:06.5Z</time></trkpt><trkpt lat="43.6002646" lon="2.5006212"><ele>753.0</ele><time>2026-05-02T10:32:07.5Z</time></trkpt><trkpt lat="43.6001947" lon="2.5007309"><ele>753.8</ele><time>2026-05-02T10:32:08.5Z</time></trkpt><trkpt lat="43.6001559" lon="2.5008393"><ele>754.5999999999999</ele><time>2026-05-02T10:32:09.498Z</time></trkpt><trkpt lat="43.6001166" lon="2.5009362"><ele>755.4000000000001</ele><time>2026-05-02T10:32:10.499Z</time></trkpt><trkpt lat="43.6000951" lon="2.501035"><ele>756.2</ele><time>2026-05-02T10:32:11.5Z</time></trkpt><trkpt lat="43.6000507" lon="2.5012009"><ele>757.0</ele><time>2026-05-02T10:32:13.5Z</time></trkpt><trkpt lat="43.6000298" lon="2.5013519"><ele>757.0</ele><time>2026-05-02T10:32:14.5Z</time></trkpt><trkpt lat="43.6000107" lon="2.5014938"><ele>757.0</ele><time>2026-05-02T10:32:15.499Z</time></trkpt><trkpt lat="43.5999959" lon="2.5016224"><ele>757.0</ele><time>2026-05-02T10:32:16.498Z</time></trkpt><trkpt lat="43.5999766" lon="2.5017582"><ele>757.0</ele><time>2026-05-02T10:32:17.5Z</time></trkpt><trkpt lat="43.599979" lon="2.5018646"><ele>757.0</ele><time>2026-05-02T10:32:18.501Z</time></trkpt><trkpt lat="43.5999774" lon="2.5019547"><ele>757.0</ele><time>2026-05-02T10:32:19.5Z</time></trkpt><trkpt lat="43.5999698" lon="2.5020518"><ele>755.6666666666667</ele><time>2026-05-02T10:32:20.5Z</time></trkpt><trkpt lat="43.5999593" lon="2.5021872"><ele>754.3333333333334</ele><time>2026-05-02T10:32:22.5Z</time></trkpt><trkpt lat="43.5999114" lon="2.5022915"><ele>753.0</ele><time>2026-05-02T10:32:24.5Z</time></trkpt><trkpt lat="43.5998745" lon="2.5023837"><ele>751.6666666666666</ele><time>2026-05-02T10:32:26.5Z</time></trkpt><trkpt lat="43.5998722" lon="2.5024806"><ele>750.3333333333333</ele><time>2026-05-02T10:32:51.501Z</time></trkpt><trkpt lat="43.5998538" lon="2.5025719"><ele>749.0</ele><time>2026-05-02T10:32:57.499Z</time></trkpt><trkpt lat="43.5998136" lon="2.5026927"><ele>749.0</ele><time>2026-05-02T10:33:00.501Z</time></trkpt><trkpt lat="43.5997705" lon="2.5027783"><ele>749.0</ele><time>2026-05-02T10:33:02.501Z</time></trkpt><trkpt lat="43.5997255" lon="2.502871"><ele>749.0</ele><time>2026-05-02T10:33:04.5Z</time></trkpt><trkpt lat="43.5996899" lon="2.502953"><ele>749.0</ele><time>2026-05-02T10:33:06.499Z</time></trkpt><trkpt lat="43.5996371" lon="2.503058"><ele>749.0</ele><time>2026-05-02T10:33:08.498Z</time></trkpt><trkpt lat="43.5995868" lon="2.5031786"><ele>749.0</ele><time>2026-05-02T10:33:10.499Z</time></trkpt><trkpt lat="43.5995425" lon="2.5032921"><ele>740.0</ele><time>2026-05-02T10:33:12.499Z</time></trkpt><trkpt lat="43.5994915" lon="2.5033873"><ele>768.0</ele><time>2026-05-02T10:33:14.5Z</time></trkpt><trkpt lat="43.5994402" lon="2.5034677"><ele>768.0</ele><time>2026-05-02T10:33:16.501Z</time></trkpt><trkpt lat="43.5994054" lon="2.5035467"><ele>768.0</ele><time>2026-05-02T10:33:18.501Z</time></trkpt><trkpt lat="43.5993701" lon="2.5036496"><ele>768.0</ele><time>2026-05-02T10:33:20.499Z</time></trkpt><trkpt lat="43.5993401" lon="2.5037364"><ele>768.0</ele><time>2026-05-02T10:33:23.499Z</time></trkpt><trkpt lat="43.5993056" lon="2.503814"><ele>760.0</ele><time>2026-05-02T10:33:33.498Z</time></trkpt></trkseg><trkseg><trkpt lat="43.5992882" lon="2.5039275"><ele>789.6</ele><time>2026-05-02T10:45:02.495Z</time></trkpt></trkseg><trkseg><trkpt lat="43.5996213" lon="2.505583"><ele>755.0</ele><time>2026-05-02T10:55:11.493Z</time></trkpt><trkpt lat="43.5996759" lon="2.5056442"><ele>755.0</ele><time>2026-05-02T10:56:41.494Z</time></trkpt><trkpt lat="43.5997381" lon="2.5056974"><ele>755.0</ele><time>2026-05-02T10:56:44.495Z</time></trkpt><trkpt lat="43.599799" lon="2.5057485"><ele>755.0</ele><time>2026-05-02T10:56:47.494Z</time></trkpt><trkpt lat="43.599882" lon="2.5057703"><ele>755.0</ele><time>2026-05-02T10:56:50.495Z</time></trkpt><trkpt lat="43.5999671" lon="2.5057954"><ele>755.0</ele><time>2026-05-02T10:56:53.494Z</time></trkpt><trkpt lat="43.6000291" lon="2.5058212"><ele>755.0</ele><time>2026-05-02T10:56:55.494Z</time></trkpt><trkpt lat="43.600115" lon="2.5058552"><ele>755.0</ele><time>2026-05-02T10:56:57.494Z</time></trkpt><trkpt lat="43.6001921" lon="2.5059093"><ele>755.0</ele><time>2026-05-02T10:56:59.493Z</time></trkpt><trkpt lat="43.6002714" lon="2.5059615"><ele>755.0</ele><time>2026-05-02T10:57:01.493Z</time></trkpt><trkpt lat="43.6003361" lon="2.5060695"><ele>755.0</ele><time>2026-05-02T10:57:03.495Z</time></trkpt><trkpt lat="43.6003943" lon="2.5061671"><ele>753.0</ele><time>2026-05-02T10:57:05.493Z</time></trkpt><trkpt lat="43.6004602" lon="2.5062113"><ele>751.0</ele><time>2026-05-02T10:57:07.494Z</time></trkpt><trkpt lat="43.6005387" lon="2.5062703"><ele>749.0</ele><time>2026-05-02T10:57:09.493Z</time></trkpt><trkpt lat="43.600591" lon="2.5063732"><ele>747.0</ele><time>2026-05-02T10:57:11.494Z</time></trkpt><trkpt lat="43.600637" lon="2.5064471"><ele>745.0</ele><time>2026-05-02T10:57:13.495Z</time></trkpt><trkpt lat="43.6006761" lon="2.5065198"><ele>743.0</ele><time>2026-05-02T10:57:15.494Z</time></trkpt><trkpt lat="43.6007122" lon="2.5066469"><ele>743.0</ele><time>2026-05-02T10:57:18.493Z</time></trkpt><trkpt lat="43.6007437" lon="2.5067544"><ele>743.0</ele><time>2026-05-02T10:57:20.495Z</time></trkpt><trkpt lat="43.6008059" lon="2.5068619"><ele>743.0</ele><time>2026-05-02T10:57:22.494Z</time></trkpt><trkpt lat="43.6008742" lon="2.5069414"><ele>743.0</ele><time>2026-05-02T10:57:24.494Z</time></trkpt><trkpt lat="43.600921" lon="2.5070136"><ele>743.0</ele><time>2026-05-02T10:57:26.493Z</time></trkpt><trkpt lat="43.600968" lon="2.5070729"><ele>743.0</ele><time>2026-05-02T10:57:28.494Z</time></trkpt><trkpt lat="43.6009696" lon="2.5071968"><ele>743.2</ele><time>2026-05-02T10:57:31.495Z</time></trkpt><trkpt lat="43.600982" lon="2.507299"><ele>743.4</ele><time>2026-05-02T10:57:33.492Z</time></trkpt><trkpt lat="43.6010023" lon="2.5074187"><ele>743.6</ele><time>2026-05-02T10:57:35.494Z</time></trkpt><trkpt lat="43.6010033" lon="2.5075394"><ele>743.8000000000001</ele><time>2026-05-02T10:57:37.494Z</time></trkpt><trkpt lat="43.6010032" lon="2.507713"><ele>744.0</ele><time>2026-05-02T10:57:39.493Z</time></trkpt><trkpt lat="43.6010255" lon="2.5078664"><ele>743.0</ele><time>2026-05-02T10:57:41.493Z</time></trkpt><trkpt lat="43.6010389" lon="2.5080009"><ele>742.0</ele><time>2026-05-02T10:57:43.494Z</time></trkpt><trkpt lat="43.6010096" lon="2.5080874"><ele>741.0</ele><time>2026-05-02T10:57:44.494Z</time></trkpt><trkpt lat="43.6009589" lon="2.5082169"><ele>740.0</ele><time>2026-05-02T10:57:46.493Z</time></trkpt><trkpt lat="43.600904" lon="2.5083225"><ele>739.0</ele><time>2026-05-02T10:57:48.494Z</time></trkpt><trkpt lat="43.6008809" lon="2.5084039"><ele>738.0</ele><time>2026-05-02T10:57:50.493Z</time></trkpt><trkpt lat="43.6009485" lon="2.5084915"><ele>738.0</ele><time>2026-05-02T10:58:01.492Z</time></trkpt><trkpt lat="43.6010073" lon="2.5084445"><ele>738.0</ele><time>2026-05-02T10:58:14.493Z</time></trkpt><trkpt lat="43.6010704" lon="2.5083903"><ele>738.0</ele><time>2026-05-02T10:58:16.493Z</time></trkpt><trkpt lat="43.6011474" lon="2.5083218"><ele>738.0</ele><time>2026-05-02T10:58:18.494Z</time></trkpt><trkpt lat="43.6012022" lon="2.5082525"><ele>738.0</ele><time>2026-05-02T10:58:20.494Z</time></trkpt><trkpt lat="43.601263" lon="2.5081766"><ele>738.0</ele><time>2026-05-02T10:58:23.494Z</time></trkpt><trkpt lat="43.6013157" lon="2.5081285"><ele>735.5</ele><time>2026-05-02T10:58:25.495Z</time></trkpt><trkpt lat="43.6013862" lon="2.5080525"><ele>733.0</ele><time>2026-05-02T10:58:27.494Z</time></trkpt><trkpt lat="43.6014459" lon="2.5079799"><ele>730.5</ele><time>2026-05-02T10:58:29.494Z</time></trkpt><trkpt lat="43.6015037" lon="2.5079075"><ele>728.0</ele><time>2026-05-02T10:58:31.493Z</time></trkpt><trkpt lat="43.6015647" lon="2.5078106"><ele>725.5</ele><time>2026-05-02T10:58:33.495Z</time></trkpt><trkpt lat="43.6016138" lon="2.5076948"><ele>723.0</ele><time>2026-05-02T10:58:35.493Z</time></trkpt><trkpt lat="43.6016462" lon="2.5075455"><ele>723.0</ele><time>2026-05-02T10:58:37.493Z</time></trkpt><trkpt lat="43.6016736" lon="2.5074047"><ele>723.0</ele><time>2026-05-02T10:58:39.493Z</time></trkpt><trkpt lat="43.6016731" lon="2.5072924"><ele>723.0</ele><time>2026-05-02T10:58:41.492Z</time></trkpt><trkpt lat="43.6016793" lon="2.5071876"><ele>723.0</ele><time>2026-05-02T10:58:43.494Z</time></trkpt><trkpt lat="43.6016862" lon="2.5070989"><ele>723.0</ele><time>2026-05-02T10:58:45.494Z</time></trkpt><trkpt lat="43.6017158" lon="2.5069888"><ele>723.0</ele><time>2026-05-02T10:58:49.494Z</time></trkpt><trkpt lat="43.6017594" lon="2.5069047"><ele>727.0</ele><time>2026-05-02T10:58:51.493Z</time></trkpt><trkpt lat="43.6018296" lon="2.5068155"><ele>727.0</ele><time>2026-05-02T10:58:54.492Z</time></trkpt><trkpt lat="43.6019006" lon="2.5067538"><ele>727.0</ele><time>2026-05-02T10:58:57.494Z</time></trkpt><trkpt lat="43.6019841" lon="2.5067053"><ele>727.0</ele><time>2026-05-02T10:59:22.492Z</time></trkpt></trkseg></trk></gpx>